GFSNE_850_dewp_003.txt.gz
Dewpoint
-2 -1 2 2 2 1 2 4 6 7 6 6 6 7 7 7 7 7 7 7 6 6 5 6 4 4 6 7 7 7 5 5 6 7 8 7 7 6
0 -1 -2 -2 -1 0 2 2 3 4 5 5 5 6 5 5 5 5 5 5 7 7 7 7 6 6 5 7 7 6 6 5 6 7 8 8 8 6
-4 -3 -3 -0 0 -1 -1 -0 -1 0 4 3 4 4 5 6 6 6 6 5 5 5 7 7 7 8 7 6 7 7 6 6 6 6 8 8 7 6
-8 -6 -3 -5 -9 -10 -10 -8 -7 -2 2 3 2 4 5 5 5 5 6 7 7 6 5 6 7 8 8 8 8 7 7 7 6 6 7 8 6 6
-10 -4 -3 -9 -11 -12 -15 -2 -1 -14 -13 -1 1 3 3 4 4 5 6 6 5 7 6 6 6 7 6 8 6 8 8 7 7 7 8 6 4 4
-7 -4 -8 -9 -12 -16 -8 -0 -4 -14 -7 -2 -2 1 2 2 3 4 5 6 5 4 5 4 5 6 7 5 5 7 8 8 8 8 8 7 5 4
-8 -10 -13 -13 -13 -11 -4 -6 -5 -6 -3 -3 -2 -0 0 0 2 2 3 4 5 5 4 3 3 6 6 5 5 6 7 7 7 7 7 5 3 4
-13 -14 -15 -17 -18 -9 -11 -11 -4 -3 -3 -3 -3 -2 -1 -0 0 1 1 2 3 5 5 5 4 4 4 4 5 5 6 6 6 6 5 3 3 2
-13 -12 -15 -13 -11 -7 -7 -5 -4 -4 -4 -3 -2 -2 -1 -0 -0 0 1 1 2 3 3 4 4 3 4 5 5 5 5 5 5 2 2 2 1 0
-9 -9 -8 -7 -7 -6 -6 -6 -5 -7 -10 -4 -2 -1 -2 -2 -0 0 0 1 1 2 2 2 4 4 4 5 3 4 3 2 1 1 1 0 -0 -2
-9 -7 -6 -7 -7 -7 -7 -6 -7 -6 -5 -3 -3 -3 -3 -2 -1 0 1 1 1 1 1 2 3 3 2 3 1 1 0 -0 0 -0 -0 -1 -3 -4
-6 -7 -8 -7 -7 -7 -7 -6 -4 -4 -3 -4 -4 -4 -4 -3 -2 -1 -1 -1 -0 -0 1 1 2 1 -1 -1 -1 -2 -1 -1 -1 -1 -3 -4 -4 -4
-7 -8 -8 -8 -6 -8 -7 -6 -6 -5 -6 -5 -5 -6 -5 -4 -3 -3 -2 -2 -2 -2 -1 0 1 -1 -1 -3 -3 -3 -2 -2 -3 -4 -4 -4 -4 -4
-8 -8 -8 -7 -8 -8 -8 -8 -7 -6 -6 -6 -6 -6 -5 -4 -5 -4 -4 -3 -3 -3 -2 -1 -1 -1 -2 -4 -5 -5 -4 -4 -4 -5 -5 -4 -4 -4
-9 -7 -8 -9 -9 -10 -9 -8 -7 -8 -7 -6 -6 -6 -6 -6 -5 -5 -5 -5 -5 -4 -3 -3 -3 -2 -2 -2 -5 -5 -5 -5 -6 -6 -6 -7 -5 -5
-7 -9 -11 -11 -10 -10 -10 -9 -9 -8 -7 -7 -7 -7 -7 -6 -6 -6 -6 -6 -6 -6 -5 -5 -4 -4 -3 -3 -3 -4 -5 -18 -16 -14 -11 -9 -9 -12
-8 -11 -14 -11 -11 -11 -11 -10 -10 -9 -8 -8 -8 -7 -7 -7 -7 -7 -7 -6 -6 -6 -6 -6 -5 -8 -17 -19 -28 -23 -21 -25 -19 -19 -20 -21 -22 -21
-10 -12 -12 -10 -11 -11 -11 -11 -10 -9 -9 -8 -8 -7 -8 -7 -7 -7 -7 -7 -6 -7 -6 -7 -16 -22 -22 -22 -22 -22 -23 -23 -20 -21 -20 -17 -15 -14
-11 -12 -11 -11 -11 -11 -11 -11 -10 -9 -9 -9 -8 -8 -8 -8 -8 -8 -8 -7 -7 -7 -9 -18 -18 -21 -24 -22 -21 -20 -18 -15 -14 -14 -14 -13 -12 -11
-11 -11 -11 -11 -12 -12 -11 -11 -10 -10 -9 -9 -8 -8 -8 -8 -8 -8 -8 -7 -7 -8 -11 -16 -23 -24 -23 -18 -17 -16 -14 -13 -13 -12 -12 -11 -10 -8
-11 -12 -12 -12 -12 -12 -11 -11 -10 -10 -10 -9 -9 -8 -9 -9 -8 -8 -8 -8 -9 -11 -15 -21 -23 -26 -18 -16 -14 -12 -11 -11 -10 -9 -8 -8 -8 -7
-13 -14 -12 -12 -13 -12 -11 -10 -10 -10 -9 -9 -9 -9 -9 -9 -8 -8 -8 -10 -12 -16 -20 -28 -23 -17 -13 -10 -8 -7 -7 -7 -7 -7 -7 -7 -8 -8
-14 -12 -12 -13 -13 -12 -11 -10 -10 -10 -9 -9 -9 -9 -8 -8 -7 -10 -12 -15 -20 -26 -26 -17 -12 -8 -7 -7 -7 -7 -7 -7 -7 -7 -7 -7 -8 -8

GFSNE_850_dewp_009.txt.gz
Dewpoint
-30 -26 -25 -22 -10 -3 -1 -0 -3 -0 -3 -6 -6 -5 -0 -1 -6 -8 -9 -10 -2 1 3 4 3 3 4 5 5 5 5 5 9 9 10 9 8 8
-24 -24 -18 -10 -7 -4 -5 -4 -3 -4 -5 -7 -7 -4 -1 -5 -8 -6 -8 -10 -11 -11 -8 -4 0 2 3 5 5 6 6 6 7 7 9 8 9 8
-22 -14 -7 -6 -10 -13 -9 -9 -9 -10 -8 -10 -4 -3 -4 -7 -5 -5 -7 -15 -11 -11 -9 -8 -2 1 4 4 6 6 7 7 7 7 8 8 8 9
-12 -7 -7 -11 -12 -11 -11 -8 -8 -7 -7 -4 -4 -5 -6 -5 -4 -5 -6 -4 -6 -13 -8 -3 -1 2 2 4 5 4 6 6 6 7 8 5 6 8
-13 -9 -10 -10 -10 -9 -8 -7 -6 -7 -6 -6 -6 -6 -6 -5 -6 -5 -5 -7 -5 -4 -1 -2 1 -0 1 2 4 4 3 3 5 6 6 7 6 6
-11 -10 -10 -9 -9 -8 -7 -6 -7 -6 -6 -6 -6 -7 -7 -7 -6 -7 -6 -6 -5 -3 -2 -1 -6 -3 0 0 1 3 3 3 4 6 6 7 7 6
-10 -10 -9 -9 -8 -7 -7 -7 -7 -7 -7 -7 -6 -6 -7 -7 -6 -6 -5 -4 -3 -3 -3 -2 -2 -1 -1 0 2 4 4 4 2 2 4 6 6 6
-9 -10 -9 -9 -8 -7 -7 -7 -7 -7 -6 -6 -7 -7 -7 -7 -5 -5 -5 -4 -3 -5 -3 -3 -3 -2 -2 -3 -2 1 1 -0 0 1 3 2 5 4
-9 -9 -9 -8 -7 -8 -8 -8 -7 -7 -8 -8 -7 -7 -8 -9 -6 -5 -5 -5 -4 -4 -4 -4 -2 -2 -1 -1 -0 1 2 2 1 2 2 2 4 5
-9 -9 -8 -8 -8 -8 -7 -6 -9 -13 -10 -8 -8 -8 -8 -8 -7 -6 -6 -6 -6 -5 -5 -4 -4 -5 -3 0 1 -0 0 1 2 1 2 4 4 3
-9 -8 -7 -9 -9 -8 -7 -9 -10 -10 -11 -9 -9 -8 -8 -7 -6 -6 -6 -6 -6 -5 -5 -5 -4 -2 -2 -1 -1 -0 0 0 1 2 2 3 5 5
-8 -8 -9 -10 -9 -8 -8 -9 -10 -11 -9 -9 -10 -12 -10 -10 -7 -7 -7 -7 -6 -6 -6 -6 -6 -6 -4 -2 -1 -1 1 1 2 3 4 4 4 4
-9 -9 -10 -9 -8 -8 -10 -11 -10 -10 -10 -12 -12 -10 -9 -9 -8 -8 -8 -7 -7 -7 -7 -7 -7 -7 -6 -5 -4 -1 1 2 2 2 1 2 3 3
-9 -10 -9 -8 -9 -10 -11 -11 -10 -10 -13 -11 -10 -10 -9 -10 -9 -9 -8 -8 -8 -8 -7 -7 -8 -7 -7 -6 -5 -2 -0 0 0 -0 -1 -0 -0 -0
-10 -9 -10 -12 -11 -11 -11 -11 -11 -11 -12 -11 -10 -10 -10 -10 -10 -9 -9 -8 -8 -8 -8 -8 -8 -7 -7 -6 -5 -3 -2 -1 -1 -1 -2 -2 -2 -2
-9 -11 -13 -12 -11 -11 -12 -12 -12 -12 -11 -11 -11 -11 -11 -10 -10 -9 -8 -9 -8 -8 -8 -8 -8 -8 -7 -7 -6 -4 -4 -3 -3 -3 -3 -3 -3 -3
-12 -13 -13 -11 -12 -13 -13 -12 -12 -12 -11 -11 -11 -11 -11 -10 -10 -9 -9 -8 -8 -8 -9 -9 -9 -9 -8 -7 -7 -6 -5 -4 -3 -3 -3 -3 -4 -4
-12 -13 -13 -12 -12 -12 -12 -12 -12 -12 -12 -12 -12 -11 -11 -10 -10 -9 -9 -8 -9 -9 -9 -9 -8 -8 -9 -9 -7 -6 -5 -4 -4 -4 -4 -4 -4 -4
-12 -13 -12 -12 -12 -13 -13 -13 -12 -12 -12 -12 -12 -11 -10 -10 -9 -9 -8 -8 -9 -9 -9 -9 -10 -18 -8 -9 -8 -6 -6 -5 -5 -5 -4 -4 -5 -5
-13 -13 -13 -13 -13 -13 -13 -12 -12 -12 -12 -12 -11 -11 -10 -10 -9 -8 -9 -9 -9 -9 -17 -21 -21 -21 -16 -12 -16 -17 -14 -7 -6 -6 -7 -7 -7 -7
-13 -13 -13 -13 -13 -13 -13 -12 -12 -12 -12 -12 -11 -10 -10 -9 -9 -9 -8 -9 -9 -13 -19 -22 -18 -16 -17 -17 -16 -13 -14 -12 -14 -18 -18 -16 -16 -15
-13 -13 -13 -13 -13 -14 -12 -12 -13 -12 -12 -11 -10 -10 -9 -9 -10 -10 -12 -13 -17 -21 -23 -17 -14 -13 -13 -15 -14 -12 -12 -12 -12 -12 -12 -12 -11 -11
-13 -13 -13 -14 -15 -14 -12 -12 -12 -11 -10 -10 -9 -9 -10 -12 -15 -20 -23 -22 -14 -10 -9 -8 -7 -7 -8 -9 -10 -11 -11 -10 -10 -10 -8 -8 -7 -7

GFSNE_850_dewp_012.txt.gz
Dewpoint
-13 -10 -10 -10 -8 -7 -6 -6 -7 -5 -5 -8 -9 -12 -14 -12 -9 -3 -3 -5 -6 -4 -4 -5 -11 -10 -9 -5 2 3 4 4 3 4 3 6 6 5
-13 -11 -10 -10 -7 -9 -10 -11 -10 -9 -8 -9 -9 -10 -9 -6 -5 -5 -7 -6 -5 -3 -4 -5 -2 -4 -13 -11 -6 -1 2 4 4 5 5 6 5 5
-12 -11 -10 -10 -9 -11 -11 -11 -10 -10 -8 -8 -7 -8 -8 -9 -8 -8 -7 -6 -6 -6 -5 -2 -3 -6 -11 -4 -2 -0 2 3 5 6 6 6 7 7
-12 -11 -11 -11 -10 -11 -10 -10 -9 -9 -8 -6 -8 -8 -8 -7 -7 -8 -8 -8 -7 -7 -6 -5 -4 -4 -4 -4 -1 -1 -1 2 4 5 6 6 7 7
-11 -11 -11 -10 -10 -10 -10 -9 -9 -9 -7 -7 -7 -7 -7 -7 -7 -7 -7 -8 -8 -6 -6 -5 -3 -2 -2 -1 -4 -6 -2 -1 2 5 4 4 5 6
-10 -10 -10 -10 -10 -9 -9 -9 -8 -7 -8 -7 -7 -7 -7 -9 -8 -8 -8 -7 -6 -6 -5 -3 -3 -2 -2 -2 -2 -2 1 2 3 3 4 4 4 4
-9 -10 -10 -10 -9 -8 -8 -7 -7 -8 -7 -6 -6 -7 -9 -10 -8 -8 -8 -9 -8 -8 -5 -5 -4 -4 -4 -4 -7 -7 -3 -1 2 4 4 3 3 4
-10 -10 -11 -10 -10 -8 -8 -7 -8 -7 -6 -6 -6 -7 -9 -9 -8 -9 -7 -7 -6 -10 -5 -5 -7 -5 -5 -5 -4 -2 -1 -0 0 1 3 3 1 2
-11 -11 -11 -11 -8 -8 -9 -9 -8 -7 -7 -8 -8 -9 -10 -9 -8 -7 -7 -7 -7 -8 -6 -6 -6 -6 -5 -5 -3 -4 -1 0 1 1 2 0 1 0
-11 -10 -10 -9 -8 -9 -9 -8 -7 -8 -9 -10 -10 -9 -8 -8 -8 -8 -8 -8 -7 -7 -5 -5 -6 -7 -7 -4 -3 -2 -1 -0 0 -0 -0 1 1 1
-10 -10 -8 -9 -9 -9 -7 -8 -8 -10 -12 -10 -9 -9 -10 -9 -8 -8 -8 -7 -7 -6 -7 -6 -7 -6 -5 -8 -5 -3 -2 -2 -1 -0 0 1 2 1
-10 -8 -10 -10 -9 -8 -8 -10 -9 -11 -10 -10 -10 -11 -10 -9 -9 -9 -9 -8 -8 -7 -8 -6 -8 -7 -6 -6 -4 -3 -3 -1 2 2 1 0 1 3
-9 -9 -10 -9 -9 -10 -11 -10 -10 -10 -10 -11 -11 -11 -10 -10 -10 -9 -9 -9 -9 -9 -9 -7 -7 -7 -7 -7 -7 -6 -5 -0 1 3 3 3 4 4
-9 -9 -9 -9 -11 -12 -11 -10 -11 -11 -12 -11 -11 -11 -10 -11 -10 -10 -10 -10 -9 -8 -8 -8 -8 -8 -8 -8 -7 -7 -4 -1 0 2 2 2 2 3
-9 -9 -10 -12 -12 -12 -11 -12 -11 -12 -11 -11 -11 -11 -11 -11 -11 -11 -10 -10 -9 -8 -8 -8 -8 -8 -8 -8 -8 -6 -5 -3 -1 -0 -0 -0 -0 0
-9 -10 -12 -12 -12 -12 -12 -13 -12 -12 -11 -11 -11 -12 -11 -11 -11 -10 -10 -9 -8 -8 -8 -8 -9 -9 -9 -8 -7 -6 -5 -4 -3 -1 -1 -1 -1 -0
-10 -12 -13 -13 -12 -13 -13 -12 -12 -12 -11 -12 -12 -12 -12 -11 -11 -10 -9 -9 -8 -8 -9 -9 -9 -9 -9 -8 -7 -6 -6 -4 -3 -2 -2 -3 -3 -2
-12 -12 -13 -12 -12 -12 -12 -12 -12 -12 -12 -12 -12 -12 -11 -11 -10 -9 -8 -8 -9 -9 -10 -9 -9 -9 -9 -9 -8 -7 -6 -5 -3 -3 -3 -3 -3 -3
-12 -13 -12 -12 -12 -12 -13 -12 -12 -12 -12 -12 -12 -12 -11 -10 -10 -9 -9 -9 -9 -9 -10 -10 -16 -9 -8 -9 -8 -7 -6 -5 -4 -4 -5 -5 -5 -5
-13 -12 -13 -13 -13 -13 -13 -13 -13 -13 -12 -12 -12 -11 -11 -10 -9 -9 -9 -9 -9 -12 -18 -16 -17 -9 -8 -9 -10 -8 -6 -5 -4 -5 -5 -5 -5 -5
-13 -13 -13 -13 -13 -13 -13 -13 -13 -13 -12 -12 -11 -11 -10 -9 -10 -11 -13 -11 -12 -18 -19 -15 -15 -16 -15 -13 -9 -8 -7 -5 -5 -5 -6 -5 -6 -6
-13 -13 -13 -13 -13 -13 -13 -13 -13 -12 -11 -11 -10 -10 -10 -10 -11 -17 -20 -17 -12 -12 -13 -9 -11 -14 -14 -13 -12 -11 -13 -15 -12 -10 -11 -10 -10 -11
-13 -13 -13 -13 -13 -13 -13 -13 -12 -11 -10 -10 -10 -11 -10 -11 -13 -16 -11 -9 -9 -9 -8 -8 -8 -11 -12 -11 -10 -11 -13 -12 -13 -12 -11 -12 -12 -12

GFSNE_850_dewp_015.txt.gz
Dewpoint
-15 -14 -13 -11 -11 -10 -10 -7 -8 -9 -10 -10 -10 -11 -9 -10 -8 -8 -7 -8 -7 -6 -6 -5 -4 -2 -3 -3 -1 0 0 1 1 2 4 0 2 3
-14 -13 -12 -12 -11 -10 -10 -9 -10 -10 -9 -9 -10 -10 -9 -7 -8 -8 -6 -7 -7 -7 -7 -7 -5 -5 -5 -3 -1 -1 -2 -1 2 2 3 4 3 2
-14 -13 -12 -12 -11 -11 -10 -10 -10 -9 -9 -9 -9 -8 -7 -8 -8 -7 -7 -7 -7 -8 -8 -7 -7 -6 -6 -5 -4 -3 -2 -1 0 2 2 3 5 4
-13 -12 -11 -11 -11 -10 -10 -10 -9 -9 -9 -8 -8 -7 -8 -8 -7 -7 -8 -10 -9 -9 -9 -9 -6 -4 -5 -5 -4 -1 -1 -1 1 0 0 -2 2 4
-11 -11 -10 -10 -10 -10 -10 -9 -9 -8 -8 -7 -7 -8 -7 -6 -7 -7 -9 -10 -10 -9 -7 -8 -8 -6 -4 -4 -3 -3 -2 -2 -1 -2 -1 -0 -1 4
-10 -10 -10 -10 -10 -10 -10 -9 -7 -7 -7 -6 -7 -7 -6 -7 -7 -8 -9 -10 -10 -9 -9 -8 -7 -7 -5 -4 -3 -5 -3 -2 -9 -8 -2 1 2 3
-9 -10 -11 -11 -10 -9 -9 -7 -7 -7 -7 -7 -6 -6 -7 -8 -9 -9 -10 -9 -9 -8 -8 -8 -7 -7 -7 -6 -6 -5 -4 -3 -4 -2 0 0 2 4
-9 -10 -11 -11 -11 -10 -9 -8 -7 -8 -7 -6 -6 -7 -8 -9 -11 -9 -8 -8 -8 -9 -8 -8 -7 -6 -7 -6 -4 -3 -3 -3 -2 -2 -2 -2 0 2
-10 -11 -11 -11 -10 -10 -9 -8 -8 -8 -7 -8 -8 -8 -10 -10 -9 -8 -8 -9 -9 -9 -7 -7 -6 -6 -5 -6 -7 -5 -4 -4 -3 -2 -1 -2 -1 1
-11 -11 -10 -10 -10 -9 -7 -8 -8 -9 -10 -10 -9 -10 -10 -9 -8 -9 -9 -8 -8 -8 -8 -6 -8 -6 -8 -8 -9 -6 -5 -4 -3 -2 -1 1 1 1
-10 -10 -9 -8 -9 -8 -8 -8 -10 -10 -11 -10 -10 -10 -10 -10 -10 -9 -9 -9 -9 -8 -9 -8 -8 -7 -9 -8 -9 -7 -4 -3 -3 -2 -2 -1 -0 0
-9 -9 -10 -9 -8 -8 -9 -10 -10 -10 -9 -10 -11 -12 -11 -11 -9 -10 -9 -9 -9 -9 -10 -9 -9 -8 -7 -8 -6 -7 -7 -6 -4 -2 -0 -1 -1 -1
-9 -9 -9 -10 -8 -10 -11 -11 -10 -9 -10 -11 -12 -12 -11 -10 -10 -10 -10 -10 -10 -9 -10 -9 -9 -8 -8 -7 -7 -8 -7 -6 -4 0 2 2 1 0
-9 -9 -9 -9 -10 -12 -11 -12 -11 -10 -12 -12 -11 -10 -10 -10 -11 -11 -11 -11 -10 -9 -10 -9 -8 -8 -7 -8 -8 -8 -7 -5 -3 -0 2 2 3 3
-10 -10 -9 -11 -12 -12 -12 -12 -12 -12 -11 -11 -10 -11 -11 -11 -11 -11 -11 -10 -10 -10 -8 -8 -7 -7 -8 -9 -9 -8 -7 -5 -3 -1 0 1 1 2
-10 -9 -12 -12 -12 -12 -12 -12 -12 -12 -11 -11 -11 -12 -12 -11 -11 -10 -10 -9 -9 -9 -8 -8 -9 -9 -9 -9 -8 -8 -6 -5 -3 -2 -1 -1 -1 0
-10 -11 -12 -13 -12 -12 -12 -12 -12 -11 -12 -12 -12 -12 -12 -11 -11 -10 -9 -8 -8 -9 -9 -10 -9 -9 -9 -8 -7 -6 -6 -5 -4 -3 -1 -2 -1 -1
-11 -12 -12 -12 -12 -12 -12 -12 -12 -12 -12 -12 -12 -12 -12 -11 -11 -10 -9 -8 -9 -9 -10 -10 -10 -9 -8 -8 -8 -7 -6 -5 -4 -3 -3 -2 -3 -2
-12 -12 -12 -12 -13 -12 -12 -12 -12 -13 -13 -12 -12 -12 -11 -11 -10 -10 -9 -9 -9 -10 -12 -11 -9 -8 -8 -9 -8 -7 -6 -5 -4 -3 -3 -3 -3 -3
-13 -12 -13 -13 -13 -12 -13 -12 -13 -13 -12 -12 -12 -11 -10 -10 -10 -10 -11 -11 -11 -15 -14 -12 -10 -9 -9 -10 -9 -8 -6 -5 -4 -4 -4 -5 -4 -4
-13 -13 -13 -13 -13 -13 -13 -13 -13 -13 -12 -11 -10 -10 -11 -10 -10 -10 -12 -11 -9 -9 -11 -10 -12 -10 -9 -8 -8 -7 -7 -5 -4 -5 -5 -5 -5 -5
-13 -14 -13 -13 -13 -13 -13 -13 -13 -11 -11 -10 -10 -11 -11 -10 -10 -10 -10 -10 -9 -9 -9 -9 -11 -11 -10 -8 -9 -9 -8 -7 -6 -5 -5 -5 -6 -6
-14 -13 -13 -13 -12 -13 -12 -12 -11 -10 -10 -10 -10 -10 -10 -10 -10 -10 -9 -9 -9 -9 -9 -9 -10 -10 -10 -11 -12 -11 -11 -11 -12 -14 -10 -8 -9 -7

GFSNE_850_dewp_018.txt.gz
Dewpoint
-18 -16 -17 -15 -13 -12 -11 -11 -9 -9 -9 -10 -10 -10 -9 -10 -10 -7 -8 -8 -8 -8 -7 -6 -5 -5 -6 -5 -4 -5 -5 -4 -3 -0 1 -0 1 4
-17 -18 -16 -13 -12 -12 -11 -10 -10 -9 -9 -10 -9 -9 -10 -9 -8 -8 -8 -8 -8 -7 -7 -8 -8 -8 -7 -7 -6 -7 -6 -4 -4 -3 -2 -1 -0 2
-18 -18 -14 -13 -11 -10 -10 -9 -9 -9 -9 -9 -10 -10 -8 -8 -11 -8 -7 -7 -7 -7 -8 -8 -9 -9 -8 -7 -6 -5 -4 -4 -4 -4 -2 -1 -0 2
-19 -16 -13 -11 -10 -10 -9 -10 -10 -10 -10 -9 -8 -7 -8 -9 -8 -8 -7 -7 -7 -9 -10 -9 -10 -9 -6 -7 -8 -8 -7 -5 -4 -2 -1 -1 -0 1
-16 -13 -12 -10 -10 -10 -10 -10 -10 -8 -7 -6 -7 -8 -7 -7 -8 -7 -7 -8 -9 -10 -12 -10 -9 -8 -8 -8 -7 -6 -6 -4 -3 -3 -2 -1 -1 -0
-13 -13 -10 -9 -10 -10 -10 -9 -8 -7 -7 -7 -7 -7 -7 -7 -7 -8 -9 -10 -11 -10 -10 -8 -8 -9 -8 -8 -7 -7 -5 -4 -5 -4 -4 -2 -2 -1
-13 -10 -9 -10 -10 -10 -9 -8 -8 -8 -7 -7 -7 -7 -8 -8 -8 -9 -10 -11 -10 -9 -8 -10 -10 -9 -10 -8 -7 -6 -5 -5 -4 -4 -3 -2 -2 -2
-10 -9 -10 -10 -10 -9 -9 -9 -8 -7 -8 -7 -8 -9 -10 -10 -8 -9 -9 -8 -8 -9 -10 -9 -8 -9 -8 -8 -6 -5 -4 -5 -5 -5 -3 -3 -3 -2
-9 -10 -10 -10 -10 -10 -10 -7 -7 -8 -8 -10 -10 -10 -9 -9 -9 -8 -8 -8 -9 -9 -9 -9 -9 -8 -8 -11 -8 -7 -6 -6 -6 -5 -4 -3 -3 -2
-10 -10 -9 -9 -10 -9 -8 -8 -8 -10 -10 -10 -11 -9 -9 -9 -9 -9 -9 -10 -10 -9 -9 -9 -9 -9 -10 -10 -8 -8 -7 -6 -5 -5 -4 -3 -2 -2
-9 -8 -8 -9 -9 -8 -8 -8 -9 -10 -12 -11 -9 -9 -11 -11 -10 -10 -10 -10 -10 -10 -11 -10 -10 -10 -10 -10 -10 -8 -6 -6 -6 -6 -5 -4 -3 -3
-8 -8 -9 -9 -10 -8 -8 -9 -9 -11 -10 -9 -11 -14 -14 -12 -10 -10 -10 -10 -10 -10 -11 -10 -10 -9 -9 -10 -8 -8 -8 -8 -7 -6 -5 -4 -4 -4
-9 -10 -10 -10 -9 -9 -10 -10 -11 -10 -10 -12 -14 -12 -11 -11 -11 -11 -11 -11 -11 -11 -12 -10 -10 -9 -9 -9 -9 -8 -9 -8 -6 -5 -3 -1 -3 -3
-9 -10 -12 -9 -10 -11 -11 -12 -11 -11 -13 -12 -11 -11 -11 -12 -12 -11 -11 -10 -9 -10 -9 -9 -9 -9 -9 -8 -8 -10 -8 -6 -5 -4 -2 2 1 -0
-11 -10 -9 -10 -11 -12 -12 -12 -12 -13 -12 -12 -11 -12 -12 -12 -12 -11 -10 -9 -9 -8 -9 -9 -8 -8 -9 -9 -9 -9 -8 -6 -4 -3 -0 1 2 2
-10 -9 -11 -12 -13 -12 -13 -13 -13 -12 -12 -12 -12 -12 -12 -12 -11 -10 -10 -9 -9 -9 -10 -10 -10 -9 -10 -9 -8 -7 -7 -6 -4 -3 -2 -1 -0 1
-10 -11 -14 -13 -12 -12 -12 -13 -12 -12 -12 -12 -12 -12 -12 -11 -11 -10 -10 -10 -9 -9 -10 -10 -9 -9 -9 -9 -8 -7 -6 -5 -4 -3 -2 -2 -2 -2
-11 -14 -12 -12 -12 -12 -12 -13 -12 -12 -12 -12 -12 -12 -11 -11 -11 -10 -10 -10 -10 -10 -10 -10 -9 -9 -8 -9 -8 -7 -5 -4 -3 -3 -2 -2 -2 -2
-13 -12 -12 -12 -13 -13 -13 -12 -13 -13 -12 -12 -12 -11 -11 -11 -11 -10 -10 -10 -10 -10 -10 -10 -10 -9 -9 -9 -8 -7 -5 -4 -3 -3 -3 -3 -3 -3
-13 -12 -13 -13 -13 -13 -13 -13 -13 -12 -12 -11 -11 -11 -11 -11 -11 -10 -10 -10 -10 -9 -9 -10 -9 -9 -9 -9 -8 -7 -5 -4 -3 -3 -3 -3 -3 -3
-13 -13 -13 -13 -13 -13 -13 -13 -12 -11 -11 -10 -10 -10 -10 -10 -10 -10 -10 -10 -9 -9 -9 -9 -11 -8 -8 -8 -8 -7 -6 -5 -4 -4 -4 -4 -4 -4
-14 -13 -13 -13 -13 -13 -13 -12 -12 -11 -11 -10 -10 -10 -10 -10 -10 -9 -9 -9 -9 -9 -9 -9 -11 -9 -7 -8 -8 -7 -6 -6 -5 -5 -5 -5 -5 -5
-13 -13 -13 -13 -12 -12 -12 -12 -11 -11 -10 -10 -10 -9 -9 -9 -9 -9 -9 -9 -8 -9 -9 -9 -9 -11 -9 -8 -8 -7 -7 -6 -5 -5 -6 -5 -5 -5

GFSNE_850_dewp_021.txt.gz
Dewpoint
-22 -20 -19 -20 -22 -18 -14 -12 -10 -9 -9 -10 -9 -10 -9 -10 -10 -9 -8 -9 -9 -8 -7 -7 -7 -6 -6 -6 -7 -7 -6 -5 -5 -3 -4 -5 -3 -3
-21 -19 -18 -20 -21 -17 -10 -10 -10 -9 -8 -10 -10 -10 -11 -10 -9 -9 -10 -9 -9 -8 -8 -7 -6 -6 -7 -6 -7 -6 -8 -7 -6 -6 -4 -3 -2 -1
-18 -17 -17 -19 -17 -13 -11 -10 -9 -9 -9 -10 -10 -10 -9 -10 -12 -10 -8 -8 -7 -7 -7 -6 -8 -9 -8 -9 -9 -8 -7 -6 -5 -5 -5 -3 -2 -1
-15 -14 -15 -17 -12 -10 -10 -10 -10 -10 -9 -8 -9 -8 -9 -9 -10 -8 -7 -8 -9 -10 -8 -9 -9 -10 -10 -8 -8 -7 -6 -7 -7 -6 -5 -6 -5 -1
-12 -12 -14 -13 -11 -10 -9 -9 -9 -8 -7 -7 -8 -9 -8 -8 -7 -7 -10 -10 -10 -10 -11 -11 -11 -10 -8 -7 -8 -9 -8 -7 -6 -6 -6 -4 -3 -2
-12 -12 -13 -12 -9 -9 -9 -9 -8 -8 -9 -8 -7 -7 -7 -8 -10 -11 -12 -11 -9 -10 -10 -10 -9 -8 -10 -10 -9 -8 -7 -7 -7 -7 -6 -4 -3 -3
-11 -11 -12 -10 -9 -9 -9 -9 -9 -8 -7 -7 -7 -7 -9 -10 -11 -11 -10 -9 -9 -9 -9 -9 -10 -10 -10 -10 -9 -8 -7 -7 -6 -5 -5 -5 -4 -3
-10 -11 -11 -10 -10 -10 -9 -9 -8 -7 -8 -7 -8 -8 -10 -10 -10 -9 -9 -9 -10 -10 -10 -10 -9 -10 -10 -11 -9 -7 -7 -8 -7 -5 -5 -5 -5 -4
-10 -10 -9 -10 -9 -9 -10 -8 -9 -8 -8 -9 -9 -9 -9 -10 -9 -9 -10 -10 -10 -10 -10 -10 -10 -10 -10 -11 -9 -8 -8 -7 -6 -6 -6 -5 -5 -5
-10 -9 -9 -9 -9 -9 -9 -8 -8 -9 -10 -10 -10 -10 -9 -9 -10 -10 -10 -10 -10 -10 -11 -10 -10 -10 -12 -11 -10 -9 -8 -8 -8 -7 -6 -5 -5 -5
-9 -9 -8 -9 -10 -10 -9 -8 -9 -10 -13 -11 -9 -10 -11 -11 -10 -10 -11 -10 -11 -11 -13 -11 -11 -11 -10 -11 -12 -10 -9 -7 -7 -6 -6 -6 -5 -5
-10 -10 -10 -10 -10 -9 -8 -9 -10 -13 -10 -10 -12 -14 -14 -13 -11 -11 -11 -11 -11 -11 -13 -11 -11 -10 -10 -11 -10 -10 -10 -9 -8 -7 -7 -6 -6 -4
-10 -10 -12 -11 -9 -10 -10 -11 -11 -10 -10 -13 -14 -13 -12 -12 -12 -12 -11 -11 -11 -11 -11 -10 -10 -10 -10 -10 -10 -10 -10 -9 -7 -6 -5 -5 -5 -5
-9 -11 -11 -9 -11 -11 -12 -11 -11 -11 -13 -12 -12 -11 -12 -12 -12 -11 -10 -10 -10 -10 -9 -9 -10 -10 -10 -9 -9 -11 -8 -6 -6 -5 -4 -4 -3 -4
-10 -9 -10 -11 -12 -13 -12 -11 -11 -13 -12 -12 -12 -12 -12 -12 -11 -11 -11 -10 -11 -10 -9 -9 -10 -10 -10 -10 -9 -9 -8 -6 -5 -4 -3 -2 0 1
-10 -10 -12 -13 -13 -12 -13 -13 -13 -12 -12 -12 -12 -12 -12 -12 -11 -11 -11 -10 -10 -11 -10 -10 -10 -9 -9 -10 -9 -8 -7 -6 -4 -3 -3 -1 0 1
-10 -12 -15 -13 -13 -13 -13 -13 -12 -12 -12 -12 -12 -12 -12 -11 -11 -11 -11 -10 -10 -10 -10 -10 -9 -8 -9 -10 -9 -7 -6 -4 -4 -3 -3 -2 -2 -1
-12 -13 -13 -13 -13 -13 -13 -13 -13 -12 -12 -12 -11 -11 -11 -11 -11 -11 -10 -10 -10 -10 -9 -9 -9 -9 -9 -8 -8 -7 -5 -4 -4 -3 -3 -3 -3 -2
-13 -13 -13 -13 -13 -13 -13 -13 -13 -12 -12 -11 -11 -11 -10 -10 -10 -10 -10 -10 -10 -9 -9 -10 -9 -9 -9 -9 -7 -6 -4 -4 -4 -4 -4 -4 -4 -3
-13 -13 -13 -13 -13 -13 -13 -13 -13 -12 -12 -11 -10 -10 -10 -10 -10 -10 -10 -10 -9 -9 -9 -10 -9 -8 -8 -8 -8 -6 -5 -4 -4 -4 -4 -4 -4 -3
-13 -14 -14 -13 -13 -12 -13 -13 -12 -12 -11 -10 -10 -9 -9 -9 -10 -9 -9 -9 -9 -9 -9 -11 -8 -8 -7 -7 -7 -6 -5 -4 -4 -4 -4 -4 -4 -4
-14 -14 -14 -13 -12 -12 -12 -12 -12 -11 -10 -10 -9 -9 -9 -9 -9 -9 -9 -9 -8 -9 -9 -10 -8 -7 -7 -7 -6 -6 -5 -5 -4 -4 -4 -5 -4 -4
-14 -14 -14 -12 -12 -12 -11 -11 -11 -10 -10 -9 -8 -8 -8 -8 -8 -8 -8 -8 -8 -9 -9 -10 -11 -7 -7 -7 -7 -6 -5 -5 -5 -5 -5 -5 -5 -5

GFSNE_850_dewp_024.txt.gz
Dewpoint
-23 -21 -20 -20 -19 -21 -22 -17 -9 -8 -9 -10 -9 -10 -10 -10 -10 -9 -9 -9 -8 -8 -8 -8 -7 -6 -7 -6 -6 -5 -4 -4 -3 -5 -5 -4 -4 -3
-21 -19 -18 -17 -19 -21 -17 -13 -10 -9 -8 -10 -10 -9 -9 -9 -9 -9 -8 -7 -9 -8 -8 -8 -6 -6 -5 -5 -5 -6 -6 -6 -7 -7 -7 -6 -7 -4
-18 -16 -15 -15 -17 -17 -15 -12 -10 -9 -8 -10 -10 -9 -9 -11 -10 -8 -7 -8 -8 -8 -10 -10 -9 -9 -8 -8 -7 -8 -8 -8 -7 -6 -5 -4 -4 -3
-15 -13 -13 -13 -14 -15 -13 -10 -9 -9 -8 -8 -9 -9 -10 -10 -8 -8 -8 -10 -9 -12 -11 -10 -8 -10 -10 -9 -9 -9 -7 -7 -6 -5 -5 -5 -5 -5
-13 -12 -12 -12 -12 -13 -10 -9 -9 -8 -9 -9 -9 -11 -9 -8 -7 -9 -11 -12 -13 -12 -11 -10 -10 -9 -9 -8 -8 -7 -6 -8 -9 -8 -7 -7 -6 -5
-11 -11 -11 -11 -11 -9 -9 -9 -8 -9 -9 -8 -8 -8 -8 -7 -10 -11 -12 -12 -12 -10 -9 -10 -9 -9 -9 -9 -9 -9 -9 -8 -8 -8 -7 -6 -6 -7
-11 -11 -10 -10 -9 -9 -9 -8 -9 -8 -8 -7 -8 -8 -9 -10 -10 -11 -11 -11 -9 -10 -11 -11 -10 -10 -10 -10 -10 -10 -9 -8 -8 -7 -6 -6 -5 -5
-10 -10 -10 -11 -10 -9 -9 -9 -9 -8 -9 -8 -8 -9 -10 -10 -11 -10 -9 -9 -11 -11 -11 -10 -10 -11 -11 -12 -10 -9 -8 -8 -8 -7 -6 -6 -7 -6
-10 -11 -11 -10 -10 -11 -10 -9 -9 -9 -8 -9 -10 -11 -10 -10 -9 -10 -10 -10 -10 -11 -10 -10 -11 -10 -12 -12 -11 -9 -9 -8 -8 -7 -7 -7 -6 -6
-12 -12 -10 -10 -11 -10 -9 -9 -9 -11 -12 -11 -11 -10 -9 -10 -10 -10 -10 -10 -10 -12 -11 -11 -12 -11 -12 -12 -12 -11 -9 -8 -8 -8 -7 -7 -7 -6
-12 -9 -9 -10 -10 -9 -8 -9 -10 -12 -14 -11 -10 -10 -11 -11 -11 -10 -11 -11 -11 -12 -13 -11 -12 -11 -11 -11 -12 -12 -11 -8 -8 -7 -7 -6 -6 -6
-9 -9 -10 -10 -10 -9 -10 -10 -11 -13 -10 -10 -12 -14 -14 -13 -11 -11 -12 -12 -11 -11 -13 -11 -11 -11 -10 -11 -11 -11 -11 -12 -9 -8 -8 -8 -7 -6
-9 -10 -11 -10 -9 -11 -11 -11 -11 -10 -11 -13 -14 -13 -12 -12 -11 -11 -11 -11 -12 -11 -12 -10 -10 -10 -10 -10 -10 -11 -11 -10 -8 -7 -6 -6 -6 -6
-9 -11 -10 -10 -11 -11 -11 -11 -10 -11 -13 -13 -12 -12 -12 -12 -11 -11 -11 -11 -10 -10 -10 -10 -10 -9 -10 -9 -10 -11 -10 -7 -7 -5 -6 -5 -5 -6
-11 -10 -10 -11 -13 -15 -12 -11 -11 -13 -12 -12 -12 -12 -11 -11 -11 -11 -11 -11 -10 -10 -10 -10 -10 -10 -10 -10 -10 -10 -8 -7 -5 -5 -4 -4 -3 -4
-10 -11 -13 -14 -15 -13 -13 -13 -13 -12 -12 -12 -12 -11 -11 -11 -11 -11 -11 -10 -10 -10 -10 -9 -9 -9 -9 -9 -9 -8 -6 -8 -4 -4 -4 -3 -1 0
-11 -13 -15 -15 -15 -14 -13 -13 -13 -12 -12 -12 -11 -11 -11 -11 -10 -10 -10 -10 -10 -10 -9 -10 -9 -8 -8 -8 -8 -7 -6 -4 -4 -4 -4 -4 -2 -1
-12 -14 -14 -14 -14 -13 -13 -13 -13 -12 -12 -12 -11 -11 -11 -11 -10 -10 -10 -10 -10 -9 -9 -9 -9 -9 -7 -7 -7 -7 -5 -4 -4 -4 -4 -4 -3 -1
-14 -14 -14 -14 -13 -13 -12 -12 -12 -12 -11 -11 -11 -10 -10 -10 -10 -10 -10 -9 -9 -9 -9 -9 -8 -8 -8 -8 -6 -5 -4 -4 -4 -4 -4 -4 -5 -5
-14 -14 -14 -14 -13 -12 -12 -12 -12 -11 -11 -11 -10 -9 -9 -10 -9 -9 -9 -9 -9 -9 -10 -8 -8 -8 -7 -7 -7 -5 -4 -4 -4 -4 -4 -4 -4 -4
-14 -14 -14 -13 -12 -12 -12 -11 -11 -11 -11 -10 -9 -9 -9 -9 -9 -9 -9 -8 -8 -9 -10 -9 -8 -7 -6 -6 -6 -5 -5 -4 -4 -4 -4 -4 -4 -4
-14 -14 -14 -12 -11 -11 -11 -11 -11 -10 -10 -9 -9 -8 -8 -8 -8 -8 -8 -8 -8 -9 -9 -11 -7 -6 -6 -6 -6 -5 -5 -4 -5 -4 -4 -4 -4 -5
-14 -14 -12 -11 -11 -11 -11 -10 -10 -9 -9 -8 -8 -8 -8 -8 -8 -8 -8 -7 -8 -8 -10 -12 -8 -7 -6 -6 -6 -6 -6 -5 -5 -5 -4 -4 -4 -4

GFSNE_850_dewp_027.txt.gz
Dewpoint
-22 -21 -19 -17 -16 -16 -17 -17 -12 -9 -10 -11 -10 -10 -9 -9 -9 -9 -9 -10 -8 -8 -7 -8 -7 -6 -6 -6 -6 -5 -4 -4 -4 -3 -3 -3 -3 -2
-22 -20 -17 -15 -15 -15 -15 -16 -14 -11 -8 -11 -10 -10 -9 -9 -9 -9 -10 -8 -9 -8 -8 -8 -9 -9 -8 -8 -7 -7 -6 -5 -4 -4 -4 -4 -3 -3
-21 -16 -15 -14 -13 -13 -13 -14 -12 -10 -9 -11 -11 -11 -11 -12 -11 -9 -8 -8 -8 -8 -8 -10 -10 -9 -9 -9 -7 -6 -6 -7 -6 -5 -5 -5 -5 -5
-17 -14 -13 -13 -12 -11 -12 -10 -10 -10 -9 -9 -10 -12 -12 -11 -10 -8 -8 -8 -10 -11 -11 -11 -10 -9 -8 -7 -8 -8 -7 -7 -7 -8 -8 -7 -5 -5
-14 -13 -12 -11 -11 -10 -10 -9 -9 -8 -8 -8 -9 -10 -9 -8 -8 -8 -11 -12 -12 -12 -11 -10 -10 -9 -9 -9 -8 -7 -7 -7 -7 -6 -6 -6 -6 -6
-13 -12 -11 -11 -10 -9 -9 -9 -8 -9 -9 -9 -8 -8 -8 -8 -10 -11 -12 -12 -11 -11 -10 -10 -10 -10 -10 -9 -9 -9 -9 -9 -9 -8 -8 -8 -8 -7
-12 -12 -12 -12 -11 -9 -9 -9 -10 -9 -8 -8 -8 -8 -10 -11 -12 -12 -11 -10 -10 -10 -11 -11 -11 -11 -11 -11 -11 -10 -9 -9 -8 -8 -8 -7 -7 -7
-14 -15 -14 -13 -11 -10 -10 -9 -9 -9 -8 -8 -10 -10 -12 -12 -11 -10 -9 -10 -11 -11 -11 -12 -11 -11 -13 -12 -13 -9 -9 -8 -8 -8 -7 -7 -7 -6
-14 -13 -12 -11 -11 -11 -11 -9 -8 -9 -9 -10 -11 -11 -10 -10 -10 -10 -10 -10 -10 -11 -11 -11 -12 -12 -13 -13 -12 -11 -9 -9 -8 -8 -8 -7 -7 -7
-12 -11 -9 -10 -10 -10 -9 -8 -11 -12 -13 -12 -10 -10 -10 -10 -10 -10 -10 -10 -11 -11 -11 -11 -12 -12 -12 -12 -13 -13 -11 -9 -8 -8 -7 -7 -7 -7
-11 -9 -10 -10 -10 -9 -9 -10 -10 -13 -13 -11 -10 -10 -12 -11 -11 -11 -11 -11 -11 -11 -12 -11 -12 -11 -11 -12 -12 -11 -9 -9 -8 -8 -7 -7 -7 -6
-9 -10 -9 -10 -9 -9 -10 -10 -11 -13 -10 -10 -13 -14 -13 -12 -11 -11 -11 -12 -12 -12 -12 -11 -11 -11 -11 -11 -11 -11 -10 -10 -9 -8 -8 -8 -7 -7
-10 -10 -12 -10 -9 -10 -10 -11 -11 -10 -11 -12 -13 -13 -12 -12 -11 -11 -11 -11 -12 -11 -12 -11 -11 -11 -11 -10 -10 -11 -9 -8 -7 -7 -6 -6 -6 -7
-10 -11 -11 -10 -11 -11 -12 -11 -10 -11 -13 -13 -12 -12 -12 -11 -11 -11 -11 -10 -10 -10 -10 -9 -10 -10 -10 -10 -10 -10 -8 -7 -6 -5 -5 -5 -5 -6
-10 -10 -10 -11 -14 -16 -14 -11 -12 -13 -12 -12 -12 -12 -11 -11 -11 -11 -10 -10 -10 -10 -9 -9 -9 -9 -9 -10 -9 -8 -8 -7 -5 -5 -5 -4 -4 -5
-10 -11 -13 -15 -16 -15 -13 -13 -13 -12 -12 -12 -12 -11 -10 -11 -10 -10 -10 -10 -10 -10 -10 -9 -9 -8 -8 -7 -7 -7 -6 -8 -5 -4 -5 -4 -4 -2
-11 -13 -15 -15 -16 -14 -13 -12 -12 -12 -12 -11 -11 -11 -10 -10 -10 -10 -10 -10 -10 -9 -9 -9 -8 -7 -6 -6 -6 -6 -5 -5 -4 -5 -5 -5 -3 -3
-12 -15 -15 -15 -14 -13 -12 -12 -12 -12 -11 -11 -11 -10 -10 -10 -9 -9 -9 -9 -9 -9 -9 -8 -8 -8 -7 -6 -6 -6 -5 -4 -4 -5 -5 -5 -4 -1
-15 -14 -14 -15 -13 -12 -12 -12 -12 -11 -11 -11 -10 -10 -10 -9 -9 -9 -9 -9 -9 -9 -9 -8 -8 -7 -8 -7 -5 -5 -5 -5 -4 -4 -5 -5 -5 -2
-14 -14 -14 -14 -12 -12 -12 -11 -11 -11 -10 -10 -9 -9 -9 -9 -9 -8 -8 -8 -9 -9 -9 -8 -8 -7 -7 -7 -7 -5 -5 -5 -4 -3 -4 -5 -5 -3
-14 -14 -14 -13 -12 -11 -11 -11 -10 -10 -10 -9 -9 -8 -8 -9 -9 -8 -8 -8 -8 -8 -9 -10 -7 -7 -6 -6 -6 -5 -5 -5 -5 -4 -4 -5 -5 -5
-14 -14 -14 -12 -11 -11 -11 -10 -10 -9 -9 -8 -8 -8 -8 -8 -8 -8 -8 -8 -7 -8 -10 -11 -7 -6 -6 -6 -6 -6 -5 -5 -5 -5 -5 -5 -5 -5
-14 -14 -13 -11 -11 -10 -10 -10 -9 -8 -8 -8 -8 -8 -8 -8 -8 -8 -8 -7 -7 -8 -9 -12 -9 -7 -7 -6 -7 -6 -5 -5 -5 -5 -5 -5 -5 -5

GFSNE_850_dewp_030.txt.gz
Dewpoint
-22 -22 -22 -19 -17 -15 -14 -13 -12 -11 -12 -12 -12 -13 -13 -11 -11 -9 -10 -10 -8 -8 -8 -8 -8 -7 -7 -7 -7 -8 -7 -5 -5 -5 -4 -3 -3 -2
-23 -22 -21 -18 -16 -14 -13 -12 -11 -11 -9 -12 -12 -11 -10 -11 -11 -10 -10 -9 -9 -8 -8 -8 -7 -7 -8 -9 -9 -8 -8 -6 -5 -5 -5 -4 -3 -2
-22 -21 -20 -17 -15 -14 -12 -10 -11 -10 -9 -13 -11 -11 -11 -10 -11 -10 -9 -8 -9 -11 -12 -8 -9 -9 -10 -8 -7 -7 -7 -6 -6 -6 -5 -5 -5 -3
-22 -19 -18 -16 -14 -12 -11 -11 -10 -10 -8 -9 -10 -11 -11 -13 -11 -8 -9 -10 -11 -11 -11 -10 -10 -10 -9 -9 -8 -8 -7 -7 -7 -7 -6 -7 -6 -5
-19 -17 -16 -14 -13 -13 -11 -10 -9 -9 -8 -9 -9 -10 -11 -9 -9 -11 -11 -12 -13 -12 -11 -10 -10 -9 -9 -8 -8 -8 -8 -7 -7 -7 -7 -6 -6 -5
-20 -19 -17 -15 -15 -10 -9 -9 -8 -10 -11 -9 -9 -9 -8 -11 -11 -12 -12 -12 -11 -10 -10 -10 -9 -10 -10 -10 -9 -9 -9 -9 -8 -8 -8 -8 -7 -7
-19 -17 -14 -14 -12 -9 -9 -9 -9 -10 -8 -8 -9 -9 -10 -11 -12 -12 -10 -10 -10 -10 -11 -11 -11 -12 -12 -13 -13 -12 -10 -9 -8 -8 -8 -7 -7 -7
-16 -14 -13 -11 -11 -10 -10 -9 -9 -8 -9 -9 -10 -10 -11 -11 -11 -10 -10 -10 -10 -11 -10 -11 -11 -11 -12 -13 -12 -10 -9 -9 -8 -8 -8 -7 -7 -7
-13 -12 -11 -11 -12 -12 -11 -9 -8 -9 -10 -10 -11 -11 -10 -10 -10 -10 -10 -10 -10 -11 -11 -12 -12 -12 -13 -13 -12 -10 -9 -9 -8 -8 -8 -8 -7 -7
-12 -11 -10 -11 -11 -10 -9 -8 -10 -12 -13 -13 -10 -10 -10 -10 -10 -10 -11 -11 -11 -12 -11 -11 -12 -12 -12 -12 -13 -12 -10 -9 -8 -8 -8 -8 -8 -7
-11 -10 -10 -10 -10 -9 -9 -9 -11 -13 -14 -10 -10 -10 -12 -12 -11 -11 -11 -11 -11 -12 -12 -11 -12 -11 -12 -12 -12 -11 -9 -9 -8 -8 -8 -7 -7 -7
-9 -10 -11 -10 -10 -9 -10 -10 -11 -13 -10 -10 -12 -13 -13 -12 -11 -11 -11 -12 -12 -12 -12 -11 -11 -11 -11 -12 -11 -11 -10 -8 -7 -8 -8 -7 -7 -7
-10 -11 -11 -10 -9 -10 -10 -11 -12 -10 -11 -12 -13 -13 -12 -11 -11 -11 -10 -11 -12 -11 -11 -11 -11 -11 -11 -11 -11 -10 -8 -7 -6 -6 -5 -5 -6 -6
-10 -10 -11 -10 -10 -11 -12 -11 -10 -11 -12 -12 -12 -12 -11 -11 -10 -10 -10 -10 -10 -10 -9 -9 -10 -10 -10 -10 -10 -8 -7 -6 -6 -5 -5 -5 -5 -5
-10 -10 -10 -11 -15 -16 -15 -12 -12 -12 -12 -12 -12 -11 -11 -10 -10 -10 -10 -9 -10 -9 -9 -9 -9 -9 -9 -9 -9 -7 -7 -7 -6 -5 -5 -5 -5 -5
-10 -11 -14 -15 -16 -16 -13 -13 -12 -12 -12 -11 -11 -11 -10 -10 -10 -9 -9 -9 -9 -10 -9 -8 -8 -8 -7 -6 -6 -6 -6 -7 -5 -5 -5 -5 -4 -4
-11 -14 -15 -15 -16 -14 -13 -12 -12 -12 -11 -11 -11 -10 -10 -10 -9 -9 -9 -9 -9 -9 -9 -9 -8 -7 -6 -5 -6 -6 -6 -6 -5 -5 -5 -5 -4 -4
-13 -15 -15 -15 -15 -12 -12 -12 -12 -11 -11 -10 -10 -10 -9 -9 -9 -9 -9 -8 -8 -9 -8 -8 -8 -8 -8 -7 -6 -6 -6 -6 -5 -5 -5 -5 -3 -2
-15 -15 -14 -15 -13 -12 -12 -11 -11 -11 -10 -10 -10 -9 -9 -9 -9 -9 -8 -8 -8 -9 -8 -9 -8 -7 -8 -8 -7 -5 -6 -6 -5 -5 -5 -5 -4 -1
-15 -14 -14 -15 -12 -11 -11 -11 -11 -10 -9 -10 -9 -9 -9 -9 -9 -8 -8 -8 -8 -9 -8 -11 -8 -7 -7 -7 -7 -5 -5 -6 -6 -6 -5 -5 -4 -2
-15 -14 -15 -14 -11 -11 -11 -10 -10 -9 -9 -9 -9 -9 -9 -9 -9 -8 -8 -8 -8 -8 -8 -11 -8 -7 -6 -7 -6 -6 -5 -5 -6 -6 -6 -5 -5 -2
-15 -14 -15 -12 -11 -11 -10 -10 -9 -9 -9 -9 -9 -9 -8 -8 -8 -8 -8 -8 -8 -8 -8 -11 -10 -8 -7 -7 -7 -5 -5 -5 -5 -6 -6 -6 -6 -6
-14 -15 -13 -11 -10 -10 -10 -9 -9 -8 -8 -8 -8 -8 -8 -8 -8 -8 -7 -7 -8 -8 -9 -10 -9 -8 -7 -6 -6 -6 -5 -5 -5 -5 -5 -5 -5 -5

GFSNE_850_dewp_033.txt.gz
Dewpoint
-21 -22 -22 -21 -19 -18 -16 -14 -11 -11 -12 -12 -12 -11 -10 -9 -9 -9 -9 -9 -8 -8 -8 -8 -8 -7 -7 -6 -5 -5 -5 -5 -6 -6 -5 -5 -4 -3
-21 -21 -21 -20 -19 -18 -16 -14 -12 -10 -9 -12 -11 -10 -9 -9 -9 -9 -9 -8 -8 -8 -8 -8 -8 -8 -7 -7 -7 -7 -7 -6 -6 -6 -5 -5 -4 -4
-21 -21 -21 -19 -19 -18 -16 -15 -13 -11 -9 -14 -10 -10 -9 -9 -9 -8 -8 -8 -9 -9 -9 -9 -9 -8 -8 -8 -7 -7 -7 -7 -7 -6 -5 -5 -4 -4
-22 -22 -22 -20 -20 -20 -18 -16 -14 -11 -9 -9 -9 -9 -10 -9 -8 -8 -9 -10 -10 -11 -10 -9 -9 -9 -9 -8 -8 -8 -7 -7 -7 -6 -6 -6 -5 -5
-22 -21 -20 -20 -18 -17 -15 -12 -10 -9 -9 -9 -9 -11 -9 -8 -9 -10 -12 -12 -11 -11 -10 -10 -9 -8 -8 -8 -8 -8 -8 -8 -7 -8 -7 -7 -6 -6
-23 -20 -19 -16 -15 -13 -9 -9 -8 -9 -9 -9 -9 -9 -9 -11 -11 -11 -11 -11 -10 -10 -11 -9 -9 -9 -9 -9 -9 -8 -8 -8 -8 -8 -8 -7 -7 -7
-23 -20 -17 -15 -13 -9 -9 -9 -9 -9 -10 -8 -9 -9 -10 -11 -11 -11 -10 -10 -10 -10 -11 -10 -10 -11 -11 -10 -10 -9 -9 -9 -8 -8 -8 -7 -7 -7
-19 -18 -16 -13 -11 -9 -9 -9 -9 -9 -8 -9 -9 -10 -11 -11 -11 -10 -10 -10 -10 -10 -10 -11 -10 -11 -11 -12 -11 -10 -9 -9 -8 -8 -8 -7 -7 -7
-19 -15 -12 -11 -11 -11 -11 -9 -9 -8 -9 -10 -11 -11 -10 -10 -9 -10 -10 -10 -10 -10 -10 -10 -11 -11 -12 -12 -12 -10 -9 -9 -8 -8 -8 -7 -7 -7
-15 -13 -11 -11 -10 -9 -9 -9 -9 -10 -10 -11 -10 -10 -10 -10 -10 -10 -10 -10 -11 -11 -10 -11 -11 -11 -12 -12 -12 -12 -10 -9 -8 -8 -7 -7 -7 -7
-12 -11 -10 -9 -9 -9 -9 -9 -10 -10 -13 -11 -10 -10 -11 -12 -11 -11 -10 -11 -12 -11 -12 -11 -10 -11 -11 -12 -12 -11 -9 -8 -7 -7 -8 -7 -7 -7
-9 -9 -10 -9 -9 -9 -9 -10 -10 -12 -10 -10 -11 -13 -12 -12 -11 -10 -10 -11 -12 -12 -11 -11 -11 -11 -11 -12 -10 -9 -7 -6 -6 -7 -7 -7 -6 -7
-9 -10 -10 -10 -9 -10 -10 -10 -11 -10 -10 -12 -12 -12 -12 -11 -11 -10 -10 -10 -11 -11 -10 -11 -11 -10 -11 -10 -10 -9 -7 -6 -6 -6 -6 -5 -5 -5
-10 -10 -10 -10 -10 -11 -12 -13 -10 -11 -12 -12 -12 -11 -11 -11 -10 -10 -10 -9 -9 -9 -9 -9 -10 -10 -9 -10 -9 -8 -6 -6 -6 -6 -6 -6 -5 -5
-10 -10 -10 -11 -15 -16 -16 -12 -12 -12 -12 -11 -11 -11 -11 -10 -10 -10 -10 -9 -10 -9 -8 -8 -9 -8 -8 -9 -9 -7 -6 -7 -6 -6 -6 -5 -5 -5
-10 -10 -14 -16 -16 -17 -13 -13 -12 -12 -11 -11 -11 -10 -10 -10 -10 -9 -9 -9 -9 -10 -9 -8 -8 -8 -8 -6 -6 -6 -6 -7 -6 -6 -5 -5 -5 -4
-10 -13 -16 -16 -16 -15 -13 -12 -12 -11 -11 -10 -10 -10 -10 -9 -10 -9 -9 -9 -9 -9 -9 -9 -9 -8 -8 -8 -7 -6 -6 -6 -6 -6 -6 -5 -4 -3
-12 -15 -16 -15 -15 -13 -12 -11 -11 -11 -10 -10 -10 -10 -10 -10 -10 -9 -9 -9 -9 -9 -9 -9 -9 -8 -8 -9 -8 -6 -6 -6 -6 -6 -5 -5 -4 -4
-16 -15 -15 -15 -15 -12 -11 -11 -11 -10 -10 -9 -10 -10 -10 -10 -10 -9 -9 -9 -9 -9 -9 -9 -10 -8 -8 -7 -8 -6 -6 -6 -6 -6 -5 -5 -4 -3
-15 -15 -15 -15 -13 -11 -11 -11 -10 -9 -9 -9 -9 -9 -9 -10 -9 -9 -9 -9 -9 -9 -9 -9 -10 -8 -7 -7 -7 -6 -5 -6 -6 -6 -6 -5 -4 -3
-15 -15 -15 -14 -11 -11 -10 -10 -9 -9 -9 -9 -9 -9 -9 -9 -9 -9 -8 -8 -8 -8 -8 -9 -9 -8 -7 -7 -7 -6 -6 -5 -6 -6 -6 -6 -5 -4
-15 -15 -14 -11 -11 -10 -10 -9 -9 -8 -8 -9 -9 -8 -8 -8 -8 -8 -8 -8 -8 -8 -8 -9 -8 -8 -7 -7 -7 -6 -6 -6 -5 -6 -6 -5 -5 -6
-15 -14 -11 -11 -10 -10 -9 -9 -8 -8 -8 -8 -8 -8 -8 -8 -8 -8 -8 -8 -8 -8 -8 -8 -8 -8 -8 -8 -8 -7 -6 -6 -6 -5 -5 -5 -5 -5

GFSNE_850_dewp_036.txt.gz
Dewpoint
-18 -19 -20 -19 -17 -15 -12 -11 -11 -12 -13 -13 -14 -13 -12 -11 -10 -10 -10 -9 -8 -8 -7 -7 -7 -7 -7 -7 -6 -5 -6 -5 -5 -5 -4 -4 -3 -3
-18 -19 -19 -18 -18 -14 -11 -11 -10 -11 -11 -13 -13 -12 -11 -10 -10 -10 -10 -9 -9 -8 -8 -8 -8 -8 -7 -7 -7 -7 -6 -6 -5 -5 -5 -5 -5 -5
-18 -19 -21 -20 -17 -13 -11 -11 -11 -11 -11 -12 -11 -10 -10 -10 -10 -9 -9 -9 -10 -10 -9 -9 -8 -8 -7 -7 -7 -6 -6 -6 -5 -5 -5 -5 -5 -4
-19 -20 -20 -16 -19 -14 -12 -11 -11 -10 -10 -10 -10 -9 -9 -10 -8 -8 -10 -11 -12 -11 -10 -9 -8 -8 -7 -7 -7 -7 -6 -7 -6 -6 -6 -5 -5 -5
-20 -22 -21 -19 -15 -11 -11 -10 -9 -9 -9 -8 -9 -10 -9 -8 -9 -10 -11 -11 -11 -11 -10 -9 -9 -8 -7 -7 -7 -7 -7 -7 -7 -7 -7 -7 -6 -6
-21 -21 -18 -14 -11 -10 -9 -9 -9 -9 -9 -9 -9 -9 -7 -9 -10 -11 -11 -11 -10 -10 -10 -9 -9 -9 -8 -8 -8 -8 -8 -8 -7 -7 -7 -7 -7 -7
-19 -16 -12 -12 -15 -11 -8 -9 -9 -9 -9 -9 -8 -7 -9 -10 -12 -11 -10 -10 -10 -9 -10 -10 -10 -10 -10 -9 -9 -8 -8 -8 -8 -7 -7 -7 -7 -7
-12 -12 -11 -10 -10 -9 -9 -9 -9 -8 -8 -8 -8 -9 -11 -12 -11 -10 -10 -9 -9 -10 -10 -10 -9 -10 -10 -10 -9 -8 -8 -8 -8 -7 -7 -7 -7 -7
-12 -11 -11 -10 -9 -9 -9 -9 -8 -8 -8 -9 -9 -11 -11 -10 -10 -9 -9 -10 -9 -10 -9 -10 -10 -10 -10 -11 -9 -8 -8 -8 -8 -7 -7 -7 -7 -7
-10 -10 -10 -9 -10 -9 -9 -9 -9 -9 -10 -10 -11 -10 -10 -10 -9 -10 -10 -10 -10 -10 -9 -10 -10 -10 -10 -11 -11 -11 -9 -7 -7 -7 -7 -7 -7 -7
-10 -10 -9 -10 -9 -9 -9 -9 -10 -11 -11 -11 -10 -9 -9 -9 -10 -10 -10 -10 -10 -10 -11 -10 -9 -10 -10 -11 -11 -10 -9 -8 -6 -6 -7 -7 -7 -7
-10 -10 -10 -9 -9 -9 -9 -10 -10 -11 -11 -10 -10 -11 -11 -10 -10 -10 -10 -10 -10 -11 -10 -10 -10 -10 -9 -10 -10 -10 -8 -8 -7 -6 -6 -6 -6 -6
-10 -11 -10 -10 -9 -9 -10 -10 -11 -10 -10 -10 -11 -11 -10 -10 -10 -10 -10 -10 -11 -10 -10 -10 -10 -10 -10 -9 -9 -9 -8 -7 -7 -7 -6 -6 -6 -6
-10 -10 -10 -9 -10 -10 -11 -12 -11 -10 -11 -11 -11 -11 -10 -10 -10 -10 -10 -10 -10 -9 -9 -9 -10 -10 -10 -10 -9 -8 -7 -7 -7 -6 -6 -6 -6 -6
-9 -10 -9 -10 -11 -16 -14 -13 -12 -11 -11 -11 -11 -11 -10 -10 -10 -10 -10 -10 -10 -10 -9 -9 -8 -9 -9 -9 -9 -8 -7 -7 -7 -6 -6 -6 -5 -5
-10 -10 -10 -12 -13 -13 -13 -12 -11 -11 -12 -12 -12 -10 -10 -10 -10 -10 -10 -10 -9 -10 -10 -9 -9 -8 -8 -8 -8 -7 -7 -6 -6 -6 -6 -6 -4 -4
-10 -11 -12 -13 -12 -12 -12 -11 -11 -11 -12 -11 -11 -10 -10 -10 -10 -10 -10 -9 -9 -9 -9 -10 -9 -8 -8 -7 -7 -8 -7 -6 -6 -6 -6 -6 -5 -4
-11 -12 -13 -12 -12 -12 -12 -12 -11 -10 -10 -10 -10 -10 -10 -10 -10 -10 -9 -9 -9 -9 -9 -9 -8 -8 -8 -9 -7 -7 -6 -6 -6 -6 -6 -6 -6 -4
-13 -12 -12 -12 -13 -12 -12 -11 -10 -10 -9 -9 -10 -10 -10 -10 -9 -9 -9 -9 -9 -9 -9 -8 -8 -8 -8 -7 -9 -9 -6 -6 -6 -6 -6 -6 -5 -4
-13 -13 -13 -13 -12 -11 -11 -10 -10 -9 -9 -9 -9 -9 -9 -9 -9 -9 -9 -9 -9 -9 -9 -9 -8 -8 -8 -8 -7 -8 -7 -6 -6 -6 -6 -7 -5 -4
-13 -13 -13 -12 -11 -10 -10 -10 -9 -9 -9 -9 -9 -9 -9 -9 -9 -8 -8 -8 -9 -8 -8 -8 -8 -8 -8 -8 -7 -7 -8 -7 -6 -6 -6 -6 -5 -6
-14 -13 -11 -11 -10 -10 -9 -9 -9 -8 -8 -8 -8 -8 -8 -8 -8 -8 -8 -8 -8 -8 -8 -8 -8 -8 -8 -7 -7 -8 -6 -7 -7 -5 -5 -5 -5 -5
-11 -11 -11 -10 -9 -9 -9 -9 -8 -8 -8 -8 -8 -8 -8 -8 -8 -8 -8 -8 -8 -8 -8 -8 -8 -8 -8 -7 -7 -7 -7 -6 -7 -6 -6 -5 -4 -5

GFSNE_850_dewp_039.txt.gz
Dewpoint
-15 -16 -16 -16 -15 -15 -14 -12 -10 -10 -10 -12 -13 -13 -13 -12 -11 -10 -10 -10 -9 -8 -7 -7 -7 -7 -7 -6 -5 -5 -5 -5 -5 -5 -4 -4 -4 -3
-15 -15 -16 -16 -16 -16 -14 -11 -11 -10 -10 -11 -12 -12 -11 -10 -10 -9 -10 -9 -8 -9 -8 -8 -8 -8 -7 -7 -6 -6 -5 -5 -5 -4 -4 -4 -4 -3
-15 -15 -16 -17 -16 -14 -14 -13 -12 -11 -11 -11 -10 -10 -9 -9 -9 -9 -9 -10 -9 -10 -9 -9 -8 -8 -7 -7 -6 -6 -6 -5 -5 -5 -5 -5 -4 -4
-14 -15 -16 -15 -14 -14 -13 -12 -11 -11 -10 -9 -9 -9 -9 -9 -9 -8 -9 -9 -11 -11 -10 -9 -8 -8 -7 -7 -6 -6 -6 -6 -6 -5 -5 -5 -5 -4
-14 -15 -15 -14 -13 -12 -11 -10 -10 -9 -9 -9 -9 -9 -9 -8 -8 -8 -10 -10 -11 -11 -10 -9 -8 -8 -7 -7 -7 -7 -6 -7 -6 -6 -6 -6 -6 -5
-13 -13 -13 -13 -12 -11 -10 -10 -9 -9 -9 -8 -10 -10 -8 -7 -8 -10 -11 -11 -10 -11 -10 -11 -9 -8 -8 -8 -7 -7 -7 -7 -6 -6 -6 -6 -6 -6
-15 -14 -12 -12 -12 -9 -8 -8 -8 -9 -9 -10 -8 -7 -7 -9 -10 -11 -10 -9 -11 -9 -9 -13 -9 -11 -11 -10 -9 -8 -7 -7 -7 -6 -6 -6 -6 -6
-14 -15 -13 -11 -11 -10 -9 -8 -9 -8 -8 -8 -8 -8 -8 -10 -10 -10 -11 -9 -8 -10 -9 -12 -10 -11 -11 -11 -9 -8 -7 -7 -7 -6 -6 -6 -6 -6
-15 -12 -11 -10 -10 -9 -9 -9 -9 -9 -8 -9 -8 -9 -10 -10 -11 -10 -9 -9 -9 -10 -10 -11 -11 -11 -11 -11 -10 -8 -8 -9 -7 -6 -6 -6 -6 -6
-11 -11 -10 -10 -10 -9 -9 -9 -10 -10 -9 -10 -10 -10 -10 -10 -8 -8 -9 -10 -11 -10 -9 -9 -10 -11 -10 -10 -12 -11 -10 -7 -6 -6 -6 -6 -6 -6
-11 -11 -10 -10 -10 -9 -9 -10 -9 -10 -11 -11 -10 -10 -8 -9 -9 -10 -10 -10 -10 -10 -10 -10 -10 -10 -11 -11 -11 -10 -10 -9 -8 -7 -6 -6 -6 -6
-11 -10 -10 -10 -9 -9 -9 -9 -10 -11 -11 -11 -11 -11 -10 -11 -9 -10 -10 -10 -10 -10 -10 -10 -10 -10 -10 -10 -10 -11 -10 -9 -8 -8 -7 -6 -6 -6
-10 -10 -10 -10 -9 -9 -9 -10 -10 -10 -10 -10 -11 -11 -11 -11 -10 -10 -10 -10 -11 -11 -10 -10 -11 -11 -11 -10 -10 -10 -9 -9 -8 -7 -7 -7 -6 -6
-10 -10 -10 -9 -9 -9 -10 -11 -10 -10 -11 -11 -11 -11 -11 -11 -10 -10 -10 -10 -10 -10 -10 -9 -10 -10 -10 -10 -10 -10 -9 -9 -7 -7 -6 -6 -6 -6
-10 -10 -9 -10 -10 -11 -12 -11 -10 -11 -11 -11 -11 -11 -11 -10 -10 -10 -10 -10 -10 -10 -10 -10 -9 -9 -10 -10 -9 -9 -8 -8 -7 -6 -6 -6 -6 -6
-11 -10 -10 -11 -12 -12 -12 -12 -12 -11 -11 -11 -11 -10 -10 -10 -10 -10 -10 -10 -10 -10 -10 -10 -9 -9 -9 -9 -8 -8 -7 -7 -6 -6 -6 -7 -7 -6
-10 -12 -13 -13 -13 -12 -12 -12 -11 -11 -11 -10 -10 -10 -10 -10 -10 -10 -10 -10 -10 -9 -10 -10 -9 -9 -8 -8 -8 -8 -7 -7 -6 -6 -6 -6 -7 -6
-11 -12 -13 -12 -12 -12 -12 -11 -11 -10 -10 -10 -9 -10 -10 -10 -10 -10 -9 -9 -10 -9 -9 -9 -9 -9 -9 -8 -8 -7 -8 -7 -7 -6 -6 -6 -6 -7
-12 -12 -12 -12 -12 -12 -11 -11 -10 -10 -9 -9 -9 -9 -9 -9 -9 -9 -9 -9 -9 -9 -9 -9 -8 -8 -8 -8 -10 -8 -7 -8 -7 -6 -6 -6 -6 -6
-13 -13 -13 -12 -12 -11 -10 -10 -10 -9 -9 -9 -9 -9 -9 -9 -9 -9 -8 -9 -9 -9 -9 -9 -9 -8 -8 -7 -8 -9 -9 -7 -6 -6 -6 -6 -6 -6
-13 -13 -12 -11 -10 -10 -10 -10 -9 -9 -9 -9 -9 -8 -8 -9 -8 -8 -8 -8 -9 -9 -9 -9 -8 -8 -8 -8 -8 -7 -9 -7 -6 -6 -6 -6 -5 -5
-12 -11 -11 -10 -10 -10 -9 -9 -9 -9 -8 -9 -8 -8 -8 -8 -8 -8 -8 -8 -8 -8 -8 -8 -8 -8 -8 -8 -7 -7 -7 -7 -7 -6 -6 -5 -5 -5
-11 -11 -10 -10 -9 -9 -9 -9 -9 -8 -8 -8 -8 -8 -8 -8 -8 -8 -8 -8 -8 -8 -8 -8 -8 -8 -8 -7 -7 -7 -7 -7 -7 -7 -6 -5 -5 -4

GFSNE_850_dewp_045.txt.gz
Dewpoint
-8 -11 -13 -14 -14 -14 -14 -15 -14 -12 -13 -16 -17 -19 -19 -18 -17 -13 -10 -11 -10 -7 -7 -7 -6 -6 -6 -6 -6 -5 -5 -4 -4 -4 -3 -3 -3 -3
-10 -13 -14 -14 -14 -14 -15 -16 -15 -13 -11 -15 -17 -16 -15 -16 -14 -12 -12 -13 -12 -10 -7 -7 -7 -7 -6 -7 -6 -6 -5 -5 -4 -4 -4 -4 -3 -3
-13 -14 -13 -13 -14 -15 -16 -17 -16 -15 -13 -14 -14 -14 -13 -13 -13 -13 -12 -11 -12 -12 -8 -8 -7 -7 -7 -7 -7 -6 -5 -5 -5 -5 -4 -4 -4 -4
-13 -13 -13 -14 -14 -15 -16 -16 -15 -14 -13 -12 -11 -12 -11 -11 -11 -10 -11 -12 -12 -13 -9 -8 -8 -8 -7 -7 -6 -6 -6 -6 -5 -5 -5 -5 -5 -4
-14 -14 -14 -15 -17 -16 -15 -14 -14 -11 -10 -10 -9 -9 -9 -10 -10 -10 -11 -11 -12 -12 -10 -11 -9 -10 -7 -7 -7 -7 -7 -7 -7 -6 -6 -5 -5 -5
-14 -15 -18 -19 -17 -14 -13 -11 -9 -9 -9 -8 -8 -9 -10 -10 -9 -9 -11 -11 -11 -12 -12 -12 -10 -11 -10 -11 -12 -12 -11 -8 -7 -6 -6 -6 -6 -5
-17 -21 -23 -20 -16 -14 -10 -9 -9 -9 -9 -8 -8 -9 -9 -9 -10 -10 -10 -11 -12 -11 -10 -10 -10 -12 -13 -13 -13 -12 -11 -7 -7 -6 -6 -6 -6 -6
-23 -24 -23 -20 -17 -13 -10 -9 -8 -8 -8 -8 -8 -8 -9 -10 -10 -10 -10 -10 -9 -10 -9 -9 -12 -12 -13 -12 -12 -11 -10 -8 -7 -7 -7 -6 -6 -5
-24 -25 -25 -19 -13 -11 -11 -9 -9 -8 -8 -8 -9 -10 -10 -10 -10 -10 -9 -9 -9 -10 -11 -10 -12 -12 -12 -12 -12 -12 -12 -9 -8 -7 -6 -6 -6 -5
-27 -27 -21 -16 -15 -12 -9 -8 -8 -9 -10 -11 -10 -9 -9 -9 -9 -9 -9 -9 -11 -11 -11 -10 -11 -11 -11 -12 -12 -12 -12 -11 -8 -7 -7 -7 -6 -6
-26 -20 -16 -15 -12 -9 -9 -9 -10 -10 -10 -11 -10 -9 -9 -9 -10 -10 -11 -10 -11 -11 -11 -10 -11 -11 -11 -12 -12 -12 -11 -11 -11 -11 -9 -8 -7 -6
-20 -18 -15 -11 -9 -9 -8 -8 -9 -9 -10 -10 -11 -12 -12 -12 -11 -10 -10 -10 -11 -11 -11 -10 -11 -11 -11 -11 -11 -11 -12 -11 -11 -11 -10 -10 -8 -7
-13 -15 -13 -12 -9 -9 -9 -9 -10 -10 -10 -11 -12 -12 -12 -11 -11 -10 -10 -10 -10 -11 -11 -10 -11 -11 -11 -11 -11 -11 -11 -11 -11 -11 -10 -10 -9 -8
-14 -13 -11 -9 -9 -10 -10 -11 -10 -10 -12 -12 -11 -11 -11 -10 -10 -10 -10 -10 -10 -10 -9 -9 -10 -10 -11 -11 -11 -11 -11 -11 -11 -10 -10 -10 -10 -9
-12 -10 -10 -10 -14 -17 -16 -14 -13 -12 -11 -11 -11 -10 -10 -10 -10 -10 -10 -10 -10 -10 -10 -9 -9 -9 -10 -11 -10 -10 -10 -11 -11 -10 -10 -10 -9 -9
-11 -10 -11 -15 -16 -16 -14 -12 -11 -11 -11 -10 -10 -10 -10 -10 -10 -10 -10 -9 -9 -11 -10 -10 -10 -9 -10 -10 -9 -9 -10 -10 -10 -10 -9 -9 -9 -8
-10 -13 -17 -17 -15 -12 -11 -11 -11 -11 -10 -10 -9 -9 -9 -9 -10 -9 -9 -9 -10 -9 -10 -11 -10 -9 -9 -10 -10 -10 -10 -10 -10 -9 -8 -8 -8 -8
-13 -16 -16 -12 -11 -11 -11 -11 -10 -10 -10 -9 -9 -9 -9 -9 -9 -9 -9 -9 -9 -9 -9 -10 -9 -9 -10 -10 -10 -9 -9 -9 -9 -8 -8 -8 -8 -9
-16 -14 -11 -11 -11 -10 -10 -10 -10 -10 -9 -9 -9 -9 -9 -9 -9 -9 -9 -9 -9 -9 -10 -9 -8 -9 -9 -9 -10 -8 -8 -8 -8 -8 -7 -7 -7 -8
-13 -11 -11 -10 -10 -10 -10 -9 -9 -9 -9 -9 -8 -8 -9 -9 -9 -9 -9 -8 -9 -9 -9 -9 -9 -9 -9 -9 -8 -9 -8 -8 -7 -7 -7 -7 -7 -7
-12 -11 -11 -10 -10 -10 -9 -9 -9 -9 -8 -8 -8 -8 -9 -9 -9 -9 -8 -8 -8 -8 -9 -9 -9 -8 -8 -8 -8 -8 -8 -8 -7 -7 -7 -7 -6 -7
-11 -11 -10 -10 -9 -9 -9 -9 -9 -9 -8 -8 -8 -8 -8 -8 -8 -8 -8 -8 -8 -9 -9 -9 -8 -8 -8 -7 -8 -7 -7 -8 -8 -8 -8 -6 -6 -6
-11 -10 -10 -9 -9 -9 -9 -9 -9 -8 -8 -8 -8 -8 -9 -8 -8 -9 -8 -8 -8 -9 -8 -8 -8 -8 -8 -7 -7 -7 -7 -7 -7 -7 -8 -7 -6 -5

GFSNE_850_dewp_048.txt.gz
Dewpoint
-4 -3 -7 -11 -13 -14 -14 -14 -14 -13 -14 -16 -18 -18 -19 -19 -20 -19 -18 -18 -18 -12 -9 -7 -6 -6 -6 -6 -6 -5 -4 -5 -4 -4 -3 -3 -3 -3
-7 -6 -11 -13 -14 -14 -14 -14 -15 -14 -12 -15 -17 -18 -18 -18 -17 -17 -16 -15 -15 -14 -12 -7 -7 -7 -7 -6 -6 -6 -5 -5 -5 -4 -4 -4 -3 -3
-8 -10 -13 -13 -14 -14 -14 -15 -16 -16 -14 -15 -15 -15 -14 -15 -17 -16 -15 -15 -15 -17 -14 -8 -7 -7 -7 -7 -7 -6 -6 -5 -5 -5 -4 -4 -4 -3
-10 -13 -13 -13 -14 -14 -15 -17 -17 -16 -15 -13 -12 -11 -11 -12 -12 -13 -14 -16 -16 -19 -13 -8 -8 -8 -7 -7 -6 -6 -6 -6 -6 -5 -5 -5 -5 -5
-12 -13 -13 -14 -15 -17 -18 -17 -16 -15 -12 -10 -9 -9 -9 -11 -11 -12 -12 -14 -15 -15 -13 -12 -12 -9 -8 -7 -7 -7 -7 -7 -7 -7 -6 -6 -5 -5
-3 -6 -12 -18 -20 -20 -17 -16 -13 -10 -10 -10 -9 -8 -9 -10 -11 -10 -11 -13 -13 -13 -12 -11 -11 -11 -12 -10 -11 -13 -13 -13 -8 -7 -6 -6 -6 -6
-8 -16 -20 -22 -21 -17 -13 -11 -9 -10 -9 -8 -8 -8 -9 -9 -10 -11 -11 -11 -11 -12 -11 -9 -12 -12 -13 -12 -12 -12 -13 -11 -8 -7 -7 -6 -6 -6
-18 -22 -23 -23 -21 -19 -15 -11 -9 -8 -8 -8 -8 -8 -9 -10 -11 -11 -10 -9 -9 -11 -10 -10 -12 -12 -12 -12 -12 -12 -10 -8 -8 -7 -7 -7 -6 -6
-23 -24 -26 -25 -22 -19 -18 -15 -10 -9 -8 -8 -8 -10 -10 -11 -10 -9 -9 -9 -10 -12 -11 -11 -11 -12 -12 -12 -12 -12 -12 -10 -8 -8 -7 -7 -7 -6
-24 -25 -23 -21 -21 -18 -10 -9 -9 -9 -9 -10 -10 -10 -9 -9 -9 -9 -9 -10 -11 -11 -11 -10 -11 -11 -12 -12 -12 -12 -12 -12 -11 -8 -8 -7 -7 -7
-24 -20 -20 -21 -18 -9 -9 -8 -8 -9 -10 -11 -10 -10 -10 -10 -11 -11 -11 -10 -10 -10 -11 -11 -11 -11 -11 -12 -12 -12 -12 -11 -11 -11 -11 -8 -8 -7
-21 -22 -20 -17 -10 -9 -8 -8 -9 -11 -11 -10 -12 -12 -12 -12 -11 -10 -10 -10 -10 -11 -11 -10 -11 -11 -10 -11 -11 -11 -11 -11 -11 -11 -11 -10 -9 -8
-20 -19 -18 -14 -9 -9 -9 -10 -11 -9 -10 -11 -12 -12 -12 -11 -11 -10 -10 -10 -10 -10 -10 -10 -11 -11 -11 -11 -11 -11 -11 -11 -11 -11 -11 -11 -10 -8
-17 -14 -11 -9 -10 -11 -13 -16 -10 -11 -12 -12 -11 -11 -10 -10 -11 -10 -10 -10 -10 -10 -10 -9 -10 -9 -10 -11 -11 -11 -11 -11 -11 -11 -11 -11 -11 -10
-11 -10 -10 -12 -16 -18 -17 -14 -12 -12 -11 -11 -10 -10 -10 -10 -10 -10 -10 -10 -10 -10 -10 -10 -9 -9 -10 -10 -10 -10 -10 -11 -11 -11 -11 -10 -10 -10
-11 -11 -12 -16 -17 -14 -12 -12 -11 -11 -10 -10 -10 -10 -10 -9 -10 -9 -9 -9 -9 -11 -11 -10 -9 -9 -9 -9 -9 -9 -11 -10 -11 -11 -10 -10 -9 -9
-11 -15 -17 -16 -12 -12 -11 -11 -11 -10 -10 -10 -10 -9 -9 -9 -9 -10 -9 -9 -9 -9 -10 -10 -10 -9 -9 -9 -10 -10 -10 -10 -11 -10 -9 -8 -8 -8
-15 -17 -14 -12 -11 -11 -11 -11 -10 -10 -10 -9 -9 -9 -9 -9 -9 -9 -9 -9 -9 -9 -9 -10 -10 -9 -10 -10 -10 -10 -10 -10 -10 -8 -8 -8 -8 -9
-16 -13 -11 -11 -11 -10 -10 -10 -10 -10 -9 -9 -8 -9 -9 -9 -9 -9 -9 -9 -9 -9 -10 -9 -9 -9 -10 -10 -10 -9 -9 -8 -8 -8 -8 -7 -7 -8
-13 -12 -11 -11 -10 -10 -10 -9 -9 -9 -9 -8 -8 -8 -8 -9 -9 -9 -9 -9 -9 -9 -9 -9 -8 -8 -9 -9 -9 -9 -8 -8 -8 -8 -7 -7 -7 -8
-12 -11 -11 -10 -10 -10 -9 -9 -9 -9 -8 -8 -8 -8 -8 -9 -9 -8 -9 -9 -8 -8 -9 -9 -9 -8 -8 -8 -8 -8 -8 -8 -7 -7 -7 -7 -7 -7
-11 -11 -11 -10 -10 -9 -9 -9 -9 -9 -8 -8 -8 -8 -8 -8 -8 -8 -8 -8 -9 -9 -9 -9 -8 -8 -8 -8 -8 -8 -7 -7 -7 -7 -6 -6 -6 -7
-11 -10 -10 -10 -9 -9 -9 -9 -9 -9 -8 -8 -8 -8 -8 -8 -8 -8 -9 -8 -8 -9 -8 -8 -8 -8 -8 -7 -7 -7 -7 -7 -7 -7 -8 -6 -6 -5

GFSNE_850_dewp_051.txt.gz
Dewpoint
-4 0 0 -4 -8 -12 -13 -13 -14 -14 -14 -15 -16 -17 -18 -18 -19 -20 -20 -20 -19 -20 -21 -21 -10 -7 -6 -6 -5 -5 -5 -5 -4 -4 -4 -3 -3 -3
0 -2 -1 -5 -11 -13 -13 -14 -14 -14 -13 -15 -16 -18 -18 -18 -18 -19 -19 -18 -18 -18 -18 -12 -8 -7 -7 -6 -6 -6 -5 -6 -5 -4 -4 -3 -3 -3
0 -5 -11 -11 -13 -13 -13 -14 -14 -14 -15 -15 -15 -16 -16 -17 -19 -19 -18 -17 -18 -19 -21 -14 -8 -7 -7 -7 -7 -6 -6 -5 -5 -5 -4 -4 -4 -4
-2 -4 -4 -11 -11 -10 -10 -14 -16 -17 -15 -15 -14 -14 -13 -14 -13 -13 -14 -15 -18 -21 -21 -12 -8 -8 -7 -7 -6 -6 -6 -6 -6 -5 -5 -5 -5 -5
-0 -1 -8 -4 -1 -9 -15 -18 -18 -16 -15 -13 -11 -12 -11 -10 -11 -11 -13 -15 -18 -18 -14 -13 -13 -12 -8 -7 -7 -7 -7 -7 -7 -7 -6 -6 -6 -5
-6 -2 1 -2 -11 -19 -20 -19 -17 -15 -13 -12 -11 -9 -8 -10 -10 -11 -12 -13 -14 -13 -13 -12 -12 -12 -12 -13 -11 -12 -12 -12 -8 -7 -7 -7 -6 -6
-1 -6 -15 -19 -21 -22 -20 -16 -12 -10 -11 -10 -8 -8 -9 -10 -10 -11 -12 -12 -11 -12 -12 -12 -12 -12 -13 -13 -12 -12 -12 -12 -8 -7 -7 -7 -6 -6
-11 -18 -20 -22 -23 -23 -23 -19 -15 -10 -8 -8 -8 -8 -9 -10 -11 -11 -10 -9 -9 -11 -12 -12 -12 -12 -12 -12 -12 -12 -13 -9 -8 -8 -7 -7 -7 -7
-19 -21 -22 -24 -26 -23 -22 -19 -14 -11 -8 -8 -9 -9 -10 -11 -10 -9 -9 -9 -10 -12 -11 -11 -11 -12 -12 -12 -12 -13 -13 -12 -9 -8 -7 -7 -7 -7
-21 -23 -23 -21 -21 -21 -16 -10 -9 -10 -9 -10 -10 -10 -10 -9 -9 -9 -9 -11 -11 -11 -11 -11 -11 -11 -12 -12 -13 -12 -12 -12 -11 -9 -8 -7 -7 -7
-19 -17 -17 -19 -20 -15 -9 -8 -8 -10 -11 -12 -12 -11 -11 -11 -11 -11 -11 -10 -10 -10 -10 -11 -11 -11 -11 -12 -12 -12 -11 -11 -11 -10 -10 -9 -8 -8
-19 -18 -19 -18 -17 -9 -8 -9 -9 -12 -12 -12 -12 -12 -12 -12 -11 -11 -10 -10 -10 -10 -10 -10 -10 -11 -10 -11 -11 -11 -11 -11 -11 -11 -11 -11 -10 -9
-21 -21 -19 -15 -9 -9 -9 -10 -12 -10 -10 -11 -12 -12 -12 -11 -11 -11 -10 -10 -10 -10 -11 -10 -11 -11 -11 -10 -10 -11 -11 -11 -11 -11 -11 -11 -11 -10
-18 -16 -13 -10 -10 -12 -16 -17 -10 -10 -12 -11 -11 -11 -11 -11 -10 -10 -10 -9 -9 -9 -10 -9 -10 -10 -10 -11 -11 -11 -11 -11 -11 -11 -11 -11 -11 -11
-13 -10 -12 -13 -16 -18 -16 -12 -12 -11 -11 -11 -11 -11 -10 -10 -9 -10 -10 -10 -10 -10 -10 -10 -9 -9 -10 -10 -10 -10 -10 -11 -11 -10 -10 -11 -10 -10
-12 -12 -14 -17 -17 -13 -11 -11 -11 -11 -10 -10 -10 -10 -9 -9 -9 -9 -10 -10 -10 -11 -11 -10 -10 -9 -9 -9 -9 -10 -10 -10 -10 -10 -10 -10 -9 -9
-12 -17 -18 -15 -12 -11 -11 -11 -10 -10 -10 -10 -9 -9 -9 -9 -9 -9 -9 -9 -9 -10 -10 -11 -10 -9 -9 -9 -10 -10 -10 -10 -10 -10 -9 -8 -9 -8
-17 -17 -14 -12 -11 -11 -10 -10 -10 -10 -10 -9 -9 -8 -8 -9 -9 -9 -9 -9 -9 -9 -10 -10 -9 -9 -10 -10 -10 -10 -10 -10 -10 -9 -8 -9 -8 -8
-17 -14 -12 -11 -11 -10 -10 -10 -10 -9 -9 -9 -9 -8 -8 -8 -8 -8 -9 -9 -9 -9 -9 -9 -9 -9 -10 -10 -10 -9 -9 -9 -8 -9 -8 -8 -8 -8
-14 -12 -11 -11 -10 -10 -10 -10 -9 -9 -9 -9 -9 -8 -9 -9 -8 -8 -8 -9 -9 -9 -9 -9 -8 -9 -9 -9 -9 -9 -8 -8 -8 -8 -8 -7 -7 -7
-12 -11 -11 -11 -10 -10 -9 -9 -9 -9 -9 -8 -8 -8 -9 -9 -8 -8 -8 -9 -9 -9 -9 -9 -8 -8 -8 -8 -8 -8 -8 -7 -7 -7 -7 -7 -7 -7
-11 -11 -10 -10 -10 -9 -9 -9 -9 -9 -9 -8 -8 -8 -8 -8 -8 -8 -8 -8 -8 -9 -9 -8 -9 -8 -8 -8 -8 -8 -7 -7 -7 -6 -6 -6 -6 -7
-11 -10 -10 -10 -9 -9 -9 -9 -9 -9 -8 -8 -8 -8 -8 -8 -8 -8 -8 -8 -8 -8 -8 -8 -9 -8 -8 -8 -8 -7 -7 -6 -6 -6 -6 -5 -6 -6

GFSNE_850_dewp_054.txt.gz
Dewpoint
3 -0 -3 -6 -2 2 -5 -10 -12 -13 -13 -13 -14 -15 -15 -17 -18 -19 -18 -20 -21 -20 -20 -21 -16 -9 -7 -6 -6 -5 -5 -5 -5 -4 -4 -4 -3 -3
-1 -3 -1 -1 -3 -2 -4 -11 -13 -13 -13 -11 -13 -16 -17 -18 -18 -18 -19 -18 -18 -18 -20 -20 -11 -7 -7 -6 -6 -6 -5 -6 -5 -5 -4 -4 -3 -3
-2 -2 -1 -1 -2 -8 -6 -7 -4 -1 -4 -11 -16 -17 -17 -18 -19 -19 -18 -17 -19 -20 -21 -21 -10 -7 -7 -7 -6 -6 -6 -5 -5 -5 -4 -4 -4 -3
-3 -1 -1 -4 -2 -2 -0 0 -1 -10 -16 -16 -16 -15 -15 -17 -19 -16 -14 -14 -16 -20 -21 -17 -11 -10 -8 -7 -7 -6 -6 -6 -6 -5 -5 -5 -5 -4
-0 -1 -1 -0 0 0 -1 -5 -15 -16 -16 -15 -14 -13 -13 -15 -12 -13 -12 -15 -18 -18 -15 -13 -13 -13 -13 -9 -7 -7 -7 -7 -7 -6 -6 -6 -6 -5
-1 0 0 -0 -1 -6 -16 -19 -17 -16 -14 -13 -11 -11 -10 -10 -11 -11 -12 -14 -14 -13 -14 -13 -13 -13 -14 -13 -13 -13 -13 -13 -10 -7 -7 -7 -6 -6
0 -0 -0 -2 -8 -19 -20 -20 -18 -16 -14 -12 -10 -8 -10 -10 -10 -11 -12 -11 -11 -12 -14 -13 -13 -13 -14 -13 -13 -13 -13 -13 -11 -8 -7 -6 -6 -6
-0 -3 -16 -20 -21 -22 -21 -21 -21 -18 -11 -9 -9 -8 -9 -9 -10 -12 -10 -10 -9 -12 -12 -12 -12 -13 -12 -12 -12 -13 -13 -13 -11 -8 -7 -7 -7 -7
-16 -19 -20 -21 -23 -23 -22 -22 -20 -18 -10 -9 -8 -9 -9 -12 -10 -10 -9 -10 -11 -11 -11 -12 -12 -12 -12 -12 -13 -13 -13 -13 -11 -8 -7 -7 -7 -7
-19 -20 -20 -21 -21 -22 -22 -16 -12 -11 -10 -9 -10 -11 -11 -9 -9 -9 -10 -11 -11 -11 -11 -11 -12 -12 -12 -12 -12 -13 -13 -12 -12 -9 -8 -7 -7 -7
-18 -17 -19 -23 -23 -20 -10 -8 -8 -9 -11 -12 -13 -12 -12 -12 -12 -11 -11 -10 -10 -10 -11 -11 -11 -11 -11 -12 -12 -12 -12 -12 -11 -11 -11 -10 -8 -8
-22 -21 -20 -18 -13 -8 -8 -9 -10 -14 -14 -15 -13 -13 -12 -12 -11 -10 -10 -10 -9 -10 -11 -10 -10 -10 -11 -11 -11 -11 -12 -12 -12 -12 -11 -11 -10 -9
-19 -19 -17 -15 -9 -9 -9 -11 -14 -10 -11 -12 -12 -12 -11 -11 -11 -11 -10 -9 -9 -9 -10 -10 -11 -10 -11 -10 -10 -11 -11 -12 -11 -11 -11 -11 -11 -10
-18 -15 -15 -11 -14 -16 -18 -18 -11 -11 -11 -11 -11 -11 -11 -10 -10 -10 -10 -10 -10 -10 -10 -10 -10 -10 -10 -11 -10 -11 -11 -11 -11 -11 -10 -10 -10 -10
-14 -14 -15 -18 -19 -18 -14 -12 -11 -11 -11 -11 -10 -10 -10 -9 -10 -10 -10 -10 -10 -10 -10 -10 -9 -9 -9 -9 -9 -10 -10 -10 -10 -10 -10 -10 -10 -10
-17 -15 -18 -18 -15 -12 -11 -11 -11 -11 -10 -10 -10 -10 -9 -9 -9 -9 -9 -9 -9 -10 -10 -10 -10 -9 -9 -9 -9 -9 -9 -10 -10 -10 -10 -9 -9 -9
-17 -18 -18 -14 -12 -11 -11 -11 -10 -10 -10 -10 -10 -9 -9 -9 -9 -9 -9 -9 -9 -9 -10 -10 -9 -9 -9 -9 -9 -9 -10 -10 -10 -10 -9 -8 -9 -9
-19 -18 -14 -12 -11 -11 -11 -10 -10 -10 -9 -9 -9 -9 -9 -9 -9 -9 -8 -8 -9 -9 -9 -9 -9 -9 -10 -10 -10 -10 -10 -10 -9 -8 -8 -8 -8 -8
-18 -14 -12 -12 -11 -10 -10 -10 -10 -9 -9 -9 -9 -9 -9 -9 -9 -9 -9 -9 -9 -9 -9 -9 -9 -9 -10 -10 -10 -9 -9 -9 -8 -8 -8 -8 -8 -8
-14 -12 -12 -11 -11 -10 -10 -9 -9 -9 -9 -9 -9 -8 -9 -9 -8 -8 -8 -8 -8 -9 -9 -9 -9 -9 -9 -9 -9 -9 -8 -8 -8 -8 -7 -7 -7 -7
-12 -11 -11 -10 -10 -10 -9 -9 -9 -9 -9 -9 -8 -8 -9 -9 -8 -8 -9 -8 -8 -8 -8 -9 -9 -9 -8 -8 -9 -8 -8 -7 -7 -7 -6 -7 -7 -7
-11 -11 -10 -10 -10 -9 -9 -9 -9 -9 -9 -8 -8 -8 -9 -8 -8 -8 -8 -8 -9 -8 -8 -9 -9 -9 -9 -8 -8 -8 -7 -7 -6 -6 -5 -6 -6 -6
-11 -10 -10 -9 -9 -9 -9 -9 -9 -9 -9 -9 -8 -8 -8 -9 -8 -8 -8 -8 -8 -8 -8 -9 -9 -9 -9 -8 -8 -7 -7 -6 -6 -7 -8 -6 -6 -7

GFSNE_850_dewp_057.txt.gz
Dewpoint
9 8 7 2 -1 -2 1 -5 -3 2 -1 -12 -12 -12 -12 -12 -14 -16 -18 -20 -22 -25 -26 -23 -22 -14 -7 -6 -6 -5 -5 -5 -4 -4 -4 -3 -3 -2
8 7 2 -2 -1 -2 -3 -1 -2 -6 -7 -8 -7 0 0 -5 -16 -17 -19 -20 -23 -21 -20 -19 -13 -7 -7 -6 -6 -6 -5 -5 -5 -5 -4 -3 -3 -3
5 1 -3 -4 -4 -2 -2 -2 -3 -3 -1 0 -0 -4 -14 -17 -18 -19 -21 -21 -19 -20 -20 -20 -18 -10 -7 -7 -6 -6 -5 -5 -5 -5 -4 -4 -4 -3
-1 -5 -5 -2 -1 -1 -2 -0 -0 -1 -1 -4 -14 -18 -18 -18 -19 -22 -20 -18 -17 -19 -21 -20 -16 -14 -14 -11 -7 -6 -6 -6 -5 -5 -5 -5 -5 -4
-5 -3 -3 -2 -1 -0 -0 -1 -1 -1 -5 -14 -17 -17 -16 -18 -19 -17 -15 -16 -18 -20 -16 -14 -14 -14 -14 -14 -9 -7 -7 -7 -7 -7 -6 -6 -6 -5
-3 -1 0 0 0 -0 -1 -1 -5 -13 -19 -15 -15 -12 -13 -13 -13 -12 -11 -14 -16 -15 -14 -14 -14 -14 -14 -14 -13 -13 -13 -13 -13 -10 -7 -7 -6 -6
1 -0 -0 -1 -1 -1 -14 -20 -19 -20 -18 -14 -12 -11 -10 -10 -8 -10 -12 -12 -12 -14 -14 -13 -13 -13 -13 -13 -13 -13 -13 -13 -13 -11 -7 -7 -7 -7
-0 -1 -2 -9 -18 -19 -20 -21 -22 -20 -14 -9 -9 -9 -8 -9 -11 -11 -9 -9 -9 -12 -12 -10 -12 -12 -13 -12 -12 -13 -14 -14 -13 -8 -7 -7 -7 -7
-2 -5 -17 -20 -21 -20 -21 -22 -23 -20 -11 -8 -8 -9 -9 -12 -12 -10 -9 -9 -10 -12 -11 -10 -12 -12 -12 -12 -13 -13 -13 -13 -13 -10 -7 -7 -7 -7
-18 -18 -19 -20 -21 -23 -22 -20 -17 -12 -11 -10 -10 -12 -13 -10 -9 -9 -11 -11 -11 -12 -11 -10 -12 -11 -11 -11 -12 -13 -13 -12 -12 -10 -8 -7 -7 -7
-18 -21 -24 -25 -23 -19 -12 -12 -11 -12 -12 -15 -15 -13 -12 -12 -12 -11 -11 -10 -10 -11 -10 -10 -10 -10 -11 -12 -12 -12 -12 -12 -11 -11 -11 -11 -8 -8
-23 -24 -22 -20 -18 -9 -8 -9 -12 -16 -16 -14 -12 -12 -12 -12 -11 -11 -10 -9 -9 -10 -10 -10 -10 -10 -10 -11 -11 -11 -12 -12 -11 -11 -11 -11 -10 -9
-21 -19 -18 -17 -9 -11 -12 -16 -17 -11 -12 -12 -12 -12 -11 -11 -11 -10 -10 -9 -9 -9 -10 -10 -10 -10 -10 -10 -11 -11 -11 -11 -11 -10 -10 -10 -10 -10
-19 -18 -18 -17 -19 -19 -19 -16 -10 -11 -12 -11 -11 -11 -11 -11 -10 -10 -9 -9 -9 -9 -9 -9 -9 -9 -9 -10 -10 -10 -10 -10 -9 -9 -10 -10 -10 -10
-18 -19 -19 -20 -19 -15 -12 -11 -11 -11 -11 -11 -11 -11 -10 -10 -10 -10 -9 -9 -9 -9 -9 -9 -9 -9 -9 -9 -9 -10 -9 -9 -10 -10 -10 -10 -10 -9
-19 -19 -19 -17 -13 -12 -11 -11 -11 -10 -10 -10 -10 -10 -10 -9 -10 -9 -9 -9 -9 -10 -10 -9 -9 -9 -9 -9 -9 -9 -10 -9 -10 -10 -10 -9 -9 -9
-19 -19 -17 -13 -12 -11 -11 -11 -10 -10 -10 -10 -10 -10 -10 -9 -9 -9 -9 -9 -9 -9 -10 -10 -9 -9 -9 -10 -10 -10 -10 -10 -10 -9 -8 -8 -9 -9
-19 -18 -13 -12 -12 -11 -11 -10 -10 -10 -10 -9 -9 -9 -9 -9 -9 -9 -8 -8 -9 -9 -9 -10 -9 -9 -10 -10 -10 -10 -9 -9 -9 -8 -8 -9 -8 -7
-18 -13 -12 -12 -11 -11 -10 -10 -10 -10 -9 -9 -9 -9 -8 -9 -9 -9 -8 -8 -9 -9 -9 -9 -9 -9 -9 -9 -9 -9 -9 -8 -8 -8 -7 -7 -7 -7
-13 -12 -11 -11 -11 -10 -10 -9 -10 -9 -9 -9 -9 -9 -8 -9 -9 -9 -9 -8 -9 -9 -9 -9 -9 -8 -9 -9 -9 -10 -8 -8 -7 -7 -7 -7 -7 -7
-12 -11 -11 -10 -10 -10 -9 -9 -9 -9 -9 -9 -9 -8 -8 -9 -9 -9 -9 -8 -8 -9 -9 -9 -9 -9 -9 -8 -9 -9 -9 -7 -6 -6 -6 -6 -7 -6
-11 -11 -10 -10 -9 -9 -9 -9 -9 -9 -9 -9 -9 -9 -9 -9 -9 -9 -9 -8 -9 -9 -9 -9 -9 -9 -9 -9 -9 -9 -8 -8 -7 -6 -5 -6 -6 -6
-11 -11 -10 -9 -9 -9 -9 -8 -8 -9 -9 -9 -9 -9 -9 -8 -8 -8 -8 -8 -8 -8 -8 -9 -8 -9 -9 -9 -9 -9 -8 -8 -8 -8 -9 -7 -6 -6

GFSNE_850_dewp_060.txt.gz
Dewpoint
10 10 10 9 8 8 6 -3 -4 -4 -3 -4 -7 -5 -2 -4 -12 -11 -2 0 -2 -14 -22 -27 -28 -26 -26 -24 -17 -11 -6 -5 -4 -4 -3 -3 -3 -2
9 8 9 5 5 2 -2 -3 -3 -2 -2 -3 -3 -3 -3 -4 -1 -0 -1 -11 -18 -21 -26 -23 -22 -23 -24 -22 -10 -6 -5 -5 -4 -4 -3 -3 -3 -2
9 7 7 6 0 -3 -4 -3 -2 -1 -1 -1 -0 -1 -1 -0 -2 -8 -15 -18 -20 -23 -23 -21 -22 -22 -19 -8 -6 -6 -5 -5 -5 -4 -4 -4 -3 -3
7 6 3 1 -2 -2 -1 -0 0 1 1 -0 -0 -1 -2 -6 -9 -16 -18 -21 -22 -22 -21 -22 -18 -16 -15 -14 -12 -8 -6 -6 -6 -5 -5 -5 -5 -4
4 -0 -3 -3 -1 -1 0 0 0 -0 -1 -1 -3 -10 -16 -18 -20 -16 -13 -17 -15 -20 -18 -15 -15 -15 -15 -14 -14 -10 -11 -11 -7 -7 -6 -6 -6 -5
-2 -2 -1 -0 -0 0 -0 -1 -1 -2 -7 -14 -16 -15 -11 -9 -8 -10 -9 -9 -10 -14 -13 -14 -14 -14 -14 -14 -14 -14 -14 -13 -13 -13 -8 -7 -6 -6
-0 -0 -0 0 -0 -1 -1 -4 -10 -17 -20 -17 -9 -7 -7 -8 -8 -8 -8 -9 -9 -12 -11 -9 -9 -11 -12 -13 -14 -14 -13 -13 -13 -13 -7 -6 -6 -6
0 0 -0 -1 -2 -5 -11 -18 -23 -22 -12 -7 -7 -8 -8 -8 -8 -9 -9 -8 -8 -10 -8 -8 -10 -9 -12 -12 -13 -13 -13 -13 -13 -12 -8 -7 -6 -6
-1 -1 -3 -10 -18 -21 -22 -22 -21 -20 -16 -9 -8 -8 -8 -8 -9 -13 -8 -8 -8 -8 -8 -8 -9 -9 -10 -11 -13 -13 -13 -13 -13 -13 -9 -7 -7 -7
-12 -18 -19 -20 -21 -23 -24 -21 -17 -12 -12 -12 -10 -8 -9 -9 -8 -8 -8 -8 -8 -8 -8 -9 -9 -9 -10 -11 -12 -13 -13 -12 -12 -12 -11 -8 -8 -7
-19 -22 -24 -24 -22 -19 -11 -13 -9 -10 -14 -17 -18 -18 -15 -13 -12 -11 -10 -8 -8 -9 -9 -9 -9 -8 -10 -11 -11 -11 -12 -12 -11 -11 -11 -10 -9 -8
-24 -23 -22 -21 -19 -11 -9 -8 -12 -12 -14 -16 -12 -12 -12 -12 -11 -11 -10 -10 -9 -9 -8 -9 -9 -9 -9 -10 -10 -11 -11 -11 -11 -10 -10 -10 -9 -8
-21 -20 -20 -19 -15 -17 -19 -12 -17 -12 -9 -11 -12 -12 -11 -11 -11 -10 -10 -9 -9 -9 -9 -9 -10 -9 -10 -9 -10 -10 -10 -10 -10 -10 -10 -9 -10 -10
-17 -18 -19 -22 -22 -21 -20 -18 -11 -11 -11 -11 -11 -11 -11 -11 -10 -10 -9 -9 -9 -9 -9 -9 -9 -9 -9 -9 -9 -10 -10 -10 -10 -10 -10 -10 -10 -10
-21 -21 -21 -21 -20 -17 -13 -12 -12 -11 -11 -11 -11 -11 -11 -10 -10 -10 -10 -9 -9 -9 -10 -9 -9 -9 -9 -9 -9 -10 -10 -10 -10 -10 -10 -9 -9 -8
-19 -19 -20 -18 -14 -12 -12 -11 -11 -11 -10 -10 -10 -10 -10 -10 -10 -9 -9 -9 -9 -10 -10 -10 -10 -9 -9 -9 -9 -10 -10 -10 -10 -10 -8 -8 -8 -8
-20 -19 -18 -14 -12 -12 -11 -11 -10 -10 -10 -10 -10 -10 -9 -9 -9 -9 -9 -9 -9 -9 -10 -10 -10 -9 -9 -9 -9 -9 -9 -10 -9 -8 -8 -8 -7 -7
-20 -18 -14 -12 -12 -11 -11 -10 -10 -10 -10 -10 -10 -9 -9 -9 -9 -9 -9 -9 -9 -9 -9 -10 -10 -9 -9 -8 -9 -9 -10 -9 -8 -8 -8 -8 -7 -7
-18 -14 -12 -12 -11 -11 -11 -10 -10 -10 -10 -9 -9 -9 -9 -9 -9 -9 -9 -9 -9 -9 -9 -9 -9 -9 -9 -9 -9 -8 -8 -8 -8 -8 -7 -7 -7 -8
-15 -12 -12 -11 -11 -10 -10 -10 -9 -9 -9 -9 -9 -9 -9 -9 -9 -9 -9 -9 -9 -9 -8 -8 -8 -8 -8 -8 -9 -9 -9 -8 -8 -7 -7 -7 -7 -7
-13 -12 -11 -11 -10 -10 -9 -9 -9 -9 -9 -9 -9 -9 -9 -9 -9 -9 -9 -9 -9 -8 -8 -8 -9 -8 -8 -9 -8 -8 -8 -8 -8 -7 -7 -6 -7 -7
-12 -11 -11 -10 -10 -9 -9 -9 -9 -8 -8 -8 -9 -9 -9 -9 -9 -9 -8 -8 -9 -8 -8 -8 -8 -8 -8 -8 -8 -8 -8 -9 -9 -8 -7 -6 -6 -7
-13 -12 -11 -10 -9 -9 -9 -9 -9 -8 -8 -8 -8 -9 -9 -9 -9 -9 -8 -8 -8 -8 -8 -8 -8 -8 -8 -8 -8 -8 -8 -8 -9 -9 -9 -7 -7 -7

GFSNE_850_dewp_063.txt.gz
Dewpoint
9 9 9 9 9 9 8 6 6 4 3 3 -4 -6 -5 -5 -3 -2 -4 -0 -3 -3 0 -2 -19 -26 -29 -30 -29 -27 -19 -10 -4 -4 -3 -3 -3 -2
8 8 9 8 8 8 7 7 6 3 -2 -2 -1 -1 -1 -1 -1 0 0 -0 -0 -1 -5 -14 -27 -27 -27 -25 -24 -20 -7 -5 -4 -3 -3 -3 -2 -2
8 8 8 8 7 5 5 5 4 -2 -1 1 2 1 0 0 0 -0 -1 -1 -5 -15 -23 -28 -27 -25 -24 -21 -15 -11 -8 -5 -5 -4 -4 -3 -3 -3
7 7 7 6 5 5 3 2 1 1 1 1 1 0 -0 -1 -1 -4 -10 -13 -19 -26 -23 -23 -25 -21 -17 -16 -15 -15 -11 -7 -6 -5 -5 -4 -4 -4
5 5 5 4 2 0 1 1 1 1 1 -0 -1 -1 -3 -6 -10 -18 -19 -17 -17 -16 -17 -20 -16 -15 -15 -15 -14 -13 -11 -9 -7 -7 -6 -6 -6 -5
2 1 0 -1 -1 -0 -0 0 0 -0 -1 -2 -6 -12 -18 -16 -15 -14 -11 -8 -10 -13 -12 -14 -10 -12 -12 -13 -13 -13 -13 -13 -13 -12 -9 -8 -7 -6
-2 -2 -1 -0 0 0 -0 -1 -1 -4 -8 -16 -19 -13 -10 -8 -8 -8 -8 -9 -14 -14 -13 -10 -9 -11 -12 -12 -12 -12 -10 -9 -8 -7 -7 -7 -6 -6
-1 -0 -1 -1 -1 -1 -2 -6 -17 -20 -17 -14 -10 -10 -9 -8 -8 -8 -9 -12 -10 -12 -9 -12 -11 -11 -12 -12 -12 -11 -10 -10 -8 -7 -7 -7 -7 -6
-1 -1 -1 -2 -9 -17 -21 -21 -21 -21 -20 -18 -15 -11 -8 -8 -8 -10 -11 -8 -8 -10 -8 -11 -11 -11 -12 -12 -12 -12 -12 -12 -13 -13 -12 -11 -7 -7
-7 -16 -18 -19 -21 -24 -24 -20 -19 -17 -13 -13 -13 -11 -10 -9 -9 -9 -8 -8 -10 -10 -8 -8 -10 -10 -11 -11 -11 -12 -12 -12 -11 -11 -11 -10 -7 -7
-20 -23 -24 -25 -25 -23 -21 -15 -10 -8 -9 -11 -19 -20 -19 -16 -13 -12 -12 -11 -10 -11 -10 -9 -10 -10 -11 -11 -11 -11 -11 -10 -10 -10 -10 -9 -8 -7
-22 -22 -23 -21 -20 -17 -16 -9 -9 -11 -12 -14 -11 -10 -12 -12 -12 -11 -11 -10 -9 -9 -8 -9 -9 -9 -9 -10 -10 -10 -11 -10 -10 -10 -10 -9 -8 -8
-19 -19 -19 -21 -22 -22 -22 -19 -11 -14 -9 -9 -11 -11 -11 -10 -10 -10 -10 -9 -9 -9 -10 -8 -9 -9 -9 -9 -10 -10 -10 -10 -10 -10 -10 -10 -10 -10
-16 -16 -14 -20 -22 -22 -20 -19 -15 -12 -12 -11 -11 -11 -11 -11 -11 -10 -10 -9 -9 -9 -9 -9 -9 -9 -9 -9 -9 -10 -10 -10 -10 -11 -10 -10 -10 -9
-20 -21 -21 -21 -20 -18 -15 -12 -12 -12 -11 -11 -11 -10 -10 -10 -10 -10 -10 -10 -10 -9 -9 -9 -9 -9 -9 -9 -9 -10 -10 -10 -11 -10 -10 -9 -8 -8
-18 -21 -21 -20 -16 -13 -12 -12 -11 -11 -11 -11 -11 -10 -10 -10 -10 -10 -9 -9 -9 -10 -10 -10 -9 -9 -9 -9 -10 -9 -9 -9 -9 -10 -9 -8 -8 -8
-22 -20 -19 -15 -12 -12 -11 -11 -11 -11 -11 -11 -10 -10 -10 -10 -10 -9 -9 -9 -9 -9 -10 -9 -9 -9 -9 -9 -9 -10 -9 -8 -8 -8 -8 -8 -8 -7
-21 -18 -14 -12 -12 -11 -11 -11 -10 -10 -10 -10 -10 -10 -10 -10 -9 -9 -9 -9 -9 -9 -9 -8 -9 -9 -9 -9 -9 -9 -8 -8 -9 -9 -8 -8 -8 -8
-19 -16 -13 -12 -12 -11 -11 -11 -10 -10 -9 -9 -9 -9 -9 -9 -9 -9 -9 -9 -9 -9 -9 -9 -8 -8 -8 -8 -9 -8 -9 -10 -9 -9 -8 -8 -8 -8
-19 -15 -12 -12 -11 -11 -10 -10 -9 -9 -9 -9 -9 -9 -9 -9 -9 -9 -9 -9 -9 -9 -9 -9 -9 -8 -8 -8 -9 -10 -10 -8 -8 -8 -8 -8 -8 -8
-18 -14 -12 -12 -11 -10 -10 -9 -9 -9 -9 -8 -8 -8 -9 -9 -9 -9 -9 -9 -9 -9 -9 -8 -9 -9 -8 -8 -8 -8 -9 -8 -8 -8 -8 -8 -8 -8
-18 -15 -12 -11 -11 -10 -10 -9 -9 -9 -8 -8 -8 -8 -8 -8 -9 -9 -9 -9 -8 -9 -9 -9 -9 -8 -8 -8 -8 -8 -8 -9 -9 -10 -9 -8 -8 -8
-19 -18 -14 -12 -11 -10 -10 -9 -9 -9 -8 -8 -8 -8 -8 -8 -9 -9 -9 -9 -9 -9 -9 -9 -9 -8 -8 -8 -8 -7 -7 -8 -9 -9 -10 -9 -8 -8

GFSNE_850_dewp_069.txt.gz
Dewpoint
8 8 8 8 8 9 8 8 8 6 6 5 2 0 -0 2 3 3 3 2 2 0 -1 -3 -2 -0 -0 -1 -2 -9 -17 -17 -12 -6 -3 -3 -2 -2
7 7 6 7 8 8 8 8 7 6 5 5 4 3 4 4 2 3 1 1 -0 -2 -2 -0 -0 -1 -3 -11 -17 -20 -17 -8 -4 -3 -3 -2 -2 -2
6 6 6 7 6 7 6 6 5 4 4 4 4 4 2 3 1 2 -0 -0 -0 -1 -1 -1 -5 -9 -16 -22 -24 -15 -8 -5 -5 -4 -4 -3 -3 -3
5 5 6 6 5 5 6 4 3 3 3 2 2 1 2 1 1 0 -1 -1 -1 -3 -7 -12 -18 -16 -16 -17 -15 -11 -9 -8 -5 -4 -4 -4 -4 -4
4 5 5 4 4 3 4 2 1 1 1 1 1 1 0 -0 -1 -1 -2 -5 -10 -15 -17 -15 -18 -21 -18 -16 -10 -8 -7 -8 -7 -7 -6 -6 -6 -5
4 3 3 2 0 1 1 0 0 -0 -0 -0 -0 -0 -1 -2 -4 -10 -14 -15 -13 -14 -15 -18 -21 -16 -14 -13 -13 -13 -13 -13 -13 -12 -8 -7 -6 -6
1 1 0 -0 -0 -0 0 -0 -1 -1 -1 -4 -5 -4 -10 -15 -13 -11 -12 -12 -12 -17 -20 -15 -14 -14 -13 -12 -12 -12 -12 -12 -11 -7 -6 -6 -5 -5
-0 -0 -0 -1 -1 -1 -1 -1 -1 -3 -5 -17 -17 -14 -11 -11 -10 -10 -11 -11 -17 -17 -13 -14 -13 -13 -12 -12 -12 -12 -11 -12 -12 -11 -7 -6 -6 -6
-1 -1 -1 -1 -2 -4 -7 -15 -18 -20 -20 -19 -15 -13 -13 -12 -11 -11 -13 -16 -16 -13 -12 -13 -12 -12 -12 -11 -11 -11 -11 -11 -11 -11 -9 -6 -6 -6
-10 -16 -18 -21 -22 -23 -24 -22 -19 -17 -16 -15 -13 -13 -13 -13 -13 -14 -17 -14 -13 -12 -12 -12 -11 -12 -12 -12 -12 -11 -11 -10 -10 -10 -10 -10 -8 -7
-23 -23 -24 -23 -22 -21 -21 -19 -17 -14 -11 -10 -12 -15 -17 -18 -18 -17 -14 -12 -12 -12 -11 -11 -11 -11 -12 -11 -11 -11 -11 -10 -11 -10 -10 -10 -10 -8
-22 -20 -20 -21 -21 -21 -22 -20 -17 -15 -15 -15 -16 -14 -12 -12 -12 -11 -11 -11 -11 -11 -10 -10 -10 -9 -10 -11 -11 -12 -11 -11 -12 -12 -11 -10 -11 -10
-22 -21 -21 -22 -23 -24 -24 -23 -20 -17 -17 -15 -12 -11 -11 -11 -11 -10 -10 -10 -11 -11 -10 -9 -10 -9 -9 -9 -12 -11 -11 -11 -12 -12 -11 -10 -10 -10
-22 -22 -22 -23 -23 -23 -21 -19 -15 -13 -12 -12 -12 -12 -11 -11 -11 -11 -11 -11 -11 -10 -10 -9 -9 -9 -9 -10 -9 -10 -10 -11 -13 -11 -10 -10 -10 -9
-22 -24 -23 -23 -22 -18 -14 -12 -12 -12 -12 -11 -11 -11 -11 -11 -11 -10 -10 -10 -10 -10 -10 -9 -9 -9 -9 -9 -9 -9 -9 -11 -12 -11 -10 -10 -10 -10
-24 -24 -23 -22 -18 -14 -12 -12 -12 -12 -11 -11 -11 -11 -11 -11 -10 -10 -10 -10 -10 -10 -9 -9 -9 -9 -9 -9 -9 -9 -9 -9 -10 -11 -10 -10 -10 -10
-25 -24 -21 -19 -14 -13 -12 -12 -12 -11 -11 -11 -10 -10 -10 -10 -10 -9 -9 -10 -9 -10 -10 -10 -10 -9 -9 -9 -9 -10 -10 -10 -10 -10 -9 -10 -10 -10
-24 -22 -20 -17 -13 -13 -12 -12 -11 -11 -10 -10 -9 -9 -9 -9 -9 -9 -9 -9 -9 -9 -10 -10 -10 -10 -9 -10 -10 -10 -9 -9 -10 -9 -9 -8 -9 -10
-23 -21 -20 -17 -13 -12 -12 -12 -11 -10 -10 -9 -9 -9 -9 -8 -8 -8 -9 -9 -9 -9 -10 -10 -10 -9 -9 -10 -10 -10 -9 -10 -10 -10 -10 -9 -9 -10
-23 -22 -21 -19 -15 -13 -12 -12 -11 -10 -10 -9 -9 -9 -8 -8 -9 -9 -9 -9 -9 -9 -10 -10 -10 -9 -9 -9 -10 -10 -11 -10 -9 -9 -10 -9 -9 -11
-22 -22 -22 -20 -18 -15 -13 -12 -11 -10 -10 -9 -9 -9 -8 -9 -9 -9 -9 -9 -9 -9 -9 -10 -10 -10 -9 -9 -9 -11 -11 -10 -9 -8 -9 -8 -8 -8
-22 -21 -21 -21 -20 -19 -15 -13 -12 -11 -11 -10 -10 -9 -9 -9 -9 -9 -9 -9 -9 -9 -9 -10 -10 -10 -10 -9 -9 -9 -10 -9 -10 -10 -10 -8 -8 -8
-22 -21 -21 -21 -21 -20 -19 -16 -13 -12 -12 -11 -10 -9 -9 -9 -9 -9 -9 -9 -9 -9 -9 -10 -9 -10 -10 -9 -9 -9 -9 -8 -11 -10 -10 -10 -9 -10

GFSNE_850_dewp_072.txt.gz
Dewpoint
5 5 7 7 7 8 7 8 7 7 6 6 6 6 5 3 2 1 1 1 2 2 1 0 0 -0 -1 -1 -1 -1 -1 -4 -7 -12 -9 -3 -2 -2
4 3 4 6 6 6 7 7 7 6 6 5 5 4 3 3 -0 -0 0 0 1 0 -0 -0 -1 -2 -2 -1 -2 -5 -7 -9 -10 -4 -3 -3 -3 -2
2 4 5 5 5 6 6 5 5 5 5 5 4 3 3 2 1 0 1 1 -0 0 -1 -1 -2 -1 -2 -6 -9 -15 -11 -8 -5 -4 -3 -3 -3 -3
4 4 4 4 4 4 5 4 4 4 3 3 2 2 2 1 1 0 -0 -0 -1 -1 -2 -1 -3 -8 -11 -16 -18 -16 -10 -8 -6 -5 -5 -4 -4 -3
3 3 3 3 4 4 3 3 2 1 1 2 2 1 1 1 0 -1 -1 -1 -1 -2 -4 -9 -15 -18 -18 -22 -17 -7 -7 -8 -11 -12 -14 -12 -7 -5
3 3 3 3 3 2 2 1 1 0 1 1 0 0 0 -1 -1 -1 -2 -5 -11 -14 -15 -16 -17 -20 -21 -16 -14 -13 -13 -13 -14 -13 -13 -9 -7 -5
1 1 1 0 0 0 0 -0 -0 -0 -0 -1 -1 -2 -2 -2 -6 -11 -13 -12 -12 -13 -16 -19 -19 -16 -14 -13 -13 -13 -13 -13 -13 -11 -7 -5 -5 -5
-0 -0 -0 -1 -1 -1 -1 -1 -1 -1 -2 -5 -13 -12 -13 -13 -12 -12 -11 -11 -13 -17 -19 -15 -13 -13 -12 -12 -12 -12 -12 -12 -12 -11 -9 -8 -7 -6
-1 -1 -1 -1 -2 -5 -10 -19 -20 -20 -20 -20 -17 -14 -13 -12 -11 -10 -10 -11 -15 -14 -13 -13 -12 -12 -12 -11 -11 -12 -11 -11 -11 -11 -11 -10 -9 -9
-20 -23 -23 -24 -24 -25 -24 -22 -20 -18 -16 -16 -15 -14 -13 -13 -13 -13 -13 -15 -14 -13 -12 -12 -12 -12 -11 -11 -12 -11 -11 -11 -11 -10 -10 -11 -10 -10
-25 -26 -25 -24 -23 -25 -24 -23 -21 -17 -14 -13 -13 -13 -15 -16 -15 -16 -15 -12 -12 -12 -11 -11 -11 -11 -12 -11 -11 -11 -11 -11 -11 -12 -12 -12 -12 -11
-25 -24 -24 -24 -23 -24 -25 -24 -21 -17 -16 -16 -16 -14 -13 -12 -12 -12 -11 -11 -11 -11 -11 -10 -11 -10 -11 -10 -11 -11 -12 -10 -11 -12 -12 -12 -12 -11
-24 -24 -23 -24 -24 -25 -25 -23 -21 -20 -17 -15 -13 -12 -12 -12 -12 -11 -11 -11 -11 -11 -11 -10 -10 -10 -9 -10 -12 -13 -11 -10 -11 -13 -13 -11 -10 -10
-22 -23 -24 -23 -23 -22 -20 -18 -15 -13 -12 -12 -12 -12 -12 -11 -12 -11 -11 -11 -11 -10 -10 -10 -10 -9 -9 -9 -11 -12 -11 -11 -11 -13 -12 -12 -11 -10
-24 -25 -25 -23 -21 -19 -16 -13 -12 -12 -12 -12 -11 -11 -11 -11 -11 -11 -11 -11 -10 -10 -9 -9 -9 -9 -10 -9 -10 -10 -11 -11 -11 -11 -11 -11 -11 -10
-25 -25 -24 -23 -21 -16 -13 -12 -12 -12 -12 -11 -11 -11 -11 -11 -11 -11 -10 -10 -10 -10 -10 -9 -9 -9 -9 -10 -10 -11 -10 -9 -11 -11 -10 -11 -11 -11
-25 -24 -23 -21 -17 -14 -13 -12 -12 -12 -11 -11 -11 -10 -10 -10 -10 -9 -9 -9 -9 -10 -10 -10 -9 -9 -10 -10 -10 -10 -10 -10 -10 -11 -10 -10 -11 -11
-24 -23 -22 -21 -17 -14 -13 -12 -12 -12 -11 -11 -10 -10 -9 -9 -9 -9 -9 -9 -9 -9 -9 -10 -10 -10 -10 -11 -10 -10 -10 -10 -10 -10 -10 -10 -10 -12
-23 -23 -22 -21 -19 -15 -13 -12 -12 -12 -11 -10 -10 -9 -9 -9 -9 -9 -9 -9 -9 -9 -9 -9 -10 -10 -10 -10 -10 -10 -10 -10 -10 -10 -10 -10 -9 -11
-23 -23 -22 -22 -21 -19 -16 -13 -12 -12 -11 -10 -10 -9 -9 -9 -9 -9 -9 -9 -9 -9 -9 -10 -10 -9 -10 -9 -10 -10 -10 -10 -10 -10 -11 -10 -10 -11
-23 -22 -22 -22 -22 -21 -20 -17 -15 -13 -12 -11 -10 -10 -10 -9 -9 -9 -9 -9 -9 -10 -10 -10 -10 -9 -9 -10 -10 -10 -11 -11 -10 -10 -10 -8 -9 -9
-23 -22 -22 -22 -21 -21 -21 -20 -19 -17 -14 -12 -11 -11 -11 -9 -9 -9 -9 -10 -10 -10 -10 -10 -10 -10 -9 -9 -10 -10 -11 -12 -11 -10 -10 -10 -10 -9
-24 -22 -22 -21 -21 -21 -21 -21 -20 -20 -17 -14 -13 -12 -11 -11 -10 -9 -9 -10 -10 -10 -10 -10 -10 -10 -10 -10 -10 -10 -11 -11 -11 -10 -11 -11 -11 -10

GFSNE_850_dewp_075.txt.gz
Dewpoint
8 5 6 6 6 6 6 6 6 7 6 6 6 6 6 5 5 5 4 3 2 1 0 0 0 -0 -0 -0 -0 -1 -1 -1 -1 -1 -3 -4 -3 -2
2 3 4 4 3 4 5 6 6 6 6 5 5 5 5 4 3 3 2 0 -0 -0 -0 -0 -0 -1 -1 -1 -1 -2 -1 -2 -3 -4 -3 -2 -2 -2
1 1 2 3 4 4 4 4 4 4 5 4 4 4 3 3 1 1 -0 -1 -1 -1 -0 -1 -2 -2 -2 -2 -2 -2 -4 -5 -5 -4 -4 -3 -3 -3
2 3 3 3 3 3 3 3 3 3 3 3 3 3 2 2 0 0 -0 -1 -1 -1 -1 -1 -2 -2 -2 -3 -4 -7 -13 -9 -7 -10 -7 -5 -4 -3
2 2 3 3 3 3 3 3 3 2 2 2 1 1 1 -0 -0 -0 -1 -2 -1 -1 -1 -2 -3 -5 -6 -10 -14 -17 -9 -6 -11 -13 -12 -10 -8 -5
2 2 2 3 3 2 1 1 1 1 1 1 0 -0 -1 -1 -1 -1 -2 -2 -2 -3 -10 -13 -14 -14 -15 -16 -21 -19 -15 -13 -13 -13 -13 -13 -9 -6
1 1 1 0 -0 0 -0 -0 -0 -0 -0 -0 -1 -1 -2 -2 -2 -4 -7 -10 -12 -12 -13 -16 -17 -19 -19 -17 -14 -13 -13 -13 -13 -13 -12 -8 -6 -5
-1 -1 -1 -1 -1 -1 -1 -1 -1 -1 -2 -5 -11 -14 -15 -15 -14 -13 -12 -12 -14 -15 -19 -21 -21 -16 -14 -13 -12 -12 -12 -12 -12 -12 -12 -10 -9 -7
-3 -3 -5 -7 -9 -12 -19 -22 -23 -23 -23 -22 -21 -20 -19 -16 -14 -13 -12 -13 -17 -18 -19 -17 -13 -13 -12 -12 -12 -12 -12 -11 -11 -11 -12 -12 -11 -11
-26 -26 -27 -26 -27 -26 -25 -25 -24 -22 -20 -18 -18 -17 -17 -16 -15 -15 -16 -17 -18 -17 -14 -13 -12 -12 -11 -11 -11 -11 -12 -11 -11 -12 -11 -11 -12 -12
-28 -27 -27 -25 -24 -25 -25 -25 -23 -20 -17 -16 -16 -16 -16 -16 -14 -17 -18 -15 -13 -13 -12 -12 -12 -12 -12 -12 -12 -12 -11 -11 -11 -11 -11 -12 -12 -13
-27 -26 -26 -26 -25 -25 -26 -26 -25 -22 -20 -19 -19 -18 -15 -14 -12 -11 -11 -11 -12 -12 -11 -10 -11 -11 -12 -11 -10 -11 -11 -11 -11 -10 -11 -12 -13 -13
-27 -25 -25 -26 -26 -27 -27 -25 -23 -22 -17 -14 -13 -13 -12 -12 -12 -11 -11 -11 -11 -11 -10 -10 -10 -11 -11 -11 -11 -11 -11 -11 -11 -10 -11 -12 -12 -11
-26 -25 -26 -26 -26 -25 -23 -20 -17 -14 -13 -12 -12 -12 -12 -11 -11 -11 -11 -11 -11 -10 -10 -10 -9 -10 -9 -9 -10 -11 -12 -12 -11 -11 -11 -11 -11 -11
-27 -28 -27 -26 -24 -22 -18 -16 -13 -13 -12 -12 -12 -12 -11 -11 -11 -11 -11 -11 -11 -11 -10 -10 -9 -9 -9 -9 -10 -11 -12 -12 -11 -11 -11 -10 -11 -11
-27 -27 -26 -24 -23 -20 -17 -14 -13 -13 -12 -12 -12 -11 -11 -11 -11 -11 -11 -11 -11 -10 -10 -10 -10 -10 -9 -9 -10 -11 -12 -11 -11 -11 -10 -11 -11 -11
-26 -25 -24 -23 -21 -18 -15 -13 -13 -12 -12 -12 -12 -11 -10 -10 -10 -9 -9 -9 -9 -9 -9 -9 -9 -10 -9 -9 -9 -10 -11 -11 -10 -11 -10 -10 -11 -11
-26 -24 -24 -24 -22 -21 -17 -14 -13 -12 -12 -12 -11 -10 -10 -10 -9 -9 -9 -9 -9 -9 -9 -9 -9 -9 -10 -10 -10 -11 -10 -10 -11 -10 -10 -10 -11 -12
-26 -25 -24 -24 -23 -22 -21 -18 -14 -13 -12 -12 -11 -10 -10 -10 -9 -9 -9 -9 -9 -9 -9 -9 -9 -9 -10 -10 -10 -10 -10 -10 -10 -10 -10 -10 -11 -12
-27 -26 -24 -23 -23 -22 -22 -21 -20 -17 -15 -13 -12 -11 -10 -10 -10 -9 -9 -9 -9 -9 -9 -10 -10 -9 -9 -10 -10 -10 -10 -10 -10 -10 -11 -11 -11 -11
-26 -25 -24 -23 -23 -22 -22 -22 -21 -21 -20 -18 -14 -12 -11 -11 -10 -10 -9 -9 -9 -9 -10 -10 -10 -10 -10 -10 -10 -10 -10 -10 -10 -11 -11 -10 -10 -10
-26 -26 -24 -23 -22 -22 -22 -22 -22 -21 -21 -20 -19 -16 -13 -12 -11 -11 -10 -10 -10 -10 -10 -10 -10 -10 -10 -10 -10 -10 -10 -11 -11 -11 -11 -10 -9 -9
-26 -26 -25 -24 -23 -21 -20 -21 -21 -21 -20 -20 -19 -18 -16 -14 -13 -12 -12 -11 -10 -10 -10 -10 -10 -10 -10 -10 -10 -10 -11 -11 -11 -11 -12 -11 -11 -11

GFSNE_850_dewp_078.txt.gz
Dewpoint
8 8 8 6 5 6 6 6 6 5 5 5 5 5 4 4 3 4 5 4 3 3 2 2 2 2 2 1 1 1 0 0 0 -0 -0 0 -1 -1
4 3 2 3 5 5 4 4 4 5 5 5 4 3 4 4 3 4 3 2 1 2 1 1 1 -0 -0 -0 -0 -0 -1 -1 -1 -2 -2 -2 -2 -1
0 1 2 2 3 3 3 3 3 3 3 3 3 3 3 2 3 2 1 0 0 -0 -0 -0 -1 -1 -1 -1 -1 -1 -1 -1 -2 -3 -3 -3 -2 -2
2 2 2 3 3 3 2 2 3 3 2 2 2 2 2 2 2 2 1 -0 -0 -1 -1 -1 -1 -1 -2 -2 -2 -2 -2 -2 -7 -7 -4 -4 -3 -3
2 2 2 2 2 2 2 2 2 2 2 2 1 1 1 1 1 0 0 -0 -1 -1 -1 -1 -2 -2 -2 -2 -3 -7 -13 -14 -7 -13 -9 -8 -6 -4
2 2 1 2 2 2 1 1 1 1 0 0 0 0 0 0 -0 -1 -1 -2 -2 -2 -3 -5 -9 -12 -12 -11 -13 -15 -18 -19 -14 -12 -13 -13 -13 -10
1 1 1 1 0 -0 -0 -1 -1 -1 -0 -0 -1 -1 -2 -2 -3 -4 -6 -9 -11 -12 -14 -15 -16 -17 -18 -20 -21 -21 -17 -15 -13 -13 -13 -9 -7 -7
-0 -1 -1 -1 -2 -2 -3 -5 -9 -12 -14 -15 -16 -16 -16 -16 -15 -14 -14 -15 -15 -17 -19 -20 -22 -23 -20 -17 -15 -14 -13 -13 -13 -13 -12 -12 -10 -11
-17 -18 -21 -24 -26 -25 -25 -25 -25 -26 -27 -26 -23 -22 -20 -19 -17 -16 -16 -16 -17 -18 -21 -21 -15 -14 -14 -13 -12 -12 -12 -12 -12 -12 -12 -12 -12 -12
-28 -28 -27 -28 -28 -27 -27 -27 -27 -25 -24 -24 -22 -20 -19 -19 -18 -16 -16 -17 -18 -19 -16 -14 -13 -13 -12 -12 -12 -12 -12 -12 -12 -12 -12 -12 -12 -12
-29 -28 -28 -27 -27 -29 -28 -29 -27 -25 -23 -22 -22 -22 -20 -19 -21 -19 -18 -17 -15 -13 -12 -12 -13 -12 -12 -12 -12 -12 -12 -11 -11 -11 -12 -12 -12 -12
-29 -27 -28 -29 -29 -28 -28 -28 -27 -24 -23 -22 -20 -20 -18 -16 -15 -14 -13 -13 -13 -12 -12 -11 -11 -11 -12 -11 -11 -10 -10 -10 -10 -11 -12 -11 -11 -11
-28 -28 -28 -29 -29 -29 -29 -27 -25 -21 -18 -15 -14 -13 -13 -13 -12 -12 -12 -12 -12 -12 -11 -10 -10 -11 -11 -11 -12 -11 -10 -10 -11 -11 -11 -11 -11 -11
-28 -28 -28 -29 -28 -28 -26 -24 -20 -15 -14 -13 -13 -13 -12 -12 -12 -12 -12 -12 -11 -11 -11 -10 -9 -10 -9 -10 -10 -11 -11 -11 -12 -12 -12 -11 -12 -12
-27 -28 -28 -27 -26 -24 -22 -20 -15 -14 -13 -13 -13 -12 -12 -12 -12 -12 -12 -12 -12 -11 -11 -10 -10 -10 -10 -10 -10 -11 -11 -12 -12 -11 -11 -11 -11 -11
-27 -27 -27 -26 -25 -23 -20 -17 -14 -14 -13 -13 -13 -12 -12 -12 -11 -11 -11 -10 -11 -10 -9 -9 -9 -9 -10 -10 -10 -10 -10 -10 -11 -11 -11 -11 -11 -11
-28 -26 -25 -25 -25 -24 -22 -19 -16 -14 -13 -13 -13 -12 -12 -11 -11 -10 -10 -9 -9 -9 -9 -9 -9 -9 -9 -9 -10 -10 -10 -11 -11 -11 -10 -11 -11 -11
-28 -26 -26 -25 -25 -24 -24 -22 -21 -17 -14 -13 -13 -12 -12 -11 -10 -10 -10 -9 -9 -9 -9 -9 -9 -9 -9 -9 -9 -10 -10 -10 -10 -10 -10 -10 -10 -10
-28 -27 -27 -26 -24 -24 -23 -23 -23 -22 -20 -18 -15 -14 -12 -11 -10 -10 -10 -9 -9 -9 -9 -9 -9 -9 -10 -10 -10 -10 -10 -10 -10 -10 -10 -10 -10 -11
-28 -28 -28 -26 -25 -24 -23 -23 -22 -22 -22 -22 -21 -19 -15 -13 -12 -11 -10 -10 -10 -9 -10 -10 -10 -10 -10 -10 -10 -10 -10 -10 -10 -10 -10 -10 -11 -11
-28 -28 -27 -27 -26 -25 -23 -22 -22 -22 -22 -22 -22 -21 -20 -18 -15 -13 -12 -11 -10 -10 -10 -10 -10 -10 -10 -10 -10 -11 -11 -10 -10 -10 -11 -11 -11 -11
-29 -29 -27 -27 -27 -25 -24 -23 -21 -20 -21 -21 -21 -21 -20 -19 -18 -16 -14 -13 -12 -12 -11 -11 -10 -10 -10 -10 -10 -10 -11 -11 -11 -11 -11 -11 -10 -10
-30 -29 -29 -28 -26 -25 -24 -24 -22 -19 -18 -17 -17 -17 -17 -16 -15 -14 -13 -12 -12 -12 -12 -11 -11 -10 -10 -10 -10 -11 -11 -12 -11 -11 -11 -11 -10 -11

GFSNE_850_dewp_081.txt.gz
Dewpoint
7 7 7 7 7 7 6 7 7 5 5 4 3 4 3 3 3 3 3 3 4 4 3 4 4 4 3 2 2 2 2 2 2 1 1 1 1 0
7 6 6 5 3 2 4 5 3 3 4 4 3 3 2 2 2 2 2 3 3 3 3 2 3 2 2 2 2 1 1 0 0 0 0 -0 -1 -1
0 -0 0 1 2 3 3 3 2 2 2 3 2 2 2 2 2 2 2 2 2 1 2 2 1 2 1 1 0 0 -0 -1 -1 -1 -1 -2 -2 -2
1 1 2 2 2 2 2 2 2 2 2 2 2 2 2 2 1 1 1 1 1 1 0 0 -0 -0 -0 -1 -1 -1 -1 -2 -2 -1 -3 -6 -3 -3
2 2 2 2 2 2 2 2 2 2 2 1 1 1 1 1 1 1 1 1 1 0 -0 -1 -1 -1 -1 -1 -2 -2 -2 -3 -8 -17 -17 -12 -7 -4
2 2 1 2 2 2 2 1 1 1 0 -0 -0 -1 -1 -1 -1 -1 -1 -1 -1 -1 -2 -3 -3 -4 -6 -6 -9 -14 -16 -18 -22 -21 -15 -12 -13 -13
1 1 1 1 1 0 -0 -0 -1 -1 -1 -2 -2 -2 -3 -4 -6 -7 -9 -10 -12 -13 -14 -16 -17 -18 -18 -18 -18 -20 -21 -21 -17 -14 -13 -13 -9 -8
-0 -0 -0 -1 -4 -11 -12 -19 -26 -25 -24 -24 -23 -21 -19 -19 -18 -18 -18 -17 -17 -18 -20 -20 -23 -23 -23 -20 -18 -15 -14 -13 -13 -12 -13 -12 -12 -13
-16 -23 -26 -29 -30 -29 -27 -29 -27 -28 -28 -26 -24 -23 -22 -21 -20 -20 -19 -18 -18 -18 -20 -22 -19 -16 -15 -14 -13 -12 -12 -12 -12 -12 -12 -12 -12 -12
-29 -29 -30 -30 -29 -30 -30 -30 -29 -26 -24 -25 -23 -23 -22 -22 -22 -22 -22 -22 -22 -21 -18 -16 -14 -13 -13 -12 -12 -12 -12 -12 -12 -12 -11 -11 -12 -13
-29 -29 -30 -28 -30 -31 -31 -30 -29 -27 -26 -26 -26 -25 -24 -23 -22 -20 -17 -14 -14 -14 -13 -13 -13 -12 -12 -12 -12 -12 -12 -12 -11 -11 -11 -12 -13 -13
-28 -28 -29 -29 -32 -31 -30 -29 -27 -26 -25 -22 -18 -18 -17 -16 -15 -14 -14 -13 -13 -13 -12 -12 -13 -12 -12 -12 -11 -11 -11 -10 -10 -11 -11 -12 -12 -12
-28 -28 -27 -30 -30 -30 -30 -26 -25 -22 -17 -15 -15 -14 -14 -14 -13 -13 -13 -12 -12 -12 -12 -11 -11 -11 -11 -12 -12 -11 -11 -11 -11 -11 -11 -11 -13 -12
-28 -28 -28 -29 -28 -26 -25 -24 -23 -18 -15 -14 -14 -14 -13 -13 -13 -13 -13 -13 -12 -12 -12 -11 -11 -11 -11 -11 -12 -12 -11 -11 -11 -11 -11 -12 -12 -12
-27 -28 -29 -28 -26 -25 -23 -21 -18 -16 -15 -14 -14 -14 -13 -13 -12 -12 -12 -12 -12 -12 -11 -11 -11 -10 -10 -10 -10 -10 -11 -11 -11 -12 -12 -11 -11 -11
-28 -27 -27 -26 -26 -25 -23 -20 -18 -16 -15 -14 -14 -13 -13 -13 -12 -12 -12 -11 -11 -10 -9 -9 -9 -9 -9 -9 -9 -9 -9 -10 -10 -10 -11 -11 -12 -11
-30 -28 -26 -25 -25 -25 -24 -23 -22 -20 -18 -16 -15 -14 -13 -13 -12 -11 -11 -10 -10 -10 -9 -9 -9 -9 -9 -9 -9 -9 -9 -10 -10 -10 -10 -10 -11 -11
-30 -28 -26 -26 -26 -25 -24 -24 -24 -23 -23 -21 -19 -17 -16 -14 -13 -12 -11 -10 -10 -10 -10 -9 -9 -9 -9 -9 -10 -10 -10 -10 -10 -10 -10 -10 -10 -10
-30 -28 -28 -27 -27 -26 -25 -24 -23 -23 -23 -23 -22 -22 -21 -20 -16 -13 -12 -11 -11 -10 -10 -10 -9 -9 -10 -10 -10 -10 -10 -10 -10 -11 -10 -10 -10 -11
-29 -28 -28 -28 -27 -27 -26 -25 -23 -22 -22 -22 -22 -22 -21 -21 -20 -19 -16 -13 -12 -12 -11 -11 -10 -10 -10 -10 -10 -11 -11 -11 -11 -11 -10 -10 -10 -11
-29 -29 -29 -28 -27 -27 -26 -25 -24 -23 -22 -20 -21 -21 -21 -21 -20 -19 -19 -17 -15 -14 -13 -12 -12 -11 -11 -10 -11 -11 -11 -11 -10 -11 -11 -11 -10 -10
-30 -30 -30 -29 -28 -27 -26 -25 -24 -23 -23 -21 -19 -18 -18 -19 -18 -18 -17 -16 -14 -13 -12 -12 -12 -12 -11 -11 -10 -10 -11 -11 -11 -11 -11 -11 -11 -10
-28 -29 -29 -29 -29 -28 -26 -24 -23 -22 -22 -22 -20 -17 -15 -14 -13 -13 -13 -12 -12 -12 -11 -11 -11 -11 -11 -10 -11 -11 -11 -12 -12 -12 -12 -11 -9 -10

GFSNE_850_dewp_084.txt.gz
Dewpoint
8 8 8 7 6 7 6 6 6 5 5 5 4 3 3 3 2 3 3 3 3 3 4 4 5 5 5 4 3 3 2 2 3 2 3 2 2 2
7 8 6 6 7 6 5 3 5 4 4 3 3 3 2 2 2 2 2 2 3 3 3 3 3 3 3 3 3 2 2 2 2 2 2 2 1 0
3 4 5 4 1 1 3 3 3 3 3 3 2 2 2 2 2 2 2 2 2 2 2 2 2 2 2 2 2 2 1 1 1 1 0 -0 -0 -1
0 0 0 1 2 1 2 2 2 2 2 2 2 1 1 2 1 1 1 1 1 1 1 1 1 1 1 1 0 -1 -1 -1 -1 -2 -1 -1 -1 -2
1 1 2 2 2 2 2 2 2 2 2 2 2 1 1 1 1 1 1 1 1 1 0 0 0 -0 -1 -1 -1 -1 -1 -2 -2 -2 -4 -6 -8 -7
2 2 2 1 2 2 2 2 1 1 1 0 -0 -0 -1 -1 -1 -1 -2 -2 -2 -2 -2 -2 -2 -3 -4 -5 -5 -6 -10 -14 -16 -19 -19 -18 -14 -11
2 1 1 1 2 1 1 0 -0 -1 -1 -2 -4 -5 -4 -6 -7 -10 -12 -14 -16 -17 -17 -18 -19 -19 -20 -20 -20 -20 -20 -21 -21 -22 -19 -14 -12 -9
1 0 0 -0 -0 -2 -8 -15 -25 -28 -27 -27 -25 -20 -21 -20 -21 -20 -20 -19 -11 -22 -22 -22 -25 -25 -25 -25 -24 -23 -21 -18 -17 -15 -13 -11 -9 -8
-1 -5 -13 -21 -29 -28 -29 -32 -32 -31 -31 -29 -25 -23 -22 -22 -22 -22 -21 -21 -18 -20 -24 -19 -23 -19 -17 -16 -15 -15 -14 -13 -13 -13 -13 -12 -12 -10
-28 -29 -29 -28 -28 -31 -31 -31 -30 -28 -27 -28 -26 -24 -24 -25 -24 -23 -22 -22 -21 -21 -19 -16 -15 -14 -14 -13 -13 -13 -13 -13 -13 -13 -12 -12 -11 -11
-29 -29 -28 -28 -30 -34 -31 -30 -29 -28 -28 -29 -28 -27 -26 -25 -23 -20 -17 -15 -11 -13 -14 -13 -13 -13 -13 -13 -13 -13 -13 -13 -12 -12 -12 -11 -11 -12
-28 -27 -29 -29 -32 -32 -29 -28 -27 -26 -25 -21 -18 -17 -16 -16 -15 -15 -14 -14 -13 -11 -13 -13 -13 -12 -12 -12 -12 -12 -12 -12 -12 -12 -11 -11 -11 -12
-27 -27 -27 -30 -30 -29 -29 -26 -25 -23 -18 -16 -15 -15 -14 -14 -14 -14 -13 -13 -13 -12 -12 -12 -12 -12 -11 -11 -12 -12 -12 -12 -12 -12 -11 -11 -11 -11
-26 -26 -27 -29 -28 -27 -25 -24 -23 -20 -16 -15 -15 -14 -14 -14 -13 -13 -13 -13 -12 -12 -12 -12 -12 -11 -11 -11 -11 -11 -11 -11 -11 -11 -11 -11 -11 -12
-26 -26 -29 -28 -27 -26 -24 -22 -20 -17 -16 -15 -15 -14 -14 -14 -13 -13 -13 -13 -12 -12 -11 -11 -11 -11 -10 -10 -10 -9 -9 -9 -9 -11 -11 -11 -11 -12
-28 -27 -27 -27 -26 -25 -25 -23 -21 -19 -17 -16 -16 -15 -14 -14 -13 -13 -13 -12 -12 -11 -11 -10 -9 -9 -9 -9 -9 -9 -9 -9 -10 -10 -10 -10 -11 -11
-26 -27 -26 -25 -25 -25 -25 -24 -23 -22 -21 -20 -19 -18 -17 -16 -15 -14 -13 -12 -11 -11 -10 -9 -9 -9 -9 -9 -9 -9 -10 -10 -10 -10 -10 -10 -10 -10
-28 -28 -27 -25 -25 -26 -25 -25 -24 -24 -23 -23 -22 -21 -20 -19 -19 -18 -15 -12 -12 -11 -10 -10 -10 -9 -9 -10 -10 -10 -10 -10 -10 -10 -10 -10 -11 -11
-28 -28 -27 -26 -26 -27 -26 -26 -25 -24 -23 -22 -22 -22 -22 -21 -21 -20 -19 -15 -13 -12 -12 -11 -11 -10 -10 -10 -10 -11 -11 -11 -10 -10 -10 -10 -11 -11
-28 -28 -27 -26 -27 -27 -27 -27 -26 -24 -22 -22 -21 -21 -21 -21 -21 -20 -18 -17 -18 -16 -15 -13 -12 -11 -11 -10 -10 -12 -11 -11 -11 -11 -11 -10 -11 -11
-28 -28 -27 -27 -28 -28 -27 -27 -26 -24 -22 -22 -22 -21 -20 -19 -20 -19 -19 -18 -16 -15 -16 -14 -12 -11 -12 -11 -12 -12 -12 -11 -11 -11 -11 -11 -11 -12
-28 -29 -29 -28 -28 -28 -28 -27 -26 -25 -22 -21 -21 -21 -20 -18 -17 -17 -16 -15 -15 -13 -13 -13 -12 -11 -11 -11 -11 -11 -11 -11 -11 -11 -12 -12 -12 -11
-23 -24 -27 -28 -28 -29 -28 -28 -28 -24 -21 -20 -19 -19 -21 -20 -17 -15 -14 -13 -13 -13 -13 -12 -11 -11 -10 -10 -10 -11 -11 -11 -12 -12 -12 -12 -12 -12

GFSNE_850_dewp_087.txt.gz
Dewpoint
7 8 8 8 8 8 7 6 6 5 5 5 5 4 3 3 3 2 2 2 2 3 3 3 4 4 5 6 5 5 4 3 3 2 2 3 3 3
7 8 9 7 8 6 6 6 6 5 4 5 4 3 3 2 2 2 2 2 2 2 3 3 3 4 4 4 4 3 3 2 2 2 2 2 2 2
4 5 6 7 6 5 3 2 3 3 5 4 3 2 2 2 2 2 2 2 2 1 2 1 2 2 2 2 3 2 2 1 1 1 1 0 0 0
1 2 2 2 1 1 1 2 2 2 2 2 2 2 2 1 1 1 1 1 1 1 1 1 1 1 1 1 1 1 0 -0 -1 -1 -1 -1 -1 -1
1 1 1 1 2 1 2 2 2 2 2 2 2 2 1 0 0 0 1 1 0 0 1 0 0 -0 -0 -0 -0 -1 -1 -1 -1 -2 -2 -2 -2 -2
1 1 2 2 2 2 2 2 2 2 1 1 0 -0 -1 -3 -2 -2 -3 -4 -3 -2 -2 -2 -2 -2 -3 -2 -2 -3 -5 -7 -11 -13 -17 -19 -21 -21
2 2 2 1 1 2 2 1 0 -0 -1 -1 -2 -5 -8 -10 -11 -13 -14 -16 -17 -19 -20 -20 -21 -21 -22 -22 -22 -22 -21 -21 -20 -21 -21 -23 -20 -15
2 1 1 1 1 1 0 -2 -6 -13 -18 -21 -22 -18 -19 -21 -22 -23 -22 -22 -12 -18 -21 -23 -24 -25 -26 -26 -25 -26 -26 -24 -21 -19 -18 -16 -11 -9
0 -0 -1 -3 -9 -23 -29 -30 -31 -32 -32 -29 -26 -23 -22 -25 -24 -25 -24 -23 -19 -19 -26 -23 -22 -20 -19 -18 -17 -17 -17 -16 -16 -15 -14 -13 -13 -12
-5 -13 -23 -28 -28 -28 -30 -31 -30 -30 -29 -29 -27 -27 -27 -27 -27 -26 -25 -23 -19 -19 -18 -16 -14 -15 -15 -15 -15 -14 -14 -14 -13 -14 -14 -14 -13 -13
-28 -28 -27 -27 -27 -32 -31 -29 -29 -28 -28 -30 -30 -28 -26 -24 -23 -22 -19 -16 -11 -11 -15 -14 -13 -14 -14 -14 -13 -14 -14 -13 -13 -13 -13 -13 -12 -12
-27 -27 -28 -28 -29 -32 -29 -28 -26 -25 -26 -23 -19 -18 -17 -17 -16 -16 -15 -15 -14 -12 -13 -14 -14 -14 -13 -12 -13 -13 -13 -13 -12 -12 -12 -12 -12 -12
-27 -27 -27 -29 -31 -30 -29 -26 -24 -23 -20 -17 -16 -16 -16 -16 -15 -15 -14 -14 -14 -14 -14 -13 -13 -13 -13 -13 -13 -13 -13 -13 -13 -13 -13 -13 -12 -12
-26 -26 -27 -28 -29 -28 -27 -25 -24 -23 -18 -16 -16 -16 -15 -15 -15 -14 -14 -14 -14 -13 -13 -13 -13 -12 -12 -12 -13 -12 -12 -11 -10 -11 -12 -12 -12 -12
-27 -26 -27 -28 -28 -27 -26 -24 -22 -20 -18 -17 -17 -16 -16 -15 -14 -14 -14 -14 -13 -13 -12 -12 -12 -11 -11 -11 -11 -10 -10 -10 -10 -10 -11 -11 -11 -12
-29 -28 -28 -28 -26 -26 -25 -25 -24 -21 -20 -19 -19 -18 -18 -16 -16 -15 -15 -14 -13 -13 -12 -11 -11 -10 -10 -10 -10 -10 -9 -9 -10 -10 -10 -10 -10 -10
-26 -26 -26 -26 -25 -24 -24 -25 -24 -23 -23 -22 -21 -21 -20 -20 -19 -19 -18 -16 -14 -12 -12 -11 -11 -10 -10 -10 -10 -10 -10 -10 -10 -10 -10 -10 -10 -10
-27 -28 -28 -28 -26 -24 -24 -25 -25 -25 -24 -23 -23 -22 -22 -21 -21 -20 -21 -21 -19 -15 -12 -11 -11 -11 -11 -11 -11 -11 -10 -10 -10 -10 -10 -10 -11 -11
-29 -28 -28 -28 -27 -25 -25 -26 -26 -26 -25 -24 -22 -21 -21 -21 -20 -20 -20 -20 -21 -20 -16 -12 -11 -11 -10 -11 -12 -11 -11 -11 -11 -11 -11 -11 -11 -12
-29 -28 -28 -28 -27 -26 -26 -26 -26 -26 -26 -24 -22 -21 -20 -21 -20 -20 -19 -19 -19 -18 -17 -16 -15 -13 -12 -12 -11 -13 -12 -12 -12 -12 -11 -11 -11 -11
-29 -29 -28 -27 -27 -26 -26 -27 -27 -26 -26 -25 -22 -21 -20 -20 -20 -19 -19 -18 -17 -15 -15 -15 -14 -10 -10 -11 -11 -12 -12 -11 -11 -11 -11 -11 -11 -12
-24 -25 -26 -27 -28 -28 -27 -27 -27 -27 -27 -26 -23 -21 -19 -19 -17 -19 -19 -18 -16 -15 -14 -13 -13 -12 -12 -11 -11 -11 -11 -11 -11 -11 -10 -11 -11 -11
-19 -19 -20 -21 -23 -26 -26 -27 -27 -27 -28 -27 -24 -21 -19 -11 -15 -17 -19 -20 -17 -15 -14 -13 -13 -12 -12 -11 -10 -10 -10 -11 -11 -12 -12 -12 -12 -12

GFSNE_850_dewp_090.txt.gz
Dewpoint
3 6 8 8 7 7 7 6 8 7 6 5 5 4 4 4 3 2 2 2 2 2 2 2 4 4 4 5 6 6 6 5 4 4 3 2 2 3
2 8 5 7 7 6 7 8 6 6 5 5 5 4 4 3 2 2 2 2 2 2 2 2 2 3 4 4 5 5 4 4 3 2 2 1 2 2
1 4 6 6 6 6 7 7 6 4 5 5 4 4 2 2 1 1 1 2 2 1 1 1 1 2 2 2 3 3 3 2 2 1 1 0 1 1
1 2 3 4 4 4 2 1 1 2 3 4 4 2 2 2 1 1 1 1 1 1 1 1 1 1 1 1 1 1 1 1 0 -0 -0 -1 -1 -0
1 1 1 1 1 1 1 1 2 2 2 2 2 2 2 1 -0 -0 -0 0 0 -0 -0 0 0 0 0 0 -0 -1 -0 -1 -1 -1 -1 -2 -2 -2
1 1 0 1 1 2 2 2 2 2 2 2 1 1 -0 -2 -4 -4 -4 -4 -6 -6 -5 -5 -4 -3 -3 -3 -2 -2 -2 -2 -3 -5 -6 -7 -9 -13
2 2 2 2 2 2 2 1 1 1 1 -0 -1 -2 -6 -10 -12 -12 -14 -16 -20 -20 -19 -22 -22 -21 -23 -22 -22 -22 -21 -20 -19 -19 -21 -22 -23 -24
1 2 2 2 1 2 1 1 -1 -1 -3 -7 -12 -17 -17 -19 -22 -22 -24 -24 -21 -19 -21 -24 -23 -23 -25 -24 -24 -24 -25 -26 -25 -23 -21 -20 -18 -19
1 1 1 1 0 -0 -2 -7 -17 -27 -32 -29 -27 -23 -22 -23 -24 -27 -26 -25 -25 -24 -27 -25 -22 -22 -19 -18 -18 -18 -18 -17 -17 -16 -16 -14 -14 -13
0 -0 -1 -7 -17 -27 -28 -29 -29 -29 -30 -30 -28 -25 -26 -27 -28 -27 -26 -25 -23 -19 -19 -18 -17 -16 -16 -16 -15 -15 -15 -14 -14 -14 -14 -13 -13 -14
-8 -16 -24 -25 -26 -29 -31 -29 -28 -28 -29 -30 -31 -30 -27 -25 -23 -22 -21 -18 -17 -16 -15 -15 -16 -15 -15 -15 -14 -14 -14 -13 -13 -13 -13 -12 -13 -13
-25 -25 -26 -26 -25 -31 -31 -28 -27 -26 -26 -25 -22 -19 -18 -18 -17 -17 -17 -16 -16 -15 -14 -14 -15 -15 -14 -14 -13 -14 -13 -13 -13 -12 -12 -12 -12 -13
-25 -25 -24 -27 -29 -31 -30 -26 -24 -23 -23 -19 -18 -17 -17 -17 -16 -16 -16 -15 -15 -14 -15 -14 -14 -14 -14 -15 -14 -13 -13 -13 -13 -13 -13 -13 -13 -13
-25 -26 -25 -26 -29 -29 -29 -27 -25 -24 -21 -18 -18 -18 -17 -17 -16 -16 -16 -15 -15 -15 -14 -14 -13 -13 -13 -14 -14 -13 -12 -12 -11 -10 -10 -11 -11 -12
-26 -26 -26 -26 -27 -28 -27 -26 -24 -23 -21 -19 -18 -19 -18 -17 -17 -17 -17 -16 -16 -15 -14 -13 -13 -12 -12 -12 -12 -12 -11 -11 -10 -10 -10 -10 -10 -10
-29 -28 -27 -27 -28 -27 -26 -25 -25 -24 -22 -21 -21 -21 -20 -20 -20 -20 -21 -21 -21 -18 -15 -14 -12 -12 -11 -11 -11 -11 -10 -10 -10 -10 -10 -10 -11 -11
-24 -27 -27 -27 -26 -26 -25 -24 -24 -24 -23 -23 -23 -23 -22 -22 -21 -21 -22 -22 -22 -22 -20 -16 -13 -12 -12 -11 -12 -12 -11 -11 -10 -10 -10 -11 -11 -11
-26 -26 -27 -27 -27 -27 -26 -24 -25 -26 -25 -25 -24 -24 -22 -21 -20 -20 -20 -21 -21 -21 -21 -20 -16 -13 -13 -14 -14 -14 -12 -12 -11 -11 -11 -11 -13 -13
-26 -28 -29 -29 -29 -28 -28 -27 -26 -27 -26 -26 -25 -24 -22 -21 -20 -20 -20 -20 -20 -20 -19 -19 -18 -14 -13 -15 -16 -14 -13 -12 -11 -12 -12 -12 -12 -13
-29 -30 -29 -29 -29 -28 -27 -27 -26 -26 -27 -26 -26 -25 -22 -20 -19 -19 -19 -19 -19 -19 -18 -17 -17 -16 -15 -14 -13 -14 -12 -12 -11 -12 -12 -11 -11 -11
-28 -30 -30 -29 -28 -27 -25 -25 -24 -25 -26 -26 -26 -26 -24 -21 -19 -19 -18 -18 -18 -18 -18 -17 -14 -13 -12 -11 -12 -13 -12 -12 -11 -11 -11 -11 -11 -11
-22 -23 -25 -25 -25 -26 -26 -26 -26 -25 -26 -26 -27 -26 -26 -23 -20 -18 -16 -16 -17 -18 -19 -17 -15 -14 -13 -12 -12 -12 -12 -11 -10 -10 -11 -11 -11 -10
-17 -19 -19 -20 -19 -19 -20 -21 -24 -25 -26 -26 -27 -27 -27 -25 -21 -17 -12 -13 -15 -17 -20 -20 -17 -14 -13 -13 -12 -12 -10 -10 -10 -11 -12 -12 -12 -12

GFSNE_850_dewp_093.txt.gz
Dewpoint
-0 1 3 3 6 8 7 8 6 8 8 7 6 6 5 4 4 3 2 1 2 2 2 2 3 4 4 5 6 6 6 5 6 6 5 3 3 2
-1 0 2 5 7 5 7 8 6 7 7 6 5 4 5 4 3 2 1 2 2 2 1 2 2 3 4 5 5 5 5 5 5 4 3 3 2 1
-2 -0 2 6 6 6 6 6 6 6 6 5 4 4 3 4 2 1 1 1 1 1 1 1 1 2 2 3 3 4 4 4 3 3 2 1 1 0
-1 -0 0 3 5 5 5 5 6 5 2 4 3 3 3 2 2 1 1 1 1 1 0 0 1 1 1 1 1 1 2 2 1 1 0 -0 -0 -0
0 1 1 1 2 2 2 1 1 2 2 2 3 2 2 2 1 -0 -1 -0 -0 -0 -1 -0 -0 -0 0 0 0 0 0 -0 -1 -1 -1 -1 -1 -1
1 1 1 1 1 1 2 2 2 2 2 2 2 2 1 0 -1 -3 -4 -4 -5 -7 -8 -7 -6 -6 -4 -3 -2 -2 -1 -1 -1 -2 -3 -5 -4 -3
1 1 1 1 1 2 2 2 2 1 1 1 1 -0 -1 -3 -8 -9 -9 -10 -15 -18 -19 -20 -22 -24 -24 -23 -23 -23 -22 -21 -20 -21 -21 -22 -23 -23
1 1 1 2 2 2 2 1 1 1 0 -1 -1 -5 -12 -16 -18 -20 -20 -20 -23 -19 -19 -23 -25 -23 -25 -25 -26 -27 -27 -27 -27 -25 -24 -22 -22 -22
0 0 1 1 1 1 1 1 0 -1 -5 -16 -22 -25 -23 -22 -23 -25 -26 -25 -25 -25 -25 -25 -22 -22 -20 -18 -18 -18 -18 -18 -18 -18 -18 -17 -16 -15
-0 0 0 -0 -1 -2 -6 -11 -20 -29 -31 -31 -30 -26 -24 -26 -27 -28 -29 -27 -25 -21 -19 -19 -17 -16 -16 -16 -15 -15 -15 -15 -15 -14 -14 -14 -14 -14
-0 -1 -2 -8 -17 -25 -26 -27 -28 -27 -28 -29 -28 -28 -29 -29 -26 -23 -23 -20 -19 -16 -16 -16 -17 -16 -16 -16 -15 -15 -14 -14 -14 -14 -13 -13 -13 -13
-13 -19 -24 -23 -24 -25 -30 -29 -26 -26 -26 -27 -29 -24 -21 -20 -19 -18 -18 -17 -17 -17 -16 -16 -16 -16 -15 -14 -13 -14 -14 -14 -13 -13 -13 -13 -12 -12
-24 -24 -25 -26 -27 -27 -31 -27 -25 -23 -24 -23 -19 -18 -18 -18 -18 -17 -17 -16 -16 -16 -16 -15 -16 -15 -15 -15 -14 -14 -14 -14 -13 -13 -13 -13 -13 -13
-24 -24 -24 -25 -26 -29 -30 -29 -25 -24 -22 -20 -18 -18 -18 -18 -17 -17 -17 -17 -16 -16 -15 -15 -15 -14 -15 -15 -14 -14 -13 -13 -12 -12 -11 -11 -10 -10
-25 -25 -24 -24 -25 -28 -29 -28 -27 -24 -23 -20 -19 -19 -19 -19 -19 -19 -20 -19 -19 -18 -17 -16 -15 -14 -14 -14 -13 -13 -13 -12 -11 -11 -10 -10 -10 -10
-28 -26 -25 -25 -25 -26 -27 -27 -26 -24 -22 -21 -19 -20 -20 -21 -21 -21 -21 -21 -21 -22 -21 -20 -17 -15 -14 -13 -12 -13 -12 -12 -11 -10 -11 -11 -11 -11
-23 -25 -27 -27 -26 -27 -26 -24 -24 -23 -23 -22 -21 -21 -22 -22 -21 -21 -20 -19 -20 -21 -21 -22 -21 -18 -16 -15 -15 -14 -13 -13 -12 -11 -12 -13 -13 -12
-21 -23 -23 -24 -25 -25 -25 -25 -24 -24 -24 -24 -24 -24 -24 -23 -22 -20 -18 -18 -19 -20 -20 -20 -20 -20 -19 -17 -17 -16 -15 -14 -13 -12 -12 -13 -14 -13
-24 -26 -26 -26 -26 -26 -27 -26 -26 -25 -24 -26 -26 -25 -25 -24 -22 -19 -18 -18 -18 -19 -19 -19 -18 -18 -17 -16 -15 -15 -14 -13 -13 -12 -12 -12 -12 -12
-26 -28 -28 -28 -28 -28 -28 -27 -27 -26 -26 -26 -26 -27 -26 -25 -23 -21 -18 -18 -17 -18 -18 -18 -18 -17 -15 -14 -14 -14 -13 -12 -12 -12 -12 -11 -11 -11
-21 -23 -25 -27 -28 -28 -28 -27 -26 -25 -25 -25 -26 -26 -26 -26 -25 -24 -20 -19 -18 -16 -15 -15 -17 -15 -15 -14 -14 -15 -14 -13 -12 -12 -11 -11 -11 -11
-17 -18 -20 -21 -22 -24 -26 -26 -25 -25 -25 -25 -26 -26 -26 -26 -26 -25 -23 -20 -18 -13 -13 -15 -18 -18 -16 -15 -15 -15 -15 -14 -12 -11 -10 -10 -11 -11
-12 -14 -15 -15 -16 -18 -19 -20 -20 -20 -21 -23 -25 -26 -25 -25 -26 -26 -25 -22 -19 -12 -13 -14 -17 -19 -19 -17 -16 -16 -15 -14 -12 -10 -11 -11 -11 -11

GFSNE_850_dewp_096.txt.gz
Dewpoint
-1 -0 -0 -0 2 4 8 8 8 8 8 8 7 7 6 5 4 3 3 1 1 2 2 1 3 3 4 5 6 6 7 7 7 6 6 6 5 4
-1 -1 -1 -0 3 4 5 7 7 7 8 7 6 6 5 4 3 3 2 1 1 2 1 2 2 3 4 5 6 7 6 6 5 5 5 5 4 3
-2 -1 -1 -0 4 4 6 6 7 7 6 6 6 5 4 3 2 3 1 1 1 1 1 1 1 2 2 4 4 4 4 5 5 5 4 4 2 1
-1 -1 -1 0 2 5 4 5 5 5 5 5 5 4 3 2 2 2 1 0 0 1 1 -0 0 1 2 2 2 2 3 3 3 3 2 1 0 -0
-1 0 1 1 2 3 4 4 4 4 5 4 3 3 2 2 2 1 -0 -1 -0 0 -0 -0 -1 -0 0 0 0 1 1 1 1 0 -0 -1 -1 -1
0 1 1 1 1 2 3 3 2 2 2 2 2 2 2 2 1 -0 -2 -4 -4 -5 -7 -7 -6 -6 -5 -3 -2 -1 -1 -1 -1 -1 -1 -1 -2 -3
1 1 1 1 1 1 1 2 2 2 2 2 2 1 1 1 -1 -3 -6 -8 -11 -16 -19 -20 -21 -22 -23 -23 -22 -20 -17 -13 -9 -9 -11 -13 -16 -18
1 1 1 0 0 1 2 2 2 2 1 1 1 -0 -1 -2 -7 -11 -12 -16 -20 -22 -20 -21 -24 -25 -25 -26 -27 -28 -28 -28 -28 -27 -27 -27 -26 -25
0 0 -0 0 0 1 1 1 1 1 1 -1 -2 -6 -12 -16 -16 -20 -21 -24 -25 -24 -22 -26 -25 -23 -22 -20 -20 -20 -20 -20 -21 -21 -21 -19 -19 -18
-0 -0 -0 0 0 0 1 1 0 -1 -3 -12 -19 -19 -22 -20 -22 -23 -27 -27 -25 -24 -23 -22 -20 -18 -17 -17 -17 -16 -16 -16 -16 -15 -15 -14 -14 -14
-1 -0 -0 -0 -1 -2 -8 -17 -21 -26 -28 -28 -29 -27 -24 -26 -26 -27 -26 -25 -23 -18 -17 -17 -17 -17 -16 -16 -16 -16 -15 -14 -14 -14 -14 -14 -14 -14
-1 -1 -3 -9 -17 -22 -24 -24 -23 -25 -25 -27 -29 -30 -29 -26 -22 -21 -20 -19 -18 -18 -17 -17 -17 -16 -16 -16 -15 -14 -14 -15 -14 -14 -14 -14 -14 -14
-15 -20 -23 -22 -24 -21 -24 -28 -24 -23 -24 -25 -26 -23 -20 -19 -19 -18 -18 -18 -17 -17 -17 -16 -16 -16 -15 -15 -15 -15 -15 -14 -14 -14 -14 -14 -14 -14
-23 -21 -22 -22 -23 -26 -28 -29 -24 -23 -21 -23 -21 -19 -18 -18 -18 -17 -18 -17 -17 -17 -17 -16 -16 -15 -15 -15 -14 -14 -14 -14 -13 -13 -13 -12 -12 -12
-25 -23 -21 -22 -22 -25 -28 -29 -28 -24 -22 -21 -19 -18 -18 -17 -18 -18 -19 -19 -20 -20 -20 -19 -17 -16 -16 -15 -14 -13 -13 -12 -12 -12 -12 -11 -11 -11
-28 -26 -23 -23 -23 -24 -25 -28 -27 -25 -23 -22 -20 -18 -18 -18 -19 -19 -21 -21 -20 -21 -21 -22 -21 -20 -18 -16 -15 -14 -13 -12 -12 -11 -11 -11 -11 -11
-22 -24 -25 -26 -25 -25 -25 -25 -25 -25 -24 -22 -21 -20 -19 -19 -20 -21 -21 -20 -19 -20 -21 -21 -21 -21 -21 -19 -18 -17 -15 -14 -14 -13 -14 -14 -13 -13
-20 -21 -22 -24 -25 -25 -25 -25 -24 -23 -22 -22 -22 -21 -21 -21 -22 -22 -21 -19 -18 -19 -20 -20 -20 -19 -19 -18 -18 -17 -16 -16 -14 -14 -14 -14 -14 -14
-23 -25 -24 -23 -24 -23 -24 -24 -24 -24 -23 -22 -23 -23 -23 -23 -23 -23 -22 -20 -17 -17 -19 -19 -19 -19 -18 -17 -16 -16 -16 -15 -14 -13 -12 -13 -13 -13
-24 -25 -26 -26 -25 -25 -26 -26 -26 -26 -25 -24 -24 -24 -25 -25 -25 -25 -24 -21 -19 -18 -18 -18 -17 -18 -18 -17 -15 -15 -15 -14 -13 -13 -13 -12 -12 -12
-20 -21 -21 -22 -23 -25 -25 -26 -26 -26 -25 -24 -24 -24 -25 -25 -26 -26 -25 -24 -22 -19 -17 -15 -14 -16 -16 -16 -15 -15 -16 -15 -14 -13 -13 -12 -11 -11
-16 -17 -18 -17 -18 -19 -21 -22 -24 -25 -25 -23 -23 -24 -24 -23 -24 -25 -25 -25 -24 -23 -19 -17 -15 -16 -17 -17 -17 -18 -18 -17 -15 -14 -13 -11 -11 -10
-4 -6 -7 -6 -10 -14 -15 -16 -18 -20 -22 -22 -22 -23 -23 -24 -23 -23 -24 -24 -25 -24 -23 -19 -14 -15 -15 -17 -17 -17 -17 -17 -17 -16 -14 -11 -10 -11

GFSNE_850_dewp_099.txt.gz
Dewpoint
-1 -1 -1 0 1 1 3 8 8 8 8 7 7 7 7 7 6 5 4 3 1 1 1 2 3 3 4 5 6 4 6 7 8 6 7 6 6 5
-1 -1 -1 -0 -0 -0 5 7 7 7 5 7 7 7 6 6 5 4 3 3 1 1 2 1 2 3 4 5 5 6 7 7 7 6 6 6 6 5
-1 -1 -1 -1 -1 -0 4 6 6 6 6 6 6 6 5 5 4 3 3 2 1 1 1 1 1 2 3 4 4 6 6 6 5 5 5 5 4 3
-1 -1 -1 -1 0 1 3 4 4 5 5 6 6 5 5 4 3 2 2 1 1 0 0 0 1 1 2 3 3 3 3 3 3 4 4 4 3 2
-1 -0 -0 0 0 1 1 3 3 3 4 4 4 4 4 3 2 2 2 1 -0 0 0 0 -0 -0 1 1 2 2 2 1 1 2 1 1 0 -0
-1 -0 0 1 1 2 2 2 3 3 3 3 3 3 2 2 2 2 1 -0 -2 -2 -2 -3 -4 -4 -4 -2 -1 -1 -0 0 1 1 0 -1 -1 -1
-0 0 1 1 1 0 1 1 2 2 2 2 2 2 2 2 2 1 -0 -3 -6 -8 -12 -17 -20 -20 -21 -20 -14 -9 -5 -3 -2 -1 -2 -2 -3 -4
0 1 1 1 0 -0 -0 0 1 2 2 2 2 2 2 1 1 -0 -3 -8 -10 -15 -19 -20 -21 -23 -25 -26 -27 -28 -28 -28 -28 -28 -26 -27 -27 -28
0 -0 0 -0 -0 -1 -0 1 1 2 1 1 1 1 -0 -1 -2 -5 -11 -13 -17 -21 -21 -21 -26 -26 -25 -24 -24 -26 -25 -25 -27 -27 -28 -26 -24 -23
-0 -0 -0 -0 -0 -0 -0 1 1 1 1 0 -1 -2 -7 -11 -14 -15 -18 -20 -21 -23 -24 -25 -24 -22 -21 -19 -18 -18 -17 -18 -19 -19 -18 -17 -16 -16
-1 -1 -1 -1 -0 -0 -1 -2 -2 -1 -3 -8 -15 -23 -17 -20 -19 -20 -24 -25 -25 -23 -21 -19 -19 -18 -17 -17 -17 -17 -15 -16 -16 -16 -15 -15 -15 -15
-1 -1 -1 -1 -2 -6 -13 -17 -20 -22 -24 -24 -27 -27 -24 -24 -27 -25 -24 -24 -22 -20 -18 -17 -18 -18 -17 -18 -17 -16 -16 -16 -15 -15 -15 -15 -14 -14
-3 -4 -8 -14 -19 -20 -19 -21 -23 -22 -22 -23 -25 -26 -26 -24 -22 -20 -19 -18 -18 -18 -18 -17 -17 -17 -17 -17 -16 -15 -14 -15 -15 -15 -15 -14 -14 -14
-22 -22 -21 -20 -21 -21 -23 -24 -24 -24 -21 -21 -23 -23 -19 -18 -17 -17 -17 -17 -17 -17 -17 -17 -17 -17 -16 -15 -15 -16 -15 -15 -15 -15 -15 -14 -14 -14
-24 -25 -21 -19 -20 -21 -23 -26 -27 -25 -21 -20 -21 -19 -17 -16 -17 -17 -17 -17 -17 -18 -19 -20 -19 -19 -17 -16 -15 -15 -14 -14 -14 -14 -14 -13 -12 -12
-22 -26 -24 -20 -20 -21 -22 -24 -27 -25 -23 -21 -20 -17 -16 -17 -17 -17 -18 -19 -20 -21 -20 -20 -20 -21 -21 -19 -17 -16 -14 -13 -13 -13 -13 -13 -12 -12
-18 -20 -22 -21 -22 -22 -22 -22 -23 -24 -24 -23 -22 -21 -18 -17 -18 -18 -19 -20 -20 -20 -18 -19 -19 -20 -20 -21 -20 -19 -17 -16 -15 -14 -15 -15 -14 -14
-18 -19 -18 -20 -23 -24 -24 -23 -23 -24 -24 -22 -22 -22 -20 -19 -19 -19 -21 -21 -21 -19 -18 -18 -19 -19 -18 -17 -16 -17 -17 -17 -16 -16 -15 -15 -15 -14
-19 -23 -24 -22 -21 -19 -20 -21 -23 -23 -22 -22 -22 -21 -22 -22 -20 -21 -22 -22 -22 -20 -18 -17 -17 -17 -17 -15 -15 -16 -16 -16 -16 -15 -15 -15 -15 -14
-21 -24 -25 -24 -24 -23 -22 -23 -22 -22 -23 -24 -23 -23 -22 -22 -22 -23 -23 -23 -23 -22 -19 -17 -16 -15 -15 -15 -16 -15 -16 -16 -15 -15 -14 -14 -14 -14
-16 -19 -21 -22 -21 -20 -21 -22 -22 -23 -23 -24 -25 -25 -24 -23 -23 -24 -24 -24 -23 -23 -23 -20 -17 -17 -15 -14 -12 -12 -13 -15 -16 -16 -15 -15 -15 -15
-3 -5 -8 -14 -16 -17 -17 -17 -18 -20 -22 -24 -25 -25 -24 -23 -23 -23 -23 -23 -23 -24 -24 -24 -21 -18 -16 -13 -12 -12 -12 -15 -17 -17 -17 -16 -15 -14
-2 -2 -2 -2 -3 -10 -14 -13 -10 -14 -16 -18 -21 -23 -24 -23 -21 -20 -20 -21 -21 -22 -23 -24 -23 -20 -19 -16 -13 -12 -12 -12 -14 -14 -14 -15 -15 -14

GFSNE_850_dewp_102.txt.gz
Dewpoint
-3 -2 -2 -2 -1 -0 2 2 3 6 7 7 8 8 7 7 6 6 6 5 4 2 1 1 1 3 3 4 5 4 5 6 7 7 6 6 6 6
-1 -1 -1 -1 -1 -1 -1 1 3 6 6 6 6 5 6 6 6 5 5 4 3 2 1 2 2 2 3 5 5 6 7 7 7 7 6 6 6 5
1 -0 -1 -1 -1 -0 -0 -0 2 5 6 6 5 6 6 6 5 5 4 3 2 1 1 1 1 2 3 4 5 6 6 6 7 7 6 6 6 5
-0 -0 -0 -1 -0 -0 0 1 3 4 4 5 5 5 5 5 5 4 3 2 2 1 0 0 0 1 2 3 3 5 5 5 5 5 5 5 5 4
-0 -0 -0 -0 -0 0 1 1 2 3 3 3 3 4 4 4 4 3 2 2 2 0 -0 0 -0 -1 0 2 2 2 3 2 2 2 2 2 3 1
-0 -0 -1 -0 0 0 1 1 2 2 2 2 2 3 3 3 2 2 2 1 1 -0 -1 -1 -1 -2 -3 0 1 2 2 2 2 1 1 0 1 0
-0 -0 -0 -0 0 0 0 0 0 1 1 2 1 1 1 1 1 1 1 1 -0 -2 -4 -6 -10 -12 -12 -10 -5 -3 -1 -1 -0 -0 0 -0 -1 -1
0 -0 -0 0 0 0 -0 -0 -0 1 1 1 1 1 1 1 1 1 1 1 -2 -6 -9 -15 -19 -20 -21 -24 -24 -25 -20 -14 -8 -5 -3 -2 -4 -6
0 0 0 0 0 0 0 -0 -0 0 1 1 1 1 1 1 1 1 0 -2 -6 -11 -21 -19 -20 -22 -24 -23 -25 -27 -29 -29 -29 -29 -30 -30 -30 -29
-0 -0 -0 -0 -0 -0 -0 -0 0 0 0 1 1 1 0 -1 -3 -2 -5 -9 -13 -17 -21 -22 -24 -24 -22 -20 -20 -20 -20 -21 -22 -23 -24 -22 -21 -20
-1 -1 -1 -1 -0 -0 -0 -1 -1 -0 0 -0 -0 -1 -3 -8 -10 -13 -16 -18 -20 -22 -23 -23 -22 -21 -18 -18 -18 -18 -17 -17 -17 -17 -16 -16 -15 -15
-1 -1 -1 -1 -1 -1 -3 -5 -8 -13 -20 -23 -25 -24 -22 -19 -17 -19 -21 -23 -24 -24 -22 -18 -18 -18 -17 -17 -17 -17 -17 -17 -15 -15 -15 -15 -15 -15
-2 -2 -2 -3 -7 -13 -19 -19 -20 -21 -20 -20 -20 -22 -22 -21 -23 -25 -23 -23 -22 -20 -17 -17 -18 -17 -18 -17 -18 -17 -17 -16 -16 -16 -15 -15 -15 -15
-8 -17 -19 -19 -20 -20 -21 -20 -21 -24 -21 -20 -21 -23 -24 -23 -20 -20 -19 -18 -18 -18 -17 -17 -17 -17 -17 -17 -16 -17 -16 -16 -16 -16 -16 -16 -16 -15
-13 -19 -24 -22 -19 -19 -21 -20 -22 -26 -22 -20 -19 -21 -18 -17 -17 -17 -17 -17 -17 -17 -17 -17 -18 -18 -17 -17 -17 -17 -16 -16 -16 -15 -15 -15 -15 -14
-8 -17 -22 -24 -21 -20 -20 -20 -22 -25 -22 -20 -18 -17 -17 -16 -16 -16 -16 -17 -17 -18 -19 -19 -19 -20 -20 -20 -20 -20 -18 -16 -16 -15 -15 -15 -14 -14
-7 -15 -17 -20 -22 -21 -22 -21 -21 -22 -24 -22 -19 -19 -18 -16 -16 -16 -17 -17 -18 -19 -20 -20 -17 -17 -18 -19 -19 -20 -20 -19 -18 -16 -16 -16 -15 -14
-7 -16 -19 -18 -20 -22 -23 -22 -22 -22 -22 -22 -22 -21 -19 -19 -18 -17 -17 -18 -19 -20 -20 -19 -17 -17 -17 -16 -14 -14 -15 -17 -18 -18 -18 -17 -16 -15
-9 -18 -21 -22 -21 -21 -20 -18 -19 -19 -21 -21 -22 -21 -20 -20 -19 -19 -18 -18 -19 -20 -21 -20 -17 -16 -17 -15 -14 -13 -13 -15 -16 -16 -16 -16 -16 -15
-4 -13 -19 -22 -23 -22 -21 -21 -21 -21 -20 -21 -22 -22 -22 -21 -20 -21 -21 -21 -21 -22 -22 -21 -19 -17 -16 -15 -15 -13 -13 -13 -15 -16 -16 -16 -16 -16
-2 -6 -13 -17 -18 -20 -20 -19 -19 -20 -20 -21 -23 -23 -23 -23 -23 -22 -22 -22 -22 -22 -24 -25 -24 -19 -17 -16 -15 -14 -13 -12 -12 -14 -15 -16 -16 -16
-2 -2 -2 -2 -2 -4 -9 -14 -16 -17 -17 -18 -21 -22 -22 -22 -23 -23 -23 -22 -22 -23 -24 -24 -24 -21 -20 -19 -18 -17 -15 -12 -13 -14 -15 -15 -15 -16
-2 -2 -2 -2 -2 -2 -2 -2 -3 -8 -13 -13 -14 -16 -18 -19 -21 -22 -22 -21 -20 -20 -21 -22 -22 -21 -21 -21 -21 -20 -18 -14 -12 -12 -13 -14 -12 -10

GFSNE_850_dewp_105.txt.gz
Dewpoint
-1 -2 -2 -2 -2 -1 -1 1 3 5 5 4 6 5 6 7 7 6 6 6 5 4 4 1 1 1 3 4 5 3 5 5 5 5 8 7 6 6
-1 0 2 1 0 -1 -1 -0 0 3 6 5 5 5 6 4 6 6 5 5 4 4 3 1 1 2 3 5 6 6 5 6 7 7 7 6 6 6
3 3 1 -0 -0 -0 -0 -0 0 2 5 5 5 4 5 4 5 5 5 4 4 3 2 1 1 2 2 4 5 7 7 7 7 7 6 6 6 6
1 -0 -0 -0 -0 -0 -0 0 0 3 4 4 4 4 4 5 5 4 4 4 3 2 1 0 0 1 2 3 5 5 6 6 7 7 7 6 6 6
-0 -0 -0 -0 -0 -0 -0 0 1 1 3 3 3 3 3 4 4 4 3 3 2 1 0 -0 -0 -0 -0 2 2 3 4 5 4 5 5 5 5 4
-0 -0 -0 -0 -0 -0 0 0 1 1 2 2 2 2 2 3 3 3 2 2 1 1 0 -1 -1 -1 -2 -1 2 2 2 2 2 2 1 1 1 1
-0 -0 -0 -0 -0 -0 0 0 0 0 0 1 1 1 2 2 2 2 1 1 1 0 -1 -2 -3 -4 -6 -6 -2 1 1 1 1 1 1 1 1 0
-0 -0 0 0 0 0 0 -0 -0 -0 0 0 1 1 1 1 1 1 1 0 -0 -0 -3 -6 -9 -15 -20 -21 -19 -10 -5 -3 -2 -1 -1 -0 -0 -1
-1 -0 0 0 -0 -0 -0 -0 -0 -1 -0 0 0 1 1 1 0 0 -0 -0 0 -2 -12 -11 -15 -18 -20 -22 -24 -26 -27 -27 -24 -18 -12 -8 -6 -7
-0 -0 -0 -0 -0 -0 -0 -0 -0 -0 -0 0 1 1 1 1 0 -0 -0 -0 -1 -5 -9 -19 -21 -20 -23 -22 -23 -24 -26 -27 -27 -28 -29 -30 -29 -27
-1 -1 -1 -0 -0 -0 -0 -0 -1 -1 -0 0 0 0 0 -0 -3 -4 -5 -5 -9 -13 -17 -20 -23 -24 -22 -19 -19 -18 -18 -18 -20 -20 -20 -20 -20 -18
-1 -1 -1 -1 -1 -1 -1 -2 -4 -6 -9 -11 -11 -10 -8 -11 -9 -13 -13 -13 -15 -20 -23 -22 -20 -19 -18 -18 -17 -17 -16 -16 -16 -16 -16 -16 -16 -15
-1 -1 -2 -2 -1 -2 -6 -15 -17 -18 -18 -19 -20 -20 -20 -18 -17 -18 -17 -19 -21 -23 -19 -20 -18 -17 -18 -18 -18 -17 -17 -16 -16 -16 -15 -15 -15 -15
-2 -5 -13 -15 -16 -18 -20 -21 -20 -20 -21 -20 -20 -20 -21 -21 -22 -23 -23 -22 -22 -21 -19 -18 -17 -17 -17 -18 -17 -17 -17 -16 -16 -15 -15 -15 -16 -15
-1 -8 -15 -21 -21 -19 -18 -20 -20 -22 -23 -21 -19 -20 -21 -21 -19 -17 -18 -17 -17 -17 -17 -17 -17 -16 -17 -17 -17 -17 -17 -17 -16 -16 -16 -16 -16 -16
-1 -4 -11 -17 -23 -22 -19 -19 -20 -21 -23 -22 -19 -18 -20 -19 -17 -16 -16 -16 -16 -17 -17 -17 -18 -18 -18 -18 -17 -18 -18 -17 -17 -16 -16 -16 -15 -15
-2 -3 -7 -14 -17 -22 -19 -20 -20 -20 -22 -23 -21 -19 -18 -18 -17 -16 -16 -16 -16 -17 -18 -19 -19 -18 -16 -16 -16 -18 -18 -18 -18 -18 -17 -16 -16 -15
-2 -2 -4 -14 -18 -18 -20 -21 -21 -21 -21 -22 -22 -22 -21 -20 -20 -18 -16 -16 -17 -17 -18 -19 -20 -18 -16 -15 -14 -15 -14 -14 -15 -16 -17 -18 -18 -16
-2 -2 -6 -16 -19 -20 -19 -18 -18 -19 -20 -21 -22 -22 -22 -21 -21 -20 -19 -18 -18 -18 -18 -18 -20 -20 -18 -16 -14 -13 -12 -13 -13 -14 -15 -16 -16 -16
-2 -2 -3 -10 -18 -20 -20 -21 -20 -19 -18 -19 -20 -21 -21 -21 -21 -21 -20 -20 -20 -19 -19 -19 -19 -20 -20 -18 -16 -15 -14 -12 -13 -13 -14 -15 -15 -15
-2 -3 -2 -3 -10 -15 -16 -18 -18 -19 -19 -20 -20 -20 -20 -20 -22 -23 -23 -22 -21 -21 -21 -22 -23 -19 -18 -17 -17 -19 -17 -15 -13 -12 -12 -13 -13 -13
-2 -3 -3 -3 -3 -3 -3 -3 -3 -8 -14 -16 -17 -17 -18 -19 -20 -21 -22 -23 -23 -23 -23 -22 -21 -20 -21 -21 -22 -22 -21 -19 -17 -15 -12 -12 -12 -13
-2 -2 -2 -3 -3 -3 -3 -3 -3 -3 -3 -3 -5 -11 -13 -14 -14 -16 -18 -20 -21 -21 -21 -20 -20 -19 -20 -20 -21 -22 -23 -22 -21 -19 -16 -12 -12 -12

GFSNE_850_dewp_108.txt.gz
Dewpoint
3 -1 -1 -1 -1 -1 0 -0 1 5 4 6 4 3 5 5 6 6 6 6 6 6 5 4 3 1 1 3 5 5 4 4 2 4 7 8 8 7
1 -0 -1 1 2 2 0 -0 0 1 5 5 4 5 5 5 6 4 5 6 5 5 4 3 3 1 2 5 6 4 5 5 5 6 6 8 7 6
-0 0 2 2 1 -0 -0 -0 0 1 4 5 4 4 4 5 4 3 5 5 4 4 3 3 2 1 2 4 5 6 6 7 6 5 7 7 7 7
3 3 1 0 -0 -0 -0 -0 0 1 2 3 3 4 4 3 4 4 4 4 3 3 2 2 1 -0 2 3 4 5 6 7 8 7 7 7 7 7
1 0 -0 -0 -0 -0 -0 -0 0 1 1 3 3 3 3 2 2 3 4 3 3 2 2 1 0 -1 0 2 3 4 5 5 6 6 7 7 6 6
0 -0 -0 -0 -0 -0 -0 -0 0 0 0 1 1 1 2 2 2 3 3 2 2 2 1 1 -0 -1 -1 -2 1 2 3 4 4 4 4 4 5 5
-0 -0 -1 -1 -1 -0 -0 0 0 0 -0 0 1 1 1 1 2 2 2 2 1 1 1 0 -1 -2 -4 -5 -2 1 2 2 2 2 2 2 1 1
-0 -1 -1 -0 0 0 0 0 0 -0 -0 -0 0 1 1 1 1 1 1 1 1 0 0 -0 -3 -6 -12 -16 -15 -5 1 1 1 1 1 1 1 1
-1 -1 -1 -0 0 0 0 -0 -0 -0 -1 -0 0 0 1 1 1 1 1 0 0 -0 -2 -3 -6 -10 -17 -19 -21 -23 -21 -11 -6 -4 -3 -2 -1 -1
-1 -1 -0 0 0 0 -0 -0 -0 -0 -0 -0 0 1 1 1 1 0 -0 -0 -1 -1 -1 -9 -16 -18 -19 -21 -23 -24 -26 -27 -28 -28 -27 -22 -15 -13
-1 -1 -0 -0 -0 -0 -0 -0 -1 -1 -0 -0 -0 0 0 0 0 0 -1 -1 -1 -1 -4 -10 -18 -21 -22 -23 -22 -21 -20 -22 -24 -24 -26 -27 -27 -26
-1 -1 -1 -1 -1 -1 -1 -1 -1 -2 -3 -5 -5 -3 -2 -0 -0 -2 -5 -3 -3 -9 -15 -16 -21 -22 -22 -21 -19 -18 -18 -17 -17 -18 -19 -19 -19 -17
-1 -1 -1 -1 -1 -1 -1 -2 -7 -13 -15 -16 -18 -20 -20 -17 -15 -11 -12 -12 -12 -13 -22 -22 -22 -19 -18 -17 -18 -17 -16 -16 -16 -16 -16 -16 -15 -15
-1 -1 -3 -8 -8 -7 -12 -19 -21 -20 -20 -20 -19 -19 -20 -19 -18 -18 -17 -18 -19 -20 -22 -17 -19 -16 -17 -18 -18 -17 -17 -17 -17 -16 -16 -15 -15 -15
-1 -1 -4 -13 -19 -21 -20 -19 -21 -21 -22 -23 -20 -19 -20 -22 -22 -21 -22 -22 -20 -21 -20 -18 -17 -16 -16 -16 -16 -16 -17 -17 -17 -16 -16 -15 -16 -16
-1 -1 -2 -7 -15 -22 -22 -20 -19 -20 -20 -22 -21 -19 -18 -21 -19 -17 -17 -17 -16 -16 -16 -16 -16 -16 -16 -16 -16 -16 -16 -16 -16 -17 -16 -16 -16 -16
-1 -1 -1 -3 -10 -15 -21 -19 -19 -20 -20 -21 -20 -19 -18 -18 -18 -16 -16 -16 -16 -16 -16 -16 -17 -17 -18 -17 -16 -16 -16 -17 -17 -17 -17 -17 -16 -16
-1 -1 -2 -2 -6 -15 -17 -19 -20 -21 -20 -20 -19 -19 -19 -18 -18 -18 -16 -15 -15 -15 -16 -17 -18 -19 -19 -17 -14 -14 -15 -15 -15 -15 -15 -15 -15 -17
-1 -1 -2 -2 -6 -15 -18 -17 -17 -18 -20 -21 -21 -21 -21 -20 -19 -19 -18 -18 -17 -17 -16 -17 -17 -18 -19 -19 -17 -15 -14 -14 -13 -13 -13 -13 -13 -15
-1 -2 -2 -2 -4 -13 -18 -19 -19 -18 -18 -17 -18 -18 -18 -20 -21 -20 -20 -19 -19 -19 -18 -18 -18 -18 -19 -20 -20 -19 -16 -14 -13 -12 -13 -13 -13 -13
-1 -1 -2 -2 -3 -5 -11 -15 -16 -18 -18 -18 -18 -18 -19 -19 -20 -21 -21 -21 -21 -20 -21 -22 -22 -19 -17 -18 -20 -23 -22 -18 -16 -14 -13 -12 -12 -12
-1 -1 -2 -2 -3 -3 -3 -3 -3 -3 -5 -8 -13 -16 -16 -17 -17 -18 -19 -19 -21 -22 -23 -22 -21 -21 -20 -20 -21 -23 -23 -23 -21 -18 -16 -14 -13 -12
-2 -2 -2 -2 -3 -3 -3 -3 -3 -3 -3 -3 -3 -3 -4 -7 -11 -12 -13 -13 -15 -17 -19 -20 -20 -20 -20 -20 -20 -21 -22 -22 -23 -23 -22 -20 -18 -16

GFSNE_850_dewp_111.txt.gz
Dewpoint
11 10 9 5 -2 -1 -1 -0 2 6 4 5 6 6 3 4 5 5 5 6 6 6 5 5 4 3 2 1 4 5 5 3 -1 -2 2 5 7 8
9 8 1 -0 -0 -1 2 2 2 3 5 4 5 5 3 3 4 5 5 4 4 5 5 5 4 2 2 1 5 5 5 5 4 4 4 5 7 8
5 2 1 -0 0 2 2 1 1 4 4 4 4 4 4 3 3 5 4 4 4 4 4 4 2 2 1 1 4 5 6 6 5 5 6 7 8 8
4 1 0 2 2 1 -0 0 2 2 4 5 4 3 3 3 3 3 3 3 4 3 3 3 1 1 -0 1 3 5 6 7 7 6 7 8 7 7
1 3 3 1 0 -0 -0 0 1 2 2 3 2 2 2 2 2 2 1 2 3 3 2 2 1 1 -1 1 2 4 5 5 7 7 7 7 7 7
3 2 1 0 -0 -0 -0 -0 -0 0 1 2 1 1 1 1 2 1 1 2 2 2 2 1 1 1 -2 -1 1 2 3 4 4 5 6 6 6 6
1 0 -0 -0 -0 -0 -0 -0 0 1 1 1 0 0 0 1 1 1 2 2 2 2 1 1 0 -0 -3 -4 -4 -0 2 2 3 3 3 3 3 4
0 -0 -1 -1 -1 -0 -0 0 0 0 -0 -0 -0 -0 0 1 1 1 1 1 1 1 1 0 0 -1 -5 -10 -12 -6 -0 1 1 1 1 2 2 1
-0 -1 -1 -1 -1 -0 0 0 -0 -0 -0 -0 -1 -0 0 0 1 1 1 1 1 1 0 -0 -1 -2 -8 -14 -20 -22 -14 -2 1 1 1 1 0 0
-1 -1 -1 -1 -1 0 0 0 -0 -0 -1 -0 -0 -0 0 0 0 0 0 0 -0 -0 -0 -1 -3 -12 -14 -17 -20 -24 -25 -25 -19 -10 -6 -5 -4 -3
-1 -1 -1 -1 -0 -0 -0 -0 -0 -1 -1 -1 -0 -0 0 0 0 0 0 -0 -1 -1 -1 -1 -3 -13 -19 -20 -22 -23 -23 -28 -29 -29 -29 -29 -28 -24
-0 -0 -1 -1 -0 -0 -1 -1 -1 -1 -2 -3 -6 -4 -1 -0 0 -0 -0 -1 -2 -2 -3 -4 -10 -18 -22 -23 -21 -19 -20 -20 -20 -22 -23 -24 -25 -25
-0 -1 -1 -1 -1 -1 -1 -1 -2 -4 -9 -12 -13 -14 -18 -17 -7 -3 -4 -5 -5 -4 -13 -20 -18 -21 -21 -17 -20 -18 -18 -17 -18 -18 -18 -18 -18 -18
-1 -1 -1 -2 -3 -2 -2 -4 -12 -19 -19 -20 -19 -18 -19 -19 -18 -17 -14 -13 -13 -13 -14 -21 -20 -19 -18 -18 -17 -17 -17 -18 -18 -17 -17 -17 -16 -16
-1 -1 -1 -3 -11 -17 -19 -20 -20 -20 -20 -21 -22 -20 -19 -19 -20 -19 -19 -19 -20 -20 -20 -21 -17 -17 -16 -17 -16 -16 -16 -16 -17 -17 -17 -17 -17 -16
-1 -1 -1 -2 -4 -11 -18 -21 -21 -19 -19 -19 -21 -21 -19 -19 -21 -20 -19 -18 -19 -18 -19 -18 -17 -17 -16 -16 -15 -15 -16 -16 -15 -16 -16 -16 -16 -16
-1 -1 -1 -1 -2 -6 -13 -20 -21 -18 -19 -18 -20 -21 -20 -18 -18 -18 -17 -16 -16 -16 -16 -16 -16 -16 -16 -16 -16 -16 -16 -15 -15 -16 -16 -16 -16 -16
-1 -1 -1 -2 -2 -3 -9 -16 -19 -20 -20 -20 -19 -19 -20 -18 -18 -17 -17 -16 -16 -16 -16 -16 -17 -17 -18 -18 -18 -16 -15 -14 -15 -16 -15 -15 -14 -14
-1 -1 -1 -1 -2 -2 -7 -15 -18 -18 -18 -20 -20 -20 -20 -20 -20 -20 -19 -18 -18 -17 -16 -16 -16 -17 -17 -18 -19 -18 -16 -14 -14 -14 -14 -13 -13 -13
-1 -1 -1 -2 -2 -2 -6 -16 -19 -19 -19 -19 -18 -17 -17 -17 -19 -20 -21 -20 -19 -19 -19 -18 -18 -18 -18 -18 -18 -20 -20 -18 -15 -14 -13 -13 -13 -13
-0 -1 -1 -2 -2 -2 -3 -6 -12 -16 -17 -18 -19 -19 -19 -18 -19 -19 -19 -20 -20 -20 -21 -21 -21 -19 -18 -18 -18 -21 -21 -21 -21 -18 -15 -14 -13 -13
-1 -1 -2 -2 -2 -3 -3 -3 -3 -4 -5 -6 -6 -9 -13 -16 -17 -17 -17 -17 -18 -19 -21 -21 -20 -21 -20 -21 -22 -22 -22 -22 -21 -21 -21 -20 -17 -15
-1 -2 -2 -2 -2 -3 -3 -3 -3 -3 -3 -3 -4 -4 -4 -4 -4 -4 -8 -11 -13 -13 -14 -14 -16 -17 -18 -19 -20 -22 -21 -21 -22 -22 -23 -23 -22 -19

GFSNE_850_dewp_114.txt.gz
Dewpoint
11 11 11 11 10 9 2 -1 -1 2 3 4 6 6 5 5 4 4 4 5 4 5 5 5 5 4 4 2 1 2 4 4 3 1 -3 -2 4 6
12 11 10 10 9 1 -0 -1 1 2 4 3 4 5 5 3 2 2 3 4 4 3 3 4 4 4 2 1 1 3 5 4 5 4 -1 -0 3 6
10 10 9 7 0 1 -0 2 2 1 2 4 3 3 4 4 2 2 3 3 3 3 3 4 3 3 1 1 -0 3 5 6 5 5 4 3 5 7
10 9 3 2 1 1 2 2 0 1 2 2 2 3 4 3 1 3 2 2 2 2 3 3 3 1 1 0 -0 3 5 6 7 4 5 5 6 7
7 4 2 1 3 2 1 0 0 1 1 1 3 3 2 1 2 2 2 1 1 1 2 2 2 0 0 -1 0 3 5 5 7 6 7 8 8 5
4 1 3 3 2 1 -0 -0 -0 -0 -0 2 2 2 1 0 1 1 1 1 1 1 2 2 1 0 1 -3 -1 1 3 4 5 7 7 7 6 6
3 4 2 0 -0 -0 -1 -1 -1 -0 0 1 1 1 -0 -0 -0 1 1 1 1 1 2 1 0 -0 0 -4 -5 -3 1 3 4 4 5 5 5 5
3 1 0 -0 -0 -1 -1 -0 -0 0 0 0 0 -0 -1 -0 0 0 1 1 1 0 1 0 0 -0 0 -5 -10 -10 -2 1 2 3 3 3 3 3
0 0 -0 -1 -1 -1 -1 -0 0 0 -0 -0 -0 -1 -1 0 0 0 1 1 0 0 1 0 -0 -0 -1 -6 -13 -20 -20 -6 1 1 1 2 2 2
0 0 -1 -1 -1 -1 -1 -0 -0 -0 -0 -1 -1 -0 -0 -0 0 0 0 0 0 0 -0 -0 -1 -1 -8 -12 -15 -20 -22 -23 -17 -3 -0 0 1 1
0 -1 -1 -0 -1 -1 -1 -0 -0 -0 -1 -1 -1 -1 -1 -1 -0 -0 0 0 0 -0 -1 -1 -2 -2 -8 -19 -20 -21 -24 -26 -26 -26 -20 -15 -9 -6
-1 -0 -0 -0 -1 -1 -0 -1 -0 -1 -1 -1 -2 -3 -3 -1 -1 -0 -0 -0 -1 -2 -2 -2 -2 -3 -19 -22 -23 -23 -22 -23 -25 -26 -28 -28 -27 -27
0 -0 -0 -1 -1 -1 -1 -1 -1 -1 -2 -5 -8 -10 -10 -13 -11 -2 -1 -1 -1 -2 -5 -16 -13 -14 -18 -21 -22 -22 -20 -19 -18 -18 -20 -21 -23 -24
-0 -0 -1 -1 -2 -2 -3 -3 -2 -4 -12 -19 -20 -19 -18 -19 -19 -18 -14 -10 -8 -6 -6 -8 -18 -20 -21 -21 -18 -18 -19 -17 -17 -17 -17 -18 -17 -18
-0 -1 -1 -1 -2 -4 -11 -16 -18 -19 -20 -20 -20 -21 -21 -19 -19 -19 -17 -16 -15 -14 -14 -15 -19 -18 -18 -17 -17 -17 -17 -17 -17 -17 -17 -17 -17 -17
-0 -1 -1 -1 -2 -2 -5 -12 -18 -21 -21 -19 -19 -21 -22 -19 -18 -20 -20 -20 -20 -20 -20 -20 -20 -20 -17 -16 -16 -16 -15 -15 -15 -16 -16 -17 -17 -17
1 -0 -1 -1 -1 -2 -2 -8 -16 -21 -20 -18 -19 -19 -20 -19 -18 -18 -19 -17 -16 -17 -16 -16 -16 -16 -16 -17 -16 -16 -16 -16 -15 -15 -15 -15 -16 -16
1 0 -1 -1 -1 -2 -2 -3 -11 -17 -19 -18 -19 -19 -18 -19 -18 -18 -17 -17 -16 -16 -16 -16 -16 -16 -16 -17 -17 -17 -17 -15 -15 -15 -15 -15 -15 -15
1 -0 -0 -1 -1 -2 -2 -2 -5 -16 -16 -18 -19 -20 -19 -19 -19 -20 -20 -18 -18 -17 -16 -15 -15 -15 -16 -18 -18 -18 -18 -17 -15 -14 -14 -14 -13 -14
0 -0 -1 -1 -1 -2 -2 -2 -8 -16 -18 -18 -17 -17 -17 -17 -17 -18 -19 -20 -20 -19 -18 -19 -18 -18 -18 -17 -17 -18 -18 -19 -19 -18 -15 -14 -14 -13
0 -0 -1 -1 -1 -2 -2 -2 -3 -7 -13 -16 -18 -19 -18 -18 -18 -18 -18 -18 -18 -19 -20 -21 -20 -18 -18 -18 -19 -21 -21 -19 -19 -20 -21 -19 -16 -15
-1 -1 -1 -1 -2 -2 -2 -2 -3 -3 -3 -5 -8 -9 -8 -10 -13 -16 -16 -16 -16 -16 -17 -17 -16 -17 -18 -20 -22 -23 -23 -22 -21 -20 -20 -21 -20 -19
-1 -1 -2 -2 -2 -2 -3 -3 -3 -3 -3 -4 -4 -4 -4 -4 -4 -4 -4 -4 -4 -6 -9 -11 -11 -12 -13 -14 -15 -15 -16 -16 -16 -17 -20 -21 -21 -20

GFSNE_850_dewp_117.txt.gz
Dewpoint
10 10 10 11 11 11 10 9 6 0 1 2 4 4 5 5 6 4 2 2 3 3 5 4 3 3 4 4 2 1 0 1 2 4 2 2 -1 1
10 10 11 11 11 10 9 6 -0 0 1 4 4 5 5 5 4 3 2 2 3 3 3 2 2 3 3 3 1 0 0 3 3 5 3 4 -2 -1
11 10 11 11 10 9 4 0 0 2 3 3 3 3 3 2 3 3 1 2 2 2 2 1 2 2 2 1 0 -1 3 3 5 6 4 4 0 2
10 11 10 10 9 2 1 1 2 2 1 1 2 1 1 2 2 2 1 2 2 1 1 1 1 2 1 0 0 -0 4 4 5 6 5 3 1 4
10 10 9 8 3 2 2 3 2 1 0 0 1 0 1 2 1 1 1 1 1 1 1 1 1 1 0 -0 -1 0 4 5 6 7 5 5 5 6
10 9 6 4 2 3 2 2 0 -0 0 0 0 0 0 1 0 -0 0 1 1 0 0 1 1 0 -0 -0 -1 -2 3 4 5 7 7 7 7 5
7 6 2 3 3 1 -0 -0 -1 -1 -1 -0 -0 0 1 1 -0 -0 -0 0 0 1 1 1 1 -0 -1 -0 -2 -5 -0 3 4 5 6 6 5 4
5 2 3 2 0 -0 -1 -1 -1 -1 -1 -0 -0 -0 -0 -1 -1 -0 -0 -0 1 0 -0 0 0 -0 -0 -0 -3 -10 -7 1 3 4 4 5 4 5
3 3 1 0 -0 -1 -1 -1 -1 -1 -1 -0 -0 -1 -1 -1 -1 -0 -0 0 0 0 -0 -0 -0 -1 -1 -2 -3 -11 -18 -6 2 2 3 3 3 3
2 1 0 0 -1 -1 -1 -1 -1 -1 -0 -0 -0 -1 -1 -0 -0 -0 0 0 0 0 0 -0 -1 -1 -1 -3 -13 -13 -19 -22 -8 1 2 2 2 2
1 0 0 -1 -1 -0 -1 -1 -1 -0 -0 -1 -1 -1 -1 -1 -1 -1 -0 -0 0 0 -0 -1 -1 -2 -2 -3 -16 -21 -21 -24 -25 -14 -1 0 1 1
1 0 -0 -0 -0 -0 -1 -1 -1 -1 -1 -1 -1 -2 -3 -3 -2 -1 -1 -0 -0 -1 -1 -2 -3 -3 -6 -21 -19 -21 -23 -23 -25 -28 -27 -18 -11 -6
1 -0 -0 -0 -1 -1 -1 -1 -1 -1 -1 -2 -3 -6 -8 -8 -9 -8 -2 -1 -1 -1 -2 -7 -15 -14 -8 -13 -19 -22 -21 -19 -19 -22 -23 -25 -27 -27
-0 -0 -0 -1 -1 -1 -2 -2 -2 -2 -2 -7 -14 -19 -20 -18 -18 -19 -18 -14 -8 -6 -8 -7 -6 -14 -19 -20 -20 -18 -21 -18 -17 -17 -17 -18 -20 -20
-0 -0 -0 -1 -1 -2 -3 -8 -11 -12 -15 -18 -19 -21 -23 -22 -20 -20 -19 -18 -17 -15 -14 -13 -11 -15 -18 -18 -18 -17 -17 -17 -18 -17 -16 -16 -16 -15
-0 -0 -1 -1 -1 -2 -2 -4 -10 -15 -18 -19 -19 -21 -21 -22 -22 -20 -20 -21 -21 -21 -20 -19 -18 -18 -20 -17 -17 -17 -17 -15 -15 -16 -17 -17 -17 -16
0 -0 0 -1 -1 -1 -2 -3 -5 -12 -19 -20 -19 -19 -20 -22 -21 -19 -19 -20 -19 -17 -17 -17 -17 -18 -18 -17 -18 -17 -16 -16 -16 -16 -15 -15 -16 -16
0 1 1 1 -1 -1 -2 -2 -2 -6 -15 -19 -17 -19 -21 -20 -20 -20 -19 -18 -18 -17 -16 -16 -15 -16 -16 -16 -17 -17 -17 -17 -17 -16 -15 -14 -14 -15
1 1 1 1 -0 -1 -2 -2 -2 -2 -11 -18 -19 -19 -21 -20 -19 -19 -19 -19 -19 -18 -17 -16 -15 -15 -15 -16 -17 -17 -18 -18 -18 -17 -15 -14 -14 -15
0 0 0 -0 -0 -1 -2 -2 -2 -3 -12 -19 -20 -19 -18 -18 -19 -19 -19 -19 -20 -19 -18 -19 -19 -18 -18 -17 -16 -18 -18 -18 -18 -19 -19 -17 -15 -14
-0 -0 0 -0 -1 -1 -2 -2 -2 -2 -4 -14 -18 -19 -18 -18 -18 -18 -17 -17 -17 -18 -19 -20 -19 -17 -18 -18 -19 -21 -21 -19 -20 -19 -19 -20 -21 -21
-0 -0 -0 -0 -1 -1 -2 -2 -2 -2 -3 -3 -7 -13 -15 -16 -16 -16 -16 -16 -16 -16 -16 -15 -15 -15 -17 -18 -20 -20 -21 -21 -20 -21 -21 -21 -20 -19
-0 -0 -1 -1 -1 -1 -2 -2 -2 -3 -3 -3 -3 -4 -4 -4 -4 -4 -4 -4 -4 -5 -5 -5 -6 -8 -11 -12 -11 -12 -13 -10 -7 -8 -10 -9 -10 -16

GFSNE_850_dewp_120.txt.gz
Dewpoint
9 9 9 10 10 10 11 11 10 9 8 2 3 3 3 4 4 3 3 2 1 1 3 4 3 2 2 2 3 2 1 0 -0 1 3 5 4 1
10 9 9 7 10 11 11 10 10 9 1 1 2 3 3 4 4 3 1 2 1 2 2 2 2 2 2 2 2 1 -0 0 2 3 5 4 3 5
10 10 8 9 10 10 10 9 9 1 1 1 3 3 3 3 2 2 1 1 1 1 1 2 1 1 1 1 1 -0 -1 3 3 4 5 4 4 2
9 7 8 9 11 10 9 7 1 1 2 3 2 3 2 1 0 -0 0 0 0 1 1 1 1 0 0 0 -0 -0 0 4 4 4 5 4 3 2
8 9 9 10 10 9 6 2 1 3 2 2 1 1 1 0 -0 -0 -0 -1 0 1 1 0 0 0 0 -0 -0 -0 -0 4 5 6 6 6 4 3
10 10 10 10 9 5 4 2 3 2 1 0 -0 -0 -0 -0 -0 0 -1 -1 0 1 0 0 0 -0 -0 -0 -1 -1 -2 4 5 6 7 7 6 6
10 10 9 8 4 2 2 3 1 -0 -0 -1 -1 -0 -0 -0 0 -1 -1 -0 0 0 0 0 -0 -0 -1 -1 -1 -1 -5 3 4 5 6 6 5 4
9 9 6 4 3 3 2 -0 -0 -1 -1 -1 -1 -1 -0 -0 -1 -1 -0 -0 -0 0 -0 -0 -0 -1 -1 -1 -0 -1 -10 -1 3 4 5 5 6 5
8 6 4 3 3 1 -0 -0 -1 -1 -1 -1 -1 -1 -1 -1 -1 -1 -1 -1 -0 0 0 -0 -1 -1 -1 -1 -2 -4 -11 -12 2 3 4 4 4 5
4 2 3 3 1 -0 -0 -1 -1 -1 -1 -1 -0 -0 -1 -1 -1 -1 -1 -0 -0 0 0 -0 -0 -1 -1 -1 -2 -13 -13 -20 -10 2 3 3 3 4
3 4 2 0 0 -0 -1 -1 -1 -1 -0 -0 -1 -1 -1 -1 -1 -1 -1 -1 -0 0 0 -0 -1 -2 -2 -2 -3 -14 -21 -21 -23 -14 0 2 2 2
3 2 1 0 -0 -1 -0 -1 -1 -1 -1 -1 -1 -1 -1 -2 -2 -1 -1 -0 -1 -0 -0 -1 -4 -5 -4 -20 -20 -19 -21 -23 -25 -26 -17 -3 1 1
2 1 1 0 -0 -0 -1 -1 -1 -1 -1 -1 -1 -2 -2 -3 -5 -5 -4 -1 -1 -1 -1 -1 -4 -13 -13 -10 -18 -19 -22 -21 -20 -25 -27 -26 -19 -9
1 1 0 -0 -0 -1 -1 -1 -1 -1 -1 -2 -2 -6 -13 -18 -16 -16 -16 -15 -9 -3 -2 -4 -6 -6 -15 -20 -21 -19 -21 -20 -18 -18 -19 -21 -23 -26
1 0 -0 -0 -0 -1 -2 -2 -4 -5 -5 -7 -15 -19 -19 -21 -21 -19 -19 -18 -17 -16 -14 -14 -11 -10 -14 -18 -18 -17 -17 -17 -18 -18 -17 -17 -18 -19
1 0 0 -0 -1 -1 -2 -3 -4 -9 -12 -15 -18 -21 -21 -21 -21 -20 -20 -20 -20 -20 -19 -18 -17 -17 -17 -19 -18 -16 -17 -15 -15 -16 -17 -17 -17 -17
1 1 -0 -0 -1 -1 -2 -3 -3 -5 -8 -15 -20 -20 -19 -19 -22 -22 -19 -19 -20 -18 -17 -18 -18 -18 -19 -20 -19 -17 -16 -16 -15 -15 -14 -15 -16 -16
1 1 0 0 -0 -0 0 -2 -2 -2 -5 -14 -19 -17 -19 -20 -20 -20 -19 -18 -18 -18 -16 -16 -16 -16 -16 -16 -16 -16 -16 -16 -16 -16 -16 -15 -15 -15
0 1 0 0 1 1 0 -1 -1 -2 -3 -8 -17 -20 -19 -19 -20 -20 -19 -19 -18 -18 -17 -16 -15 -16 -16 -16 -16 -17 -17 -18 -18 -18 -17 -16 -14 -14
-0 0 0 0 0 -0 -0 -1 -2 -2 -2 -3 -15 -17 -18 -19 -20 -20 -20 -20 -20 -20 -19 -19 -19 -18 -18 -17 -17 -17 -17 -17 -18 -18 -19 -19 -18 -16
-0 0 -0 -0 -0 -0 -1 -1 -2 -2 -2 -6 -17 -19 -19 -18 -18 -18 -17 -17 -17 -17 -18 -19 -18 -19 -19 -19 -19 -20 -20 -20 -19 -20 -20 -20 -20 -20
-0 -0 -0 -1 -1 -1 -1 -1 -2 -2 -2 -3 -6 -12 -16 -17 -18 -18 -18 -18 -18 -17 -17 -16 -16 -17 -18 -19 -20 -19 -20 -19 -18 -19 -20 -21 -21 -21
-1 -1 -1 -1 -1 -1 -2 -1 -2 -2 -2 -2 -3 -3 -3 -5 -9 -7 -5 -4 -4 -5 -5 -6 -9 -12 -13 -13 -12 -11 -11 -10 -12 -11 -8 -6 -6 -8

GFSNE_850_dewp_123.txt.gz
Dewpoint
9 8 7 7 9 9 10 10 9 10 10 9 8 6 2 3 4 3 2 2 0 1 1 0 2 2 2 1 2 2 2 0 -1 -0 1 3 4 3
8 8 8 9 9 10 10 9 10 10 10 9 6 2 2 3 3 3 2 1 1 1 1 2 2 1 1 1 1 1 -0 -1 1 2 4 4 3 1
8 8 9 9 10 9 7 7 10 10 10 8 2 2 3 3 3 3 1 0 -1 -0 0 1 1 1 1 1 0 0 -1 0 3 4 4 4 4 2
9 9 10 9 10 10 10 9 10 10 5 1 2 3 3 3 2 1 -0 -1 -1 -1 -0 1 1 0 0 0 -0 -0 -1 2 4 4 5 5 3 1
9 9 9 8 8 9 9 10 9 5 1 2 3 2 2 1 1 -0 -1 -1 -1 -1 0 1 0 0 -0 -0 -0 -1 -2 2 4 5 6 5 4 2
10 9 9 9 9 8 9 9 4 2 2 3 2 1 0 0 -0 -0 -1 -0 -1 -1 -0 0 0 0 -0 -0 -1 -1 -2 1 4 5 6 5 5 6
10 10 10 9 10 9 8 4 3 2 2 1 -0 -0 -0 -1 -1 -1 -0 -1 -1 -0 -0 -0 -0 -0 -1 -1 -1 -1 -2 -1 4 5 5 5 5 6
9 10 10 9 9 8 4 2 2 1 0 -0 -1 -1 -1 -1 -1 -1 -1 -1 -1 -0 0 -0 -1 -1 -1 -1 -1 -1 -2 -7 3 4 5 5 5 5
9 9 9 8 6 4 3 3 1 -0 -1 -1 -1 -1 -1 -1 -1 -1 -1 -1 -1 -0 -0 -1 -1 -1 -1 -1 -1 -1 -6 -12 1 4 4 5 5 4
8 8 8 6 5 3 2 1 0 -1 -1 -1 -1 -1 -1 -1 -1 -1 -1 -1 -1 -1 -0 -0 -1 -1 -1 -1 -2 -1 -13 -14 -10 2 4 4 4 4
7 6 5 2 2 4 5 3 -0 -1 -1 -1 -1 -1 -1 -1 -1 -1 -1 -1 -1 -1 -0 -0 -0 -1 -3 -3 -2 -3 -16 -20 -21 -8 2 3 3 3
5 3 3 4 4 4 2 -0 -1 -1 -1 -1 -1 -1 -1 -1 -1 -1 -1 -1 -1 -1 -1 -1 -1 -3 -5 -16 -19 -14 -19 -21 -23 -24 -8 1 2 2
4 3 3 2 1 0 -0 -0 -0 -1 -1 -1 -1 -1 -1 -1 -2 -3 -3 -2 -1 -1 -1 -1 -1 -3 -11 -14 -14 -19 -20 -21 -22 -27 -26 -10 -0 1
3 3 2 1 0 0 -0 -0 -1 -1 -1 -1 -1 -1 -2 -3 -7 -10 -12 -11 -10 -3 -2 -2 -2 -5 -5 -17 -20 -20 -21 -19 -19 -20 -23 -26 -25 -14
2 1 1 1 0 -0 -0 -1 -1 -2 -2 -3 -3 -4 -9 -15 -18 -20 -20 -19 -18 -17 -15 -13 -13 -11 -8 -14 -18 -16 -16 -19 -18 -17 -17 -18 -20 -22
2 1 1 0 0 0 -0 -1 -2 -2 -4 -6 -8 -14 -18 -19 -21 -21 -21 -20 -20 -20 -19 -18 -16 -14 -13 -15 -18 -16 -16 -15 -16 -17 -17 -17 -18 -18
2 1 1 1 0 0 0 -1 -2 -2 -3 -6 -11 -15 -18 -20 -20 -21 -22 -21 -20 -20 -20 -20 -20 -19 -19 -19 -20 -17 -16 -16 -15 -14 -14 -15 -16 -16
1 1 1 1 1 1 -0 -1 -1 -2 -3 -5 -11 -17 -19 -19 -19 -20 -21 -19 -19 -19 -18 -16 -16 -16 -15 -16 -16 -16 -17 -16 -16 -16 -16 -16 -15 -15
1 1 1 1 1 0 -0 -1 -0 -1 -1 -3 -6 -15 -18 -16 -19 -19 -19 -19 -18 -17 -17 -16 -15 -15 -15 -15 -16 -16 -17 -18 -18 -18 -18 -17 -16 -15
-0 0 0 0 0 -0 -0 -0 -0 -1 -2 -2 -2 -8 -18 -18 -20 -20 -19 -18 -18 -17 -17 -17 -17 -16 -16 -16 -16 -16 -16 -16 -17 -18 -18 -18 -18 -18
-1 -1 -0 -0 -0 -0 -0 -0 -1 -1 -1 -2 -2 -4 -15 -18 -18 -19 -19 -19 -19 -19 -19 -20 -19 -19 -18 -19 -18 -18 -18 -18 -19 -19 -20 -20 -21 -21
-1 -1 -1 -1 -1 -1 -1 -1 -1 -1 -2 -2 -2 -9 -17 -18 -18 -18 -17 -17 -17 -16 -15 -16 -17 -18 -18 -18 -19 -19 -19 -19 -19 -20 -20 -21 -22 -23
-1 -1 -1 -1 -1 -1 -1 -1 -1 -1 -1 -2 -3 -5 -11 -13 -16 -17 -16 -16 -16 -16 -16 -15 -15 -15 -15 -15 -15 -15 -14 -12 -13 -10 -10 -11 -10 -8

GFSNE_850_dewp_126.txt.gz
Dewpoint
9 9 9 8 8 8 8 8 9 10 9 9 9 9 9 8 5 3 3 3 2 0 -1 -2 -0 0 1 1 0 1 0 -0 -1 -2 0 4 4 3
9 9 7 9 8 8 9 9 10 10 10 9 10 9 9 7 3 4 3 3 1 -1 -2 -1 0 1 1 0 0 0 -0 -1 -1 1 3 4 4 4
9 9 9 9 9 9 10 10 10 10 9 9 8 9 7 3 3 3 3 1 -0 -1 -1 -1 0 1 1 0 0 -0 -1 -2 2 3 3 4 4 4
9 8 8 8 9 9 9 9 10 8 9 9 9 7 2 3 3 3 2 1 -1 -1 -1 -1 -0 1 0 -0 -0 -0 -1 -2 3 4 5 5 5 3
7 9 8 9 9 9 9 9 10 9 9 9 6 2 2 3 3 2 1 -0 -0 -1 -1 -0 -0 -0 -0 -0 -0 -1 -1 -1 4 4 5 4 5 3
9 9 9 9 9 9 9 9 9 9 9 5 2 2 3 2 1 0 -0 -0 -0 -1 -1 -0 -0 0 0 -0 -1 -1 -1 -1 4 5 6 6 6 5
9 8 8 8 9 9 9 9 9 8 5 3 3 3 1 0 -1 -1 -1 -1 -1 -1 -1 -1 -0 -0 -1 -1 -1 -1 -1 -2 4 4 5 5 5 5
7 6 9 7 8 9 9 9 8 7 4 3 2 0 -0 -1 -1 -1 -1 -1 -1 -1 -1 -0 -0 -0 -1 -1 -1 -1 -1 -5 4 4 5 5 5 5
7 8 9 9 9 9 8 8 6 4 3 1 0 -0 -1 -1 -1 -1 -1 -1 -1 -1 -1 -1 -1 -1 -1 -1 -1 -1 -1 -7 -0 4 4 5 3 2
9 9 8 8 8 8 7 5 3 2 1 0 0 -1 -1 -1 -1 -1 -1 -1 -1 -1 -1 -1 -1 -1 -1 -1 -1 -2 -2 -11 -10 3 3 4 3 4
7 8 7 7 7 6 5 4 4 2 4 4 -1 -1 -1 -1 -1 -1 -1 -1 -1 -1 -1 -1 -1 -1 -2 -6 -5 -2 -4 -17 -16 -5 3 3 4 4
7 7 7 6 5 4 3 3 4 5 2 -1 -1 -1 -1 -1 -1 -1 -1 -1 -1 -1 -1 -1 -1 -1 -7 -11 -17 -18 -9 -20 -21 -21 -2 2 3 3
7 7 6 4 4 4 4 5 3 1 -0 -0 -1 -1 -1 -1 -1 -1 -2 -2 -2 -1 -1 -1 -1 -2 -3 -11 -16 -18 -20 -21 -23 -24 -23 -4 1 2
6 5 5 4 4 4 3 3 3 -0 -0 -1 -1 -1 -1 -1 -1 -2 -3 -5 -6 -4 -2 -2 -2 -2 -4 -5 -19 -21 -21 -22 -22 -23 -26 -20 -6 0
5 5 4 3 3 2 1 1 0 1 -0 -1 -2 -2 -2 -2 -3 -7 -13 -17 -17 -16 -15 -12 -8 -9 -10 -8 -18 -19 -17 -21 -19 -19 -21 -25 -27 -21
3 3 3 2 2 1 1 1 1 0 -1 -1 -2 -3 -3 -6 -12 -16 -18 -20 -20 -19 -19 -17 -16 -15 -14 -12 -17 -18 -17 -16 -19 -19 -18 -18 -19 -21
2 2 2 1 1 1 1 0 0 1 -0 -2 -3 -5 -8 -13 -16 -18 -20 -21 -21 -20 -20 -20 -19 -19 -17 -17 -18 -18 -16 -16 -15 -16 -16 -17 -18 -17
1 1 2 1 1 1 1 1 1 -0 -1 -0 -4 -7 -10 -13 -17 -18 -19 -20 -21 -20 -20 -19 -19 -19 -19 -19 -20 -20 -18 -16 -16 -16 -15 -14 -14 -14
0 1 1 1 1 1 1 0 0 1 -0 -1 -2 -5 -7 -10 -17 -18 -19 -20 -19 -19 -18 -18 -17 -17 -17 -16 -15 -16 -16 -16 -16 -16 -16 -16 -16 -15
-1 -0 0 0 1 1 1 0 -0 -0 -1 -1 -2 -4 -3 -13 -17 -17 -17 -18 -18 -18 -17 -18 -18 -17 -16 -15 -15 -16 -16 -17 -17 -18 -18 -18 -18 -18
-1 -1 -1 -0 -1 -0 -0 -0 -0 -1 -1 -1 -2 -3 -3 -9 -15 -16 -18 -17 -17 -17 -19 -20 -18 -17 -17 -17 -16 -16 -15 -16 -17 -17 -18 -19 -20 -20
-2 -2 -1 -1 -1 -1 -1 -1 -1 -1 -1 -1 -2 -2 -3 -4 -8 -17 -18 -19 -19 -20 -19 -19 -20 -20 -19 -19 -18 -18 -18 -18 -19 -21 -21 -22 -21 -23
-2 -2 -2 -2 -2 -2 -2 -2 -2 -2 -2 -1 -2 -2 -3 -4 -13 -15 -16 -17 -17 -16 -16 -16 -16 -17 -16 -16 -16 -17 -16 -15 -16 -15 -14 -12 -11 -11

GFSNE_850_dewp_129.txt.gz
Dewpoint
6 7 7 9 10 9 9 8 9 10 9 8 9 9 9 9 9 8 9 5 3 3 2 -1 -2 -2 -1 -0 0 -0 0 -0 -1 -2 -1 2 3 2
7 7 8 9 9 9 9 8 8 8 10 9 9 10 9 9 9 9 7 3 3 3 -0 -2 -2 -2 -1 0 0 -0 -0 -1 -2 2 2 3 3 2
7 8 8 8 9 9 9 9 9 9 10 10 10 10 9 9 9 8 4 3 3 2 -1 -2 -2 -1 -0 1 -0 -0 -1 -1 0 3 5 4 3 3
8 8 8 9 9 9 9 8 9 9 10 10 9 9 9 9 8 5 3 4 3 1 -1 -2 -1 -1 0 -0 -0 -0 -1 -2 3 4 5 5 4 2
5 8 8 9 9 8 8 9 10 10 9 9 9 9 9 8 5 3 4 3 2 -0 -1 -1 -1 -0 -0 -0 -0 -1 -1 -2 3 4 5 6 5 5
8 8 7 9 9 9 9 10 9 9 8 9 9 9 7 4 3 4 3 2 1 -1 -1 -1 -1 -0 -0 -0 -0 -1 -1 -2 3 4 5 5 5 3
9 9 9 9 9 8 8 8 9 9 9 8 8 8 5 3 4 3 2 0 -1 -1 -1 -1 -1 -0 -0 -1 -1 -1 -2 -2 3 4 5 5 5 5
8 8 9 9 8 8 9 9 9 9 9 9 7 6 4 4 2 1 -0 -1 -1 -1 -1 -1 -0 -0 -1 -1 -1 -1 -2 -2 3 4 5 5 5 5
8 8 9 8 8 8 8 9 9 8 7 8 7 5 5 2 1 -0 -1 -1 -1 -1 -1 -1 -1 -1 -1 -1 -1 -1 -1 -3 -0 4 5 3 2 2
3 6 6 6 6 7 7 7 7 7 5 5 4 3 2 1 1 -1 -1 -1 -1 -1 -1 -1 -1 -1 -1 -1 -2 -2 -3 -4 -7 3 4 4 3 3
7 7 6 5 6 7 7 6 5 5 4 4 4 4 4 3 0 -0 -1 -1 -1 -1 -1 -1 -1 -1 -1 -2 -6 -6 -2 -8 -12 1 3 4 4 3
7 7 7 7 7 6 3 4 5 5 5 4 4 3 1 1 -0 -1 -1 -1 -1 -1 -1 -1 -1 -1 -3 -8 -16 -17 -4 -9 -17 -13 3 3 3 4
6 6 6 6 5 5 5 5 4 4 4 4 4 2 -0 -1 -1 -1 -1 -1 -1 -1 -1 -1 -1 -1 -2 -10 -16 -16 -20 -16 -22 -20 -9 2 3 3
5 5 5 5 4 4 4 3 4 4 4 4 4 1 -0 -1 -1 -1 -2 -2 -2 -2 -2 -1 -2 -2 -3 -3 -6 -20 -20 -20 -22 -23 -22 -8 2 2
4 4 5 4 4 3 3 3 3 3 4 4 2 2 -0 -1 -2 -2 -2 -3 -6 -8 -9 -6 -5 -5 -7 -8 -10 -19 -20 -21 -20 -20 -24 -23 -11 -0
2 3 3 3 3 3 2 2 2 1 2 1 1 1 -1 -1 -2 -3 -4 -10 -15 -17 -17 -16 -15 -14 -14 -12 -10 -19 -18 -17 -20 -18 -19 -22 -24 -24
1 2 2 2 2 2 2 2 1 1 1 1 0 1 -0 -2 -3 -6 -12 -15 -17 -19 -19 -18 -19 -17 -15 -13 -12 -17 -18 -16 -16 -18 -18 -17 -18 -18
1 1 1 1 1 1 2 2 1 1 1 0 -0 -0 -1 -2 -4 -9 -9 -16 -18 -20 -20 -20 -20 -19 -17 -16 -17 -18 -18 -17 -16 -15 -15 -16 -16 -17
0 -0 0 0 1 1 1 1 1 1 0 -0 -1 -1 -1 -2 -8 -10 -13 -16 -18 -20 -20 -20 -19 -19 -19 -18 -18 -19 -20 -18 -17 -16 -15 -15 -14 -14
-1 -1 -1 -1 -1 -0 -0 -0 -0 -0 -0 -1 -1 -1 -2 -3 -5 -6 -5 -12 -18 -19 -19 -19 -18 -17 -16 -16 -16 -16 -16 -17 -17 -16 -16 -16 -17 -16
-2 -2 -2 -2 -2 -2 -1 -1 -1 -1 -1 -1 -1 -2 -2 -3 -3 -4 -6 -15 -16 -17 -19 -18 -18 -15 -15 -15 -15 -16 -16 -16 -16 -17 -17 -18 -18 -18
-4 -3 -3 -3 -2 -2 -2 -2 -2 -2 -2 -2 -2 -2 -2 -3 -3 -4 -6 -12 -16 -17 -17 -16 -17 -17 -17 -16 -16 -16 -16 -16 -16 -18 -18 -18 -20 -22
-6 -5 -4 -3 -3 -3 -3 -3 -3 -2 -3 -3 -2 -2 -3 -3 -4 -4 -6 -11 -16 -16 -15 -17 -18 -19 -18 -18 -18 -18 -17 -18 -19 -20 -20 -20 -20 -21